<?xml version="1.0" encoding="UTF-8" standalone="no" ?>
<gpx xmlns="http://www.topografix.com/GPX/1/1" xmlns:xsi="http://www.w3.org/2001/XMLSchema-instance" xsi:schemaLocation="http://www.topografix.com/GPX/1/1 http://www.topografix.com/GPX/1/1/gpx.xsd" version="1.1" creator="VisuGPX - https://www.visugpx.com">
  <metadata>
    <name>Col du Loup - col des Lances</name>
    <desc><![CDATA[Belledonne : Freydieres - Lac du Crozet - Col du Loup - Col des Lances et retour]]></desc>
  </metadata>
  <trk>
    <name><![CDATA[col-loup-col-des-lances]]></name>
    <trkseg>
      <trkpt lat="45.18651" lon="5.89957">
        <ele>1148</ele>
        <time>2013-03-02T06:33:34Z</time>
      </trkpt>
      <trkpt lat="45.18662" lon="5.89928">
        <ele>1148</ele>
        <time>2013-03-02T06:33:50Z</time>
      </trkpt>
      <trkpt lat="45.18666" lon="5.89917">
        <ele>1147.8</ele>
        <time>2013-03-02T06:33:56Z</time>
      </trkpt>
      <trkpt lat="45.18666" lon="5.89916">
        <ele>1148.1</ele>
        <time>2013-03-02T06:33:57Z</time>
      </trkpt>
      <trkpt lat="45.18662" lon="5.89929">
        <ele>1147.4</ele>
        <time>2013-03-02T06:38:32Z</time>
      </trkpt>
      <trkpt lat="45.18672" lon="5.89948">
        <ele>1145.9</ele>
        <time>2013-03-02T06:38:47Z</time>
      </trkpt>
      <trkpt lat="45.1868" lon="5.89953">
        <ele>1146.9</ele>
        <time>2013-03-02T06:38:54Z</time>
      </trkpt>
      <trkpt lat="45.18689" lon="5.89954">
        <ele>1147.9</ele>
        <time>2013-03-02T06:39:06Z</time>
      </trkpt>
      <trkpt lat="45.18697" lon="5.89958">
        <ele>1147.3</ele>
        <time>2013-03-02T06:39:50Z</time>
      </trkpt>
      <trkpt lat="45.18697" lon="5.89959">
        <ele>1147.2</ele>
        <time>2013-03-02T06:39:51Z</time>
      </trkpt>
      <trkpt lat="45.18696" lon="5.89982">
        <ele>1148.4</ele>
        <time>2013-03-02T06:40:31Z</time>
      </trkpt>
      <trkpt lat="45.18695" lon="5.89995">
        <ele>1149.9</ele>
        <time>2013-03-02T06:40:46Z</time>
      </trkpt>
      <trkpt lat="45.18691" lon="5.90005">
        <ele>1150.7</ele>
        <time>2013-03-02T06:40:57Z</time>
      </trkpt>
      <trkpt lat="45.18691" lon="5.90006">
        <ele>1150.8</ele>
        <time>2013-03-02T06:40:58Z</time>
      </trkpt>
      <trkpt lat="45.18685" lon="5.90028">
        <ele>1152.3</ele>
        <time>2013-03-02T06:41:14Z</time>
      </trkpt>
      <trkpt lat="45.18685" lon="5.90041">
        <ele>1153.4</ele>
        <time>2013-03-02T06:41:22Z</time>
      </trkpt>
      <trkpt lat="45.18682" lon="5.90051">
        <ele>1154.5</ele>
        <time>2013-03-02T06:41:29Z</time>
      </trkpt>
      <trkpt lat="45.18676" lon="5.9006">
        <ele>1155.9</ele>
        <time>2013-03-02T06:41:36Z</time>
      </trkpt>
      <trkpt lat="45.18669" lon="5.90066">
        <ele>1156.3</ele>
        <time>2013-03-02T06:41:43Z</time>
      </trkpt>
      <trkpt lat="45.18661" lon="5.90072">
        <ele>1157.2</ele>
        <time>2013-03-02T06:41:51Z</time>
      </trkpt>
      <trkpt lat="45.18654" lon="5.90078">
        <ele>1158.2</ele>
        <time>2013-03-02T06:41:58Z</time>
      </trkpt>
      <trkpt lat="45.18652" lon="5.90079">
        <ele>1158.1</ele>
        <time>2013-03-02T06:41:59Z</time>
      </trkpt>
      <trkpt lat="45.18642" lon="5.90095">
        <ele>1159.4</ele>
        <time>2013-03-02T06:42:13Z</time>
      </trkpt>
      <trkpt lat="45.18638" lon="5.90104">
        <ele>1160.4</ele>
        <time>2013-03-02T06:42:22Z</time>
      </trkpt>
      <trkpt lat="45.18633" lon="5.90115">
        <ele>1162.2</ele>
        <time>2013-03-02T06:42:39Z</time>
      </trkpt>
      <trkpt lat="45.18628" lon="5.90125">
        <ele>1161.8</ele>
        <time>2013-03-02T06:43:16Z</time>
      </trkpt>
      <trkpt lat="45.18628" lon="5.90126">
        <ele>1161.4</ele>
        <time>2013-03-02T06:43:17Z</time>
      </trkpt>
      <trkpt lat="45.18643" lon="5.90114">
        <ele>1162.1</ele>
        <time>2013-03-02T06:43:55Z</time>
      </trkpt>
      <trkpt lat="45.1864" lon="5.90126">
        <ele>1161.7</ele>
        <time>2013-03-02T06:44:51Z</time>
      </trkpt>
      <trkpt lat="45.1864" lon="5.90127">
        <ele>1161.7</ele>
        <time>2013-03-02T06:44:52Z</time>
      </trkpt>
      <trkpt lat="45.1864" lon="5.9015">
        <ele>1164</ele>
        <time>2013-03-02T06:45:10Z</time>
      </trkpt>
      <trkpt lat="45.18641" lon="5.90162">
        <ele>1164.8</ele>
        <time>2013-03-02T06:45:18Z</time>
      </trkpt>
      <trkpt lat="45.18643" lon="5.90173">
        <ele>1165.4</ele>
        <time>2013-03-02T06:45:26Z</time>
      </trkpt>
      <trkpt lat="45.18644" lon="5.90185">
        <ele>1166.1</ele>
        <time>2013-03-02T06:45:33Z</time>
      </trkpt>
      <trkpt lat="45.18647" lon="5.90196">
        <ele>1166.2</ele>
        <time>2013-03-02T06:45:40Z</time>
      </trkpt>
      <trkpt lat="45.18649" lon="5.90208">
        <ele>1167.4</ele>
        <time>2013-03-02T06:45:47Z</time>
      </trkpt>
      <trkpt lat="45.18651" lon="5.9022">
        <ele>1168.6</ele>
        <time>2013-03-02T06:45:55Z</time>
      </trkpt>
      <trkpt lat="45.18651" lon="5.90221">
        <ele>1168.8</ele>
        <time>2013-03-02T06:45:56Z</time>
      </trkpt>
      <trkpt lat="45.18656" lon="5.90244">
        <ele>1171.1</ele>
        <time>2013-03-02T06:46:12Z</time>
      </trkpt>
      <trkpt lat="45.18658" lon="5.90255">
        <ele>1172</ele>
        <time>2013-03-02T06:46:20Z</time>
      </trkpt>
      <trkpt lat="45.18661" lon="5.90267">
        <ele>1173.3</ele>
        <time>2013-03-02T06:46:28Z</time>
      </trkpt>
      <trkpt lat="45.18664" lon="5.90278">
        <ele>1174.2</ele>
        <time>2013-03-02T06:46:36Z</time>
      </trkpt>
      <trkpt lat="45.18668" lon="5.90288">
        <ele>1176.1</ele>
        <time>2013-03-02T06:46:44Z</time>
      </trkpt>
      <trkpt lat="45.18672" lon="5.90298">
        <ele>1176.3</ele>
        <time>2013-03-02T06:46:54Z</time>
      </trkpt>
      <trkpt lat="45.18678" lon="5.90308">
        <ele>1178.2</ele>
        <time>2013-03-02T06:47:03Z</time>
      </trkpt>
      <trkpt lat="45.18679" lon="5.90309">
        <ele>1178.3</ele>
        <time>2013-03-02T06:47:04Z</time>
      </trkpt>
      <trkpt lat="45.18689" lon="5.90326">
        <ele>1182.1</ele>
        <time>2013-03-02T06:47:21Z</time>
      </trkpt>
      <trkpt lat="45.18693" lon="5.90335">
        <ele>1182.9</ele>
        <time>2013-03-02T06:47:30Z</time>
      </trkpt>
      <trkpt lat="45.18696" lon="5.90347">
        <ele>1185.5</ele>
        <time>2013-03-02T06:47:41Z</time>
      </trkpt>
      <trkpt lat="45.18694" lon="5.90359">
        <ele>1186.9</ele>
        <time>2013-03-02T06:47:51Z</time>
      </trkpt>
      <trkpt lat="45.18688" lon="5.90366">
        <ele>1188.9</ele>
        <time>2013-03-02T06:47:59Z</time>
      </trkpt>
      <trkpt lat="45.18681" lon="5.90372">
        <ele>1189.1</ele>
        <time>2013-03-02T06:48:07Z</time>
      </trkpt>
      <trkpt lat="45.1868" lon="5.90372">
        <ele>1188.9</ele>
        <time>2013-03-02T06:48:08Z</time>
      </trkpt>
      <trkpt lat="45.18665" lon="5.90383">
        <ele>1191.9</ele>
        <time>2013-03-02T06:48:26Z</time>
      </trkpt>
      <trkpt lat="45.18661" lon="5.90393">
        <ele>1194.3</ele>
        <time>2013-03-02T06:48:36Z</time>
      </trkpt>
      <trkpt lat="45.18658" lon="5.90405">
        <ele>1195.3</ele>
        <time>2013-03-02T06:48:46Z</time>
      </trkpt>
      <trkpt lat="45.18654" lon="5.90416">
        <ele>1196.6</ele>
        <time>2013-03-02T06:48:54Z</time>
      </trkpt>
      <trkpt lat="45.18649" lon="5.90426">
        <ele>1196.8</ele>
        <time>2013-03-02T06:49:03Z</time>
      </trkpt>
      <trkpt lat="45.18642" lon="5.90432">
        <ele>1197.7</ele>
        <time>2013-03-02T06:49:12Z</time>
      </trkpt>
      <trkpt lat="45.18642" lon="5.90433">
        <ele>1198.2</ele>
        <time>2013-03-02T06:49:13Z</time>
      </trkpt>
      <trkpt lat="45.18627" lon="5.90444">
        <ele>1202</ele>
        <time>2013-03-02T06:49:29Z</time>
      </trkpt>
      <trkpt lat="45.18619" lon="5.90448">
        <ele>1202.4</ele>
        <time>2013-03-02T06:49:38Z</time>
      </trkpt>
      <trkpt lat="45.18612" lon="5.90452">
        <ele>1202.9</ele>
        <time>2013-03-02T06:49:48Z</time>
      </trkpt>
      <trkpt lat="45.18603" lon="5.90457">
        <ele>1205.4</ele>
        <time>2013-03-02T06:49:58Z</time>
      </trkpt>
      <trkpt lat="45.18599" lon="5.90468">
        <ele>1206.8</ele>
        <time>2013-03-02T06:50:10Z</time>
      </trkpt>
      <trkpt lat="45.18597" lon="5.90479">
        <ele>1208.2</ele>
        <time>2013-03-02T06:50:22Z</time>
      </trkpt>
      <trkpt lat="45.18596" lon="5.90481">
        <ele>1208.4</ele>
        <time>2013-03-02T06:50:23Z</time>
      </trkpt>
      <trkpt lat="45.18592" lon="5.90503">
        <ele>1210.9</ele>
        <time>2013-03-02T06:50:40Z</time>
      </trkpt>
      <trkpt lat="45.18589" lon="5.90514">
        <ele>1211.9</ele>
        <time>2013-03-02T06:50:48Z</time>
      </trkpt>
      <trkpt lat="45.18585" lon="5.90525">
        <ele>1213.4</ele>
        <time>2013-03-02T06:50:58Z</time>
      </trkpt>
      <trkpt lat="45.1858" lon="5.90536">
        <ele>1214.1</ele>
        <time>2013-03-02T06:51:30Z</time>
      </trkpt>
      <trkpt lat="45.1858" lon="5.90536">
        <ele>1214</ele>
        <time>2013-03-02T06:51:31Z</time>
      </trkpt>
      <trkpt lat="45.18564" lon="5.90527">
        <ele>1214.1</ele>
        <time>2013-03-02T06:52:18Z</time>
      </trkpt>
      <trkpt lat="45.18564" lon="5.90539">
        <ele>1216.9</ele>
        <time>2013-03-02T06:52:44Z</time>
      </trkpt>
      <trkpt lat="45.18564" lon="5.9054">
        <ele>1216.6</ele>
        <time>2013-03-02T06:52:45Z</time>
      </trkpt>
      <trkpt lat="45.18551" lon="5.90556">
        <ele>1220.6</ele>
        <time>2013-03-02T06:53:08Z</time>
      </trkpt>
      <trkpt lat="45.18546" lon="5.90566">
        <ele>1222.4</ele>
        <time>2013-03-02T06:53:23Z</time>
      </trkpt>
      <trkpt lat="45.18539" lon="5.90574">
        <ele>1224.4</ele>
        <time>2013-03-02T06:53:33Z</time>
      </trkpt>
      <trkpt lat="45.18533" lon="5.90582">
        <ele>1225.3</ele>
        <time>2013-03-02T06:53:44Z</time>
      </trkpt>
      <trkpt lat="45.18525" lon="5.90588">
        <ele>1228</ele>
        <time>2013-03-02T06:53:54Z</time>
      </trkpt>
      <trkpt lat="45.18524" lon="5.90589">
        <ele>1228.1</ele>
        <time>2013-03-02T06:53:55Z</time>
      </trkpt>
      <trkpt lat="45.1851" lon="5.90599">
        <ele>1232.1</ele>
        <time>2013-03-02T06:54:13Z</time>
      </trkpt>
      <trkpt lat="45.18502" lon="5.90603">
        <ele>1234.3</ele>
        <time>2013-03-02T06:54:25Z</time>
      </trkpt>
      <trkpt lat="45.18493" lon="5.90606">
        <ele>1236</ele>
        <time>2013-03-02T06:54:35Z</time>
      </trkpt>
      <trkpt lat="45.18487" lon="5.90614">
        <ele>1239.5</ele>
        <time>2013-03-02T06:54:48Z</time>
      </trkpt>
      <trkpt lat="45.18479" lon="5.9062">
        <ele>1241.8</ele>
        <time>2013-03-02T06:55:00Z</time>
      </trkpt>
      <trkpt lat="45.18478" lon="5.90621">
        <ele>1242.2</ele>
        <time>2013-03-02T06:55:01Z</time>
      </trkpt>
      <trkpt lat="45.18463" lon="5.90628">
        <ele>1245.2</ele>
        <time>2013-03-02T06:55:18Z</time>
      </trkpt>
      <trkpt lat="45.18456" lon="5.90634">
        <ele>1245.2</ele>
        <time>2013-03-02T06:55:27Z</time>
      </trkpt>
      <trkpt lat="45.18449" lon="5.90642">
        <ele>1246.6</ele>
        <time>2013-03-02T06:55:35Z</time>
      </trkpt>
      <trkpt lat="45.18446" lon="5.90653">
        <ele>1247.6</ele>
        <time>2013-03-02T06:55:43Z</time>
      </trkpt>
      <trkpt lat="45.18443" lon="5.90664">
        <ele>1248.1</ele>
        <time>2013-03-02T06:55:51Z</time>
      </trkpt>
      <trkpt lat="45.18438" lon="5.90674">
        <ele>1248.5</ele>
        <time>2013-03-02T06:55:59Z</time>
      </trkpt>
      <trkpt lat="45.18434" lon="5.90684">
        <ele>1249.3</ele>
        <time>2013-03-02T06:56:07Z</time>
      </trkpt>
      <trkpt lat="45.18433" lon="5.90685">
        <ele>1249.4</ele>
        <time>2013-03-02T06:56:08Z</time>
      </trkpt>
      <trkpt lat="45.18428" lon="5.90706">
        <ele>1252</ele>
        <time>2013-03-02T06:56:26Z</time>
      </trkpt>
      <trkpt lat="45.18428" lon="5.90719">
        <ele>1252.7</ele>
        <time>2013-03-02T06:56:38Z</time>
      </trkpt>
      <trkpt lat="45.18431" lon="5.9073">
        <ele>1254.6</ele>
        <time>2013-03-02T06:56:50Z</time>
      </trkpt>
      <trkpt lat="45.18436" lon="5.90739">
        <ele>1257</ele>
        <time>2013-03-02T06:57:00Z</time>
      </trkpt>
      <trkpt lat="45.18443" lon="5.90746">
        <ele>1259.1</ele>
        <time>2013-03-02T06:57:10Z</time>
      </trkpt>
      <trkpt lat="45.18445" lon="5.90746">
        <ele>1259.4</ele>
        <time>2013-03-02T06:57:11Z</time>
      </trkpt>
      <trkpt lat="45.18459" lon="5.90758">
        <ele>1262</ele>
        <time>2013-03-02T06:57:30Z</time>
      </trkpt>
      <trkpt lat="45.18466" lon="5.90764">
        <ele>1263.3</ele>
        <time>2013-03-02T06:57:40Z</time>
      </trkpt>
      <trkpt lat="45.18473" lon="5.90773">
        <ele>1266.4</ele>
        <time>2013-03-02T06:57:53Z</time>
      </trkpt>
      <trkpt lat="45.18479" lon="5.90781">
        <ele>1268.5</ele>
        <time>2013-03-02T06:58:04Z</time>
      </trkpt>
      <trkpt lat="45.18486" lon="5.90788">
        <ele>1270.5</ele>
        <time>2013-03-02T06:58:15Z</time>
      </trkpt>
      <trkpt lat="45.18486" lon="5.90788">
        <ele>1270.8</ele>
        <time>2013-03-02T06:58:16Z</time>
      </trkpt>
      <trkpt lat="45.18499" lon="5.90802">
        <ele>1274.5</ele>
        <time>2013-03-02T06:58:38Z</time>
      </trkpt>
      <trkpt lat="45.18506" lon="5.90809">
        <ele>1276.4</ele>
        <time>2013-03-02T06:58:47Z</time>
      </trkpt>
      <trkpt lat="45.18513" lon="5.90817">
        <ele>1278.1</ele>
        <time>2013-03-02T06:58:56Z</time>
      </trkpt>
      <trkpt lat="45.1852" lon="5.90823">
        <ele>1279.1</ele>
        <time>2013-03-02T06:59:07Z</time>
      </trkpt>
      <trkpt lat="45.18527" lon="5.90831">
        <ele>1280.1</ele>
        <time>2013-03-02T06:59:19Z</time>
      </trkpt>
      <trkpt lat="45.18528" lon="5.90832">
        <ele>1280.1</ele>
        <time>2013-03-02T06:59:20Z</time>
      </trkpt>
      <trkpt lat="45.18538" lon="5.90851">
        <ele>1285.5</ele>
        <time>2013-03-02T06:59:42Z</time>
      </trkpt>
      <trkpt lat="45.18544" lon="5.90859">
        <ele>1286.5</ele>
        <time>2013-03-02T06:59:51Z</time>
      </trkpt>
      <trkpt lat="45.18551" lon="5.90866">
        <ele>1289</ele>
        <time>2013-03-02T07:00:03Z</time>
      </trkpt>
      <trkpt lat="45.18559" lon="5.90873">
        <ele>1291</ele>
        <time>2013-03-02T07:00:14Z</time>
      </trkpt>
      <trkpt lat="45.18566" lon="5.90878">
        <ele>1292</ele>
        <time>2013-03-02T07:00:24Z</time>
      </trkpt>
      <trkpt lat="45.18567" lon="5.90879">
        <ele>1292.8</ele>
        <time>2013-03-02T07:00:25Z</time>
      </trkpt>
      <trkpt lat="45.18577" lon="5.90898">
        <ele>1297.7</ele>
        <time>2013-03-02T07:00:49Z</time>
      </trkpt>
      <trkpt lat="45.18583" lon="5.90907">
        <ele>1298.4</ele>
        <time>2013-03-02T07:01:00Z</time>
      </trkpt>
      <trkpt lat="45.18589" lon="5.90915">
        <ele>1301</ele>
        <time>2013-03-02T07:01:11Z</time>
      </trkpt>
      <trkpt lat="45.18594" lon="5.90925">
        <ele>1303.4</ele>
        <time>2013-03-02T07:01:22Z</time>
      </trkpt>
      <trkpt lat="45.186" lon="5.90933">
        <ele>1305.5</ele>
        <time>2013-03-02T07:01:33Z</time>
      </trkpt>
      <trkpt lat="45.18601" lon="5.90934">
        <ele>1305.2</ele>
        <time>2013-03-02T07:01:34Z</time>
      </trkpt>
      <trkpt lat="45.18613" lon="5.90948">
        <ele>1308.1</ele>
        <time>2013-03-02T07:01:51Z</time>
      </trkpt>
      <trkpt lat="45.18619" lon="5.90957">
        <ele>1310</ele>
        <time>2013-03-02T07:02:04Z</time>
      </trkpt>
      <trkpt lat="45.18625" lon="5.90965">
        <ele>1311.4</ele>
        <time>2013-03-02T07:02:15Z</time>
      </trkpt>
      <trkpt lat="45.18629" lon="5.90976">
        <ele>1313.8</ele>
        <time>2013-03-02T07:02:28Z</time>
      </trkpt>
      <trkpt lat="45.18634" lon="5.90986">
        <ele>1317.7</ele>
        <time>2013-03-02T07:02:42Z</time>
      </trkpt>
      <trkpt lat="45.18634" lon="5.90987">
        <ele>1317.2</ele>
        <time>2013-03-02T07:02:43Z</time>
      </trkpt>
      <trkpt lat="45.18646" lon="5.91002">
        <ele>1320.4</ele>
        <time>2013-03-02T07:03:04Z</time>
      </trkpt>
      <trkpt lat="45.18651" lon="5.91013">
        <ele>1322.4</ele>
        <time>2013-03-02T07:03:18Z</time>
      </trkpt>
      <trkpt lat="45.18657" lon="5.91022">
        <ele>1325.2</ele>
        <time>2013-03-02T07:03:33Z</time>
      </trkpt>
      <trkpt lat="45.18661" lon="5.91033">
        <ele>1328.8</ele>
        <time>2013-03-02T07:03:47Z</time>
      </trkpt>
      <trkpt lat="45.18662" lon="5.91034">
        <ele>1328.9</ele>
        <time>2013-03-02T07:03:48Z</time>
      </trkpt>
      <trkpt lat="45.18672" lon="5.91051">
        <ele>1332.2</ele>
        <time>2013-03-02T07:04:11Z</time>
      </trkpt>
      <trkpt lat="45.18677" lon="5.91061">
        <ele>1335.1</ele>
        <time>2013-03-02T07:04:24Z</time>
      </trkpt>
      <trkpt lat="45.18683" lon="5.9107">
        <ele>1336.4</ele>
        <time>2013-03-02T07:04:37Z</time>
      </trkpt>
      <trkpt lat="45.1869" lon="5.91079">
        <ele>1338.1</ele>
        <time>2013-03-02T07:04:50Z</time>
      </trkpt>
      <trkpt lat="45.1869" lon="5.91079">
        <ele>1338.5</ele>
        <time>2013-03-02T07:04:51Z</time>
      </trkpt>
      <trkpt lat="45.18703" lon="5.91095">
        <ele>1342.8</ele>
        <time>2013-03-02T07:05:14Z</time>
      </trkpt>
      <trkpt lat="45.18711" lon="5.911">
        <ele>1345.6</ele>
        <time>2013-03-02T07:05:25Z</time>
      </trkpt>
      <trkpt lat="45.18718" lon="5.91105">
        <ele>1347.3</ele>
        <time>2013-03-02T07:05:36Z</time>
      </trkpt>
      <trkpt lat="45.18727" lon="5.91109">
        <ele>1349.6</ele>
        <time>2013-03-02T07:05:48Z</time>
      </trkpt>
      <trkpt lat="45.18735" lon="5.91111">
        <ele>1351.4</ele>
        <time>2013-03-02T07:05:59Z</time>
      </trkpt>
      <trkpt lat="45.18736" lon="5.91111">
        <ele>1351.5</ele>
        <time>2013-03-02T07:06:00Z</time>
      </trkpt>
      <trkpt lat="45.18751" lon="5.91114">
        <ele>1355.5</ele>
        <time>2013-03-02T07:06:20Z</time>
      </trkpt>
      <trkpt lat="45.1876" lon="5.91115">
        <ele>1356.6</ele>
        <time>2013-03-02T07:06:32Z</time>
      </trkpt>
      <trkpt lat="45.18768" lon="5.91115">
        <ele>1359</ele>
        <time>2013-03-02T07:06:42Z</time>
      </trkpt>
      <trkpt lat="45.18777" lon="5.91118">
        <ele>1361.3</ele>
        <time>2013-03-02T07:06:53Z</time>
      </trkpt>
      <trkpt lat="45.18784" lon="5.91124">
        <ele>1362.2</ele>
        <time>2013-03-02T07:07:04Z</time>
      </trkpt>
      <trkpt lat="45.18785" lon="5.91125">
        <ele>1362.5</ele>
        <time>2013-03-02T07:07:05Z</time>
      </trkpt>
      <trkpt lat="45.18796" lon="5.91144">
        <ele>1367.6</ele>
        <time>2013-03-02T07:07:26Z</time>
      </trkpt>
      <trkpt lat="45.18794" lon="5.91156">
        <ele>1369.4</ele>
        <time>2013-03-02T07:07:39Z</time>
      </trkpt>
      <trkpt lat="45.18787" lon="5.91163">
        <ele>1371.9</ele>
        <time>2013-03-02T07:07:50Z</time>
      </trkpt>
      <trkpt lat="45.18779" lon="5.91165">
        <ele>1372.8</ele>
        <time>2013-03-02T07:07:59Z</time>
      </trkpt>
      <trkpt lat="45.18772" lon="5.91171">
        <ele>1374.8</ele>
        <time>2013-03-02T07:08:10Z</time>
      </trkpt>
      <trkpt lat="45.18772" lon="5.91172">
        <ele>1375.2</ele>
        <time>2013-03-02T07:08:11Z</time>
      </trkpt>
      <trkpt lat="45.18759" lon="5.91186">
        <ele>1378.6</ele>
        <time>2013-03-02T07:08:32Z</time>
      </trkpt>
      <trkpt lat="45.18752" lon="5.91194">
        <ele>1380.5</ele>
        <time>2013-03-02T07:08:44Z</time>
      </trkpt>
      <trkpt lat="45.18747" lon="5.91204">
        <ele>1381.8</ele>
        <time>2013-03-02T07:08:54Z</time>
      </trkpt>
      <trkpt lat="45.18741" lon="5.91213">
        <ele>1383.1</ele>
        <time>2013-03-02T07:09:05Z</time>
      </trkpt>
      <trkpt lat="45.18735" lon="5.91221">
        <ele>1385.1</ele>
        <time>2013-03-02T07:09:13Z</time>
      </trkpt>
      <trkpt lat="45.18734" lon="5.91222">
        <ele>1385.1</ele>
        <time>2013-03-02T07:09:14Z</time>
      </trkpt>
      <trkpt lat="45.18723" lon="5.91239">
        <ele>1386.9</ele>
        <time>2013-03-02T07:09:31Z</time>
      </trkpt>
      <trkpt lat="45.18717" lon="5.91248">
        <ele>1387.3</ele>
        <time>2013-03-02T07:09:39Z</time>
      </trkpt>
      <trkpt lat="45.18711" lon="5.91256">
        <ele>1387.6</ele>
        <time>2013-03-02T07:09:48Z</time>
      </trkpt>
      <trkpt lat="45.18705" lon="5.91265">
        <ele>1388</ele>
        <time>2013-03-02T07:09:57Z</time>
      </trkpt>
      <trkpt lat="45.18698" lon="5.91271">
        <ele>1388.4</ele>
        <time>2013-03-02T07:10:07Z</time>
      </trkpt>
      <trkpt lat="45.18689" lon="5.91275">
        <ele>1388.5</ele>
        <time>2013-03-02T07:10:49Z</time>
      </trkpt>
      <trkpt lat="45.18689" lon="5.91274">
        <ele>1388.4</ele>
        <time>2013-03-02T07:10:50Z</time>
      </trkpt>
      <trkpt lat="45.18685" lon="5.91276">
        <ele>1388.1</ele>
        <time>2013-03-02T07:14:55Z</time>
      </trkpt>
      <trkpt lat="45.18685" lon="5.91276">
        <ele>1388.4</ele>
        <time>2013-03-02T07:14:56Z</time>
      </trkpt>
      <trkpt lat="45.18685" lon="5.91289">
        <ele>1387</ele>
        <time>2013-03-02T07:16:03Z</time>
      </trkpt>
      <trkpt lat="45.18681" lon="5.91301">
        <ele>1388.9</ele>
        <time>2013-03-02T07:19:20Z</time>
      </trkpt>
      <trkpt lat="45.18667" lon="5.91309">
        <ele>1392.1</ele>
        <time>2013-03-02T07:19:36Z</time>
      </trkpt>
      <trkpt lat="45.18658" lon="5.91311">
        <ele>1394</ele>
        <time>2013-03-02T07:19:46Z</time>
      </trkpt>
      <trkpt lat="45.1865" lon="5.91309">
        <ele>1396.4</ele>
        <time>2013-03-02T07:19:54Z</time>
      </trkpt>
      <trkpt lat="45.18642" lon="5.91307">
        <ele>1397.8</ele>
        <time>2013-03-02T07:20:02Z</time>
      </trkpt>
      <trkpt lat="45.18633" lon="5.91307">
        <ele>1399.5</ele>
        <time>2013-03-02T07:20:10Z</time>
      </trkpt>
      <trkpt lat="45.18625" lon="5.91305">
        <ele>1400.2</ele>
        <time>2013-03-02T07:20:18Z</time>
      </trkpt>
      <trkpt lat="45.18617" lon="5.91305">
        <ele>1402.4</ele>
        <time>2013-03-02T07:20:26Z</time>
      </trkpt>
      <trkpt lat="45.18616" lon="5.91304">
        <ele>1402.6</ele>
        <time>2013-03-02T07:20:27Z</time>
      </trkpt>
      <trkpt lat="45.18601" lon="5.9131">
        <ele>1403.6</ele>
        <time>2013-03-02T07:20:41Z</time>
      </trkpt>
      <trkpt lat="45.18593" lon="5.91312">
        <ele>1405</ele>
        <time>2013-03-02T07:20:47Z</time>
      </trkpt>
      <trkpt lat="45.18585" lon="5.91314">
        <ele>1405.5</ele>
        <time>2013-03-02T07:20:56Z</time>
      </trkpt>
      <trkpt lat="45.18577" lon="5.91319">
        <ele>1406.6</ele>
        <time>2013-03-02T07:21:08Z</time>
      </trkpt>
      <trkpt lat="45.18571" lon="5.91328">
        <ele>1408.9</ele>
        <time>2013-03-02T07:21:19Z</time>
      </trkpt>
      <trkpt lat="45.18565" lon="5.91336">
        <ele>1411.4</ele>
        <time>2013-03-02T07:21:28Z</time>
      </trkpt>
      <trkpt lat="45.18564" lon="5.91337">
        <ele>1411.2</ele>
        <time>2013-03-02T07:21:29Z</time>
      </trkpt>
      <trkpt lat="45.18553" lon="5.91353">
        <ele>1413.7</ele>
        <time>2013-03-02T07:21:46Z</time>
      </trkpt>
      <trkpt lat="45.18545" lon="5.91356">
        <ele>1416.5</ele>
        <time>2013-03-02T07:21:56Z</time>
      </trkpt>
      <trkpt lat="45.18536" lon="5.91358">
        <ele>1418.8</ele>
        <time>2013-03-02T07:22:07Z</time>
      </trkpt>
      <trkpt lat="45.18528" lon="5.91364">
        <ele>1421.1</ele>
        <time>2013-03-02T07:22:20Z</time>
      </trkpt>
      <trkpt lat="45.18522" lon="5.91372">
        <ele>1422.7</ele>
        <time>2013-03-02T07:22:30Z</time>
      </trkpt>
      <trkpt lat="45.18522" lon="5.91373">
        <ele>1422.8</ele>
        <time>2013-03-02T07:22:31Z</time>
      </trkpt>
      <trkpt lat="45.18509" lon="5.91387">
        <ele>1427.5</ele>
        <time>2013-03-02T07:22:53Z</time>
      </trkpt>
      <trkpt lat="45.185" lon="5.91388">
        <ele>1429.8</ele>
        <time>2013-03-02T07:23:05Z</time>
      </trkpt>
      <trkpt lat="45.18492" lon="5.9139">
        <ele>1431.3</ele>
        <time>2013-03-02T07:23:16Z</time>
      </trkpt>
      <trkpt lat="45.18484" lon="5.91383">
        <ele>1433.4</ele>
        <time>2013-03-02T07:23:28Z</time>
      </trkpt>
      <trkpt lat="45.18476" lon="5.9138">
        <ele>1435.6</ele>
        <time>2013-03-02T07:23:37Z</time>
      </trkpt>
      <trkpt lat="45.18475" lon="5.9138">
        <ele>1435.6</ele>
        <time>2013-03-02T07:23:38Z</time>
      </trkpt>
      <trkpt lat="45.1846" lon="5.91375">
        <ele>1437.9</ele>
        <time>2013-03-02T07:23:56Z</time>
      </trkpt>
      <trkpt lat="45.18451" lon="5.91376">
        <ele>1439.2</ele>
        <time>2013-03-02T07:24:07Z</time>
      </trkpt>
      <trkpt lat="45.18443" lon="5.91376">
        <ele>1442</ele>
        <time>2013-03-02T07:24:16Z</time>
      </trkpt>
      <trkpt lat="45.18434" lon="5.91377">
        <ele>1442.9</ele>
        <time>2013-03-02T07:24:28Z</time>
      </trkpt>
      <trkpt lat="45.18426" lon="5.91379">
        <ele>1444.9</ele>
        <time>2013-03-02T07:24:39Z</time>
      </trkpt>
      <trkpt lat="45.18425" lon="5.91379">
        <ele>1445</ele>
        <time>2013-03-02T07:24:40Z</time>
      </trkpt>
      <trkpt lat="45.18408" lon="5.91377">
        <ele>1448.5</ele>
        <time>2013-03-02T07:25:01Z</time>
      </trkpt>
      <trkpt lat="45.184" lon="5.91379">
        <ele>1450.6</ele>
        <time>2013-03-02T07:25:14Z</time>
      </trkpt>
      <trkpt lat="45.18391" lon="5.9138">
        <ele>1453.2</ele>
        <time>2013-03-02T07:25:25Z</time>
      </trkpt>
      <trkpt lat="45.18382" lon="5.91382">
        <ele>1455</ele>
        <time>2013-03-02T07:25:39Z</time>
      </trkpt>
      <trkpt lat="45.18374" lon="5.91386">
        <ele>1458.2</ele>
        <time>2013-03-02T07:25:52Z</time>
      </trkpt>
      <trkpt lat="45.18373" lon="5.91386">
        <ele>1458.4</ele>
        <time>2013-03-02T07:25:53Z</time>
      </trkpt>
      <trkpt lat="45.18358" lon="5.91394">
        <ele>1461.5</ele>
        <time>2013-03-02T07:26:16Z</time>
      </trkpt>
      <trkpt lat="45.1835" lon="5.91398">
        <ele>1463.3</ele>
        <time>2013-03-02T07:26:28Z</time>
      </trkpt>
      <trkpt lat="45.18341" lon="5.91403">
        <ele>1465.2</ele>
        <time>2013-03-02T07:26:41Z</time>
      </trkpt>
      <trkpt lat="45.18333" lon="5.91406">
        <ele>1466.8</ele>
        <time>2013-03-02T07:26:52Z</time>
      </trkpt>
      <trkpt lat="45.18326" lon="5.91411">
        <ele>1468.9</ele>
        <time>2013-03-02T07:27:03Z</time>
      </trkpt>
      <trkpt lat="45.18325" lon="5.91411">
        <ele>1469</ele>
        <time>2013-03-02T07:27:04Z</time>
      </trkpt>
      <trkpt lat="45.18309" lon="5.91417">
        <ele>1473.3</ele>
        <time>2013-03-02T07:27:28Z</time>
      </trkpt>
      <trkpt lat="45.183" lon="5.9142">
        <ele>1474.6</ele>
        <time>2013-03-02T07:27:40Z</time>
      </trkpt>
      <trkpt lat="45.18292" lon="5.91421">
        <ele>1477</ele>
        <time>2013-03-02T07:27:53Z</time>
      </trkpt>
      <trkpt lat="45.18283" lon="5.9142">
        <ele>1479.1</ele>
        <time>2013-03-02T07:28:05Z</time>
      </trkpt>
      <trkpt lat="45.18282" lon="5.9142">
        <ele>1479.5</ele>
        <time>2013-03-02T07:28:06Z</time>
      </trkpt>
      <trkpt lat="45.18265" lon="5.91418">
        <ele>1481.7</ele>
        <time>2013-03-02T07:28:27Z</time>
      </trkpt>
      <trkpt lat="45.18258" lon="5.91423">
        <ele>1482.9</ele>
        <time>2013-03-02T07:28:39Z</time>
      </trkpt>
      <trkpt lat="45.18249" lon="5.91427">
        <ele>1485</ele>
        <time>2013-03-02T07:28:50Z</time>
      </trkpt>
      <trkpt lat="45.18241" lon="5.91429">
        <ele>1487.7</ele>
        <time>2013-03-02T07:29:03Z</time>
      </trkpt>
      <trkpt lat="45.18233" lon="5.9143">
        <ele>1489.4</ele>
        <time>2013-03-02T07:29:14Z</time>
      </trkpt>
      <trkpt lat="45.18232" lon="5.9143">
        <ele>1489.6</ele>
        <time>2013-03-02T07:29:15Z</time>
      </trkpt>
      <trkpt lat="45.18216" lon="5.91437">
        <ele>1493.1</ele>
        <time>2013-03-02T07:29:39Z</time>
      </trkpt>
      <trkpt lat="45.18208" lon="5.91442">
        <ele>1494.8</ele>
        <time>2013-03-02T07:29:51Z</time>
      </trkpt>
      <trkpt lat="45.18201" lon="5.91449">
        <ele>1497.3</ele>
        <time>2013-03-02T07:30:02Z</time>
      </trkpt>
      <trkpt lat="45.18192" lon="5.91453">
        <ele>1499.7</ele>
        <time>2013-03-02T07:30:16Z</time>
      </trkpt>
      <trkpt lat="45.18192" lon="5.91454">
        <ele>1499.4</ele>
        <time>2013-03-02T07:30:17Z</time>
      </trkpt>
      <trkpt lat="45.18177" lon="5.91461">
        <ele>1501.9</ele>
        <time>2013-03-02T07:30:39Z</time>
      </trkpt>
      <trkpt lat="45.18168" lon="5.91462">
        <ele>1503.3</ele>
        <time>2013-03-02T07:30:50Z</time>
      </trkpt>
      <trkpt lat="45.1816" lon="5.91466">
        <ele>1505</ele>
        <time>2013-03-02T07:31:02Z</time>
      </trkpt>
      <trkpt lat="45.18152" lon="5.9147">
        <ele>1507.3</ele>
        <time>2013-03-02T07:31:15Z</time>
      </trkpt>
      <trkpt lat="45.18143" lon="5.91474">
        <ele>1509.1</ele>
        <time>2013-03-02T07:31:26Z</time>
      </trkpt>
      <trkpt lat="45.18142" lon="5.91474">
        <ele>1509.1</ele>
        <time>2013-03-02T07:31:27Z</time>
      </trkpt>
      <trkpt lat="45.18128" lon="5.91486">
        <ele>1514.1</ele>
        <time>2013-03-02T07:31:49Z</time>
      </trkpt>
      <trkpt lat="45.18123" lon="5.91496">
        <ele>1515</ele>
        <time>2013-03-02T07:32:01Z</time>
      </trkpt>
      <trkpt lat="45.18124" lon="5.91507">
        <ele>1515.9</ele>
        <time>2013-03-02T07:32:15Z</time>
      </trkpt>
      <trkpt lat="45.18127" lon="5.91519">
        <ele>1516.1</ele>
        <time>2013-03-02T07:32:25Z</time>
      </trkpt>
      <trkpt lat="45.1813" lon="5.91531">
        <ele>1517.4</ele>
        <time>2013-03-02T07:32:35Z</time>
      </trkpt>
      <trkpt lat="45.1813" lon="5.91532">
        <ele>1517.3</ele>
        <time>2013-03-02T07:32:36Z</time>
      </trkpt>
      <trkpt lat="45.18127" lon="5.91554">
        <ele>1520.1</ele>
        <time>2013-03-02T07:32:53Z</time>
      </trkpt>
      <trkpt lat="45.18122" lon="5.91564">
        <ele>1520.2</ele>
        <time>2013-03-02T07:33:02Z</time>
      </trkpt>
      <trkpt lat="45.18115" lon="5.91571">
        <ele>1521.1</ele>
        <time>2013-03-02T07:33:10Z</time>
      </trkpt>
      <trkpt lat="45.18108" lon="5.91576">
        <ele>1521.5</ele>
        <time>2013-03-02T07:33:19Z</time>
      </trkpt>
      <trkpt lat="45.18099" lon="5.91579">
        <ele>1523.8</ele>
        <time>2013-03-02T07:33:29Z</time>
      </trkpt>
      <trkpt lat="45.18091" lon="5.9158">
        <ele>1524.2</ele>
        <time>2013-03-02T07:33:38Z</time>
      </trkpt>
      <trkpt lat="45.1809" lon="5.91581">
        <ele>1524.3</ele>
        <time>2013-03-02T07:33:39Z</time>
      </trkpt>
      <trkpt lat="45.18074" lon="5.91584">
        <ele>1524.5</ele>
        <time>2013-03-02T07:33:58Z</time>
      </trkpt>
      <trkpt lat="45.18066" lon="5.91587">
        <ele>1524.8</ele>
        <time>2013-03-02T07:34:07Z</time>
      </trkpt>
      <trkpt lat="45.18057" lon="5.91589">
        <ele>1526.6</ele>
        <time>2013-03-02T07:34:16Z</time>
      </trkpt>
      <trkpt lat="45.18048" lon="5.91591">
        <ele>1526.5</ele>
        <time>2013-03-02T07:34:27Z</time>
      </trkpt>
      <trkpt lat="45.1804" lon="5.91591">
        <ele>1527.3</ele>
        <time>2013-03-02T07:34:35Z</time>
      </trkpt>
      <trkpt lat="45.18031" lon="5.9159">
        <ele>1527.4</ele>
        <time>2013-03-02T07:34:43Z</time>
      </trkpt>
      <trkpt lat="45.1803" lon="5.9159">
        <ele>1527.4</ele>
        <time>2013-03-02T07:34:44Z</time>
      </trkpt>
      <trkpt lat="45.18014" lon="5.91588">
        <ele>1528.7</ele>
        <time>2013-03-02T07:35:01Z</time>
      </trkpt>
      <trkpt lat="45.18006" lon="5.91589">
        <ele>1530.1</ele>
        <time>2013-03-02T07:35:11Z</time>
      </trkpt>
      <trkpt lat="45.17997" lon="5.9159">
        <ele>1531.7</ele>
        <time>2013-03-02T07:35:20Z</time>
      </trkpt>
      <trkpt lat="45.17989" lon="5.9159">
        <ele>1532.7</ele>
        <time>2013-03-02T07:35:31Z</time>
      </trkpt>
      <trkpt lat="45.1798" lon="5.91591">
        <ele>1535.2</ele>
        <time>2013-03-02T07:35:43Z</time>
      </trkpt>
      <trkpt lat="45.17972" lon="5.91593">
        <ele>1537</ele>
        <time>2013-03-02T07:35:54Z</time>
      </trkpt>
      <trkpt lat="45.17971" lon="5.91593">
        <ele>1537.3</ele>
        <time>2013-03-02T07:35:55Z</time>
      </trkpt>
      <trkpt lat="45.17955" lon="5.91595">
        <ele>1541.6</ele>
        <time>2013-03-02T07:36:23Z</time>
      </trkpt>
      <trkpt lat="45.17947" lon="5.91599">
        <ele>1543.6</ele>
        <time>2013-03-02T07:36:38Z</time>
      </trkpt>
      <trkpt lat="45.17939" lon="5.91602">
        <ele>1545.7</ele>
        <time>2013-03-02T07:36:49Z</time>
      </trkpt>
      <trkpt lat="45.1793" lon="5.91603">
        <ele>1547.1</ele>
        <time>2013-03-02T07:36:59Z</time>
      </trkpt>
      <trkpt lat="45.17929" lon="5.91604">
        <ele>1547.2</ele>
        <time>2013-03-02T07:37:00Z</time>
      </trkpt>
      <trkpt lat="45.17913" lon="5.91607">
        <ele>1551.3</ele>
        <time>2013-03-02T07:37:23Z</time>
      </trkpt>
      <trkpt lat="45.17904" lon="5.9161">
        <ele>1552.3</ele>
        <time>2013-03-02T07:37:34Z</time>
      </trkpt>
      <trkpt lat="45.17896" lon="5.91612">
        <ele>1554.7</ele>
        <time>2013-03-02T07:37:46Z</time>
      </trkpt>
      <trkpt lat="45.17888" lon="5.91616">
        <ele>1557.2</ele>
        <time>2013-03-02T07:37:58Z</time>
      </trkpt>
      <trkpt lat="45.17879" lon="5.91619">
        <ele>1558.3</ele>
        <time>2013-03-02T07:38:10Z</time>
      </trkpt>
      <trkpt lat="45.17879" lon="5.91619">
        <ele>1558.4</ele>
        <time>2013-03-02T07:38:11Z</time>
      </trkpt>
      <trkpt lat="45.17879" lon="5.91633">
        <ele>1563.6</ele>
        <time>2013-03-02T07:38:53Z</time>
      </trkpt>
      <trkpt lat="45.17886" lon="5.91639">
        <ele>1565.8</ele>
        <time>2013-03-02T07:39:04Z</time>
      </trkpt>
      <trkpt lat="45.17893" lon="5.91646">
        <ele>1566.7</ele>
        <time>2013-03-02T07:39:16Z</time>
      </trkpt>
      <trkpt lat="45.17894" lon="5.91646">
        <ele>1567.1</ele>
        <time>2013-03-02T07:39:17Z</time>
      </trkpt>
      <trkpt lat="45.17906" lon="5.91661">
        <ele>1570.4</ele>
        <time>2013-03-02T07:39:36Z</time>
      </trkpt>
      <trkpt lat="45.17911" lon="5.91672">
        <ele>1572.4</ele>
        <time>2013-03-02T07:39:50Z</time>
      </trkpt>
      <trkpt lat="45.17904" lon="5.9168">
        <ele>1575.5</ele>
        <time>2013-03-02T07:40:34Z</time>
      </trkpt>
      <trkpt lat="45.17903" lon="5.9168">
        <ele>1575.7</ele>
        <time>2013-03-02T07:40:35Z</time>
      </trkpt>
      <trkpt lat="45.1789" lon="5.91694">
        <ele>1582.9</ele>
        <time>2013-03-02T07:41:11Z</time>
      </trkpt>
      <trkpt lat="45.17881" lon="5.91697">
        <ele>1585.7</ele>
        <time>2013-03-02T07:41:22Z</time>
      </trkpt>
      <trkpt lat="45.17874" lon="5.91704">
        <ele>1589.5</ele>
        <time>2013-03-02T07:41:39Z</time>
      </trkpt>
      <trkpt lat="45.17874" lon="5.91705">
        <ele>1589.5</ele>
        <time>2013-03-02T07:41:40Z</time>
      </trkpt>
      <trkpt lat="45.17858" lon="5.91715">
        <ele>1596</ele>
        <time>2013-03-02T07:42:10Z</time>
      </trkpt>
      <trkpt lat="45.1785" lon="5.9172">
        <ele>1599.8</ele>
        <time>2013-03-02T07:42:27Z</time>
      </trkpt>
      <trkpt lat="45.17846" lon="5.91731">
        <ele>1604.7</ele>
        <time>2013-03-02T07:42:49Z</time>
      </trkpt>
      <trkpt lat="45.17846" lon="5.91732">
        <ele>1604.5</ele>
        <time>2013-03-02T07:42:50Z</time>
      </trkpt>
      <trkpt lat="45.17835" lon="5.91748">
        <ele>1610.7</ele>
        <time>2013-03-02T07:43:30Z</time>
      </trkpt>
      <trkpt lat="45.17827" lon="5.91752">
        <ele>1613.4</ele>
        <time>2013-03-02T07:43:45Z</time>
      </trkpt>
      <trkpt lat="45.17826" lon="5.91765">
        <ele>1619.8</ele>
        <time>2013-03-02T07:44:12Z</time>
      </trkpt>
      <trkpt lat="45.17826" lon="5.91765">
        <ele>1620</ele>
        <time>2013-03-02T07:44:13Z</time>
      </trkpt>
      <trkpt lat="45.17813" lon="5.9178">
        <ele>1626.4</ele>
        <time>2013-03-02T07:44:59Z</time>
      </trkpt>
      <trkpt lat="45.17805" lon="5.91783">
        <ele>1628.4</ele>
        <time>2013-03-02T07:45:12Z</time>
      </trkpt>
      <trkpt lat="45.17796" lon="5.91785">
        <ele>1629.3</ele>
        <time>2013-03-02T07:45:26Z</time>
      </trkpt>
      <trkpt lat="45.17796" lon="5.91785">
        <ele>1629.7</ele>
        <time>2013-03-02T07:45:27Z</time>
      </trkpt>
      <trkpt lat="45.17783" lon="5.91797">
        <ele>1638</ele>
        <time>2013-03-02T07:46:19Z</time>
      </trkpt>
      <trkpt lat="45.17774" lon="5.918">
        <ele>1639.3</ele>
        <time>2013-03-02T07:46:30Z</time>
      </trkpt>
      <trkpt lat="45.17773" lon="5.918">
        <ele>1639.5</ele>
        <time>2013-03-02T07:46:31Z</time>
      </trkpt>
      <trkpt lat="45.17787" lon="5.91816">
        <ele>1645.2</ele>
        <time>2013-03-02T07:47:14Z</time>
      </trkpt>
      <trkpt lat="45.17793" lon="5.91824">
        <ele>1645.8</ele>
        <time>2013-03-02T07:47:26Z</time>
      </trkpt>
      <trkpt lat="45.17784" lon="5.91825">
        <ele>1649.4</ele>
        <time>2013-03-02T07:47:48Z</time>
      </trkpt>
      <trkpt lat="45.17784" lon="5.91825">
        <ele>1649.4</ele>
        <time>2013-03-02T07:47:49Z</time>
      </trkpt>
      <trkpt lat="45.17767" lon="5.91829">
        <ele>1652.1</ele>
        <time>2013-03-02T07:48:11Z</time>
      </trkpt>
      <trkpt lat="45.17767" lon="5.91841">
        <ele>1657.2</ele>
        <time>2013-03-02T07:48:41Z</time>
      </trkpt>
      <trkpt lat="45.17764" lon="5.91853">
        <ele>1660.4</ele>
        <time>2013-03-02T07:49:01Z</time>
      </trkpt>
      <trkpt lat="45.17765" lon="5.91854">
        <ele>1660.7</ele>
        <time>2013-03-02T07:49:02Z</time>
      </trkpt>
      <trkpt lat="45.17756" lon="5.91866">
        <ele>1665.4</ele>
        <time>2013-03-02T07:49:33Z</time>
      </trkpt>
      <trkpt lat="45.17747" lon="5.91867">
        <ele>1667.1</ele>
        <time>2013-03-02T07:49:46Z</time>
      </trkpt>
      <trkpt lat="45.17742" lon="5.91877">
        <ele>1670.3</ele>
        <time>2013-03-02T07:50:02Z</time>
      </trkpt>
      <trkpt lat="45.17742" lon="5.91878">
        <ele>1670.8</ele>
        <time>2013-03-02T07:50:03Z</time>
      </trkpt>
      <trkpt lat="45.17728" lon="5.9189">
        <ele>1675.1</ele>
        <time>2013-03-02T07:50:28Z</time>
      </trkpt>
      <trkpt lat="45.17719" lon="5.91892">
        <ele>1676.2</ele>
        <time>2013-03-02T07:50:40Z</time>
      </trkpt>
      <trkpt lat="45.17711" lon="5.91894">
        <ele>1678</ele>
        <time>2013-03-02T07:50:51Z</time>
      </trkpt>
      <trkpt lat="45.17711" lon="5.91906">
        <ele>1682.6</ele>
        <time>2013-03-02T07:51:18Z</time>
      </trkpt>
      <trkpt lat="45.17711" lon="5.91907">
        <ele>1683</ele>
        <time>2013-03-02T07:51:19Z</time>
      </trkpt>
      <trkpt lat="45.17712" lon="5.9193">
        <ele>1684.7</ele>
        <time>2013-03-02T07:51:43Z</time>
      </trkpt>
      <trkpt lat="45.1771" lon="5.91942">
        <ele>1686.2</ele>
        <time>2013-03-02T07:51:55Z</time>
      </trkpt>
      <trkpt lat="45.17709" lon="5.91954">
        <ele>1688.8</ele>
        <time>2013-03-02T07:52:05Z</time>
      </trkpt>
      <trkpt lat="45.17706" lon="5.91965">
        <ele>1689.1</ele>
        <time>2013-03-02T07:52:13Z</time>
      </trkpt>
      <trkpt lat="45.177" lon="5.91974">
        <ele>1689.8</ele>
        <time>2013-03-02T07:52:21Z</time>
      </trkpt>
      <trkpt lat="45.177" lon="5.91975">
        <ele>1690.1</ele>
        <time>2013-03-02T07:52:22Z</time>
      </trkpt>
      <trkpt lat="45.17687" lon="5.91986">
        <ele>1691.7</ele>
        <time>2013-03-02T07:52:38Z</time>
      </trkpt>
      <trkpt lat="45.1768" lon="5.91993">
        <ele>1693.2</ele>
        <time>2013-03-02T07:52:48Z</time>
      </trkpt>
      <trkpt lat="45.17676" lon="5.92004">
        <ele>1693</ele>
        <time>2013-03-02T07:52:59Z</time>
      </trkpt>
      <trkpt lat="45.17675" lon="5.92016">
        <ele>1694</ele>
        <time>2013-03-02T07:53:13Z</time>
      </trkpt>
      <trkpt lat="45.17671" lon="5.92028">
        <ele>1695.9</ele>
        <time>2013-03-02T07:53:26Z</time>
      </trkpt>
      <trkpt lat="45.17671" lon="5.92029">
        <ele>1695.9</ele>
        <time>2013-03-02T07:53:27Z</time>
      </trkpt>
      <trkpt lat="45.17665" lon="5.92049">
        <ele>1695.6</ele>
        <time>2013-03-02T07:53:43Z</time>
      </trkpt>
      <trkpt lat="45.17658" lon="5.92057">
        <ele>1696.1</ele>
        <time>2013-03-02T07:53:49Z</time>
      </trkpt>
      <trkpt lat="45.17652" lon="5.92064">
        <ele>1697</ele>
        <time>2013-03-02T07:53:59Z</time>
      </trkpt>
      <trkpt lat="45.17645" lon="5.9207">
        <ele>1697</ele>
        <time>2013-03-02T07:54:08Z</time>
      </trkpt>
      <trkpt lat="45.17637" lon="5.92075">
        <ele>1697.8</ele>
        <time>2013-03-02T07:54:16Z</time>
      </trkpt>
      <trkpt lat="45.1763" lon="5.92081">
        <ele>1698.4</ele>
        <time>2013-03-02T07:54:25Z</time>
      </trkpt>
      <trkpt lat="45.17623" lon="5.92087">
        <ele>1698.7</ele>
        <time>2013-03-02T07:54:34Z</time>
      </trkpt>
      <trkpt lat="45.17623" lon="5.92088">
        <ele>1698.8</ele>
        <time>2013-03-02T07:54:35Z</time>
      </trkpt>
      <trkpt lat="45.17616" lon="5.92109">
        <ele>1700.5</ele>
        <time>2013-03-02T07:54:54Z</time>
      </trkpt>
      <trkpt lat="45.17612" lon="5.9212">
        <ele>1701.1</ele>
        <time>2013-03-02T07:55:03Z</time>
      </trkpt>
      <trkpt lat="45.17607" lon="5.92129">
        <ele>1701.2</ele>
        <time>2013-03-02T07:55:11Z</time>
      </trkpt>
      <trkpt lat="45.17602" lon="5.92139">
        <ele>1701.3</ele>
        <time>2013-03-02T07:55:21Z</time>
      </trkpt>
      <trkpt lat="45.17596" lon="5.92147">
        <ele>1701.2</ele>
        <time>2013-03-02T07:55:29Z</time>
      </trkpt>
      <trkpt lat="45.1759" lon="5.92155">
        <ele>1701.8</ele>
        <time>2013-03-02T07:55:36Z</time>
      </trkpt>
      <trkpt lat="45.17589" lon="5.92156">
        <ele>1701.8</ele>
        <time>2013-03-02T07:55:37Z</time>
      </trkpt>
      <trkpt lat="45.1758" lon="5.92172">
        <ele>1702.3</ele>
        <time>2013-03-02T07:55:50Z</time>
      </trkpt>
      <trkpt lat="45.17574" lon="5.92181">
        <ele>1703.6</ele>
        <time>2013-03-02T07:55:59Z</time>
      </trkpt>
      <trkpt lat="45.17568" lon="5.9219">
        <ele>1703.7</ele>
        <time>2013-03-02T07:56:08Z</time>
      </trkpt>
      <trkpt lat="45.17563" lon="5.92199">
        <ele>1705</ele>
        <time>2013-03-02T07:56:17Z</time>
      </trkpt>
      <trkpt lat="45.17559" lon="5.92209">
        <ele>1705.3</ele>
        <time>2013-03-02T07:56:26Z</time>
      </trkpt>
      <trkpt lat="45.17553" lon="5.92217">
        <ele>1705.8</ele>
        <time>2013-03-02T07:56:34Z</time>
      </trkpt>
      <trkpt lat="45.17548" lon="5.92226">
        <ele>1706.9</ele>
        <time>2013-03-02T07:56:42Z</time>
      </trkpt>
      <trkpt lat="45.17547" lon="5.92227">
        <ele>1707.2</ele>
        <time>2013-03-02T07:56:43Z</time>
      </trkpt>
      <trkpt lat="45.17541" lon="5.92248">
        <ele>1707.2</ele>
        <time>2013-03-02T07:57:00Z</time>
      </trkpt>
      <trkpt lat="45.17537" lon="5.92259">
        <ele>1707.7</ele>
        <time>2013-03-02T07:57:08Z</time>
      </trkpt>
      <trkpt lat="45.17533" lon="5.92269">
        <ele>1708.9</ele>
        <time>2013-03-02T07:57:15Z</time>
      </trkpt>
      <trkpt lat="45.17529" lon="5.92279">
        <ele>1708.7</ele>
        <time>2013-03-02T07:57:22Z</time>
      </trkpt>
      <trkpt lat="45.17525" lon="5.92289">
        <ele>1708.3</ele>
        <time>2013-03-02T07:57:28Z</time>
      </trkpt>
      <trkpt lat="45.17524" lon="5.92301">
        <ele>1707.9</ele>
        <time>2013-03-02T07:57:39Z</time>
      </trkpt>
      <trkpt lat="45.17527" lon="5.92311">
        <ele>1709.2</ele>
        <time>2013-03-02T07:57:47Z</time>
      </trkpt>
      <trkpt lat="45.17528" lon="5.92313">
        <ele>1709.1</ele>
        <time>2013-03-02T07:57:48Z</time>
      </trkpt>
      <trkpt lat="45.17535" lon="5.92332">
        <ele>1708.5</ele>
        <time>2013-03-02T07:58:01Z</time>
      </trkpt>
      <trkpt lat="45.17539" lon="5.92342">
        <ele>1709</ele>
        <time>2013-03-02T07:58:09Z</time>
      </trkpt>
      <trkpt lat="45.1754" lon="5.92355">
        <ele>1708.6</ele>
        <time>2013-03-02T07:58:22Z</time>
      </trkpt>
      <trkpt lat="45.17536" lon="5.92366">
        <ele>1707.8</ele>
        <time>2013-03-02T07:58:29Z</time>
      </trkpt>
      <trkpt lat="45.17531" lon="5.92375">
        <ele>1708.8</ele>
        <time>2013-03-02T07:58:38Z</time>
      </trkpt>
      <trkpt lat="45.17524" lon="5.92382">
        <ele>1710.2</ele>
        <time>2013-03-02T07:58:47Z</time>
      </trkpt>
      <trkpt lat="45.17516" lon="5.92387">
        <ele>1709.5</ele>
        <time>2013-03-02T07:58:54Z</time>
      </trkpt>
      <trkpt lat="45.17516" lon="5.92387">
        <ele>1709.4</ele>
        <time>2013-03-02T07:58:55Z</time>
      </trkpt>
      <trkpt lat="45.17501" lon="5.92395">
        <ele>1712.2</ele>
        <time>2013-03-02T07:59:12Z</time>
      </trkpt>
      <trkpt lat="45.17493" lon="5.924">
        <ele>1712.5</ele>
        <time>2013-03-02T07:59:20Z</time>
      </trkpt>
      <trkpt lat="45.17487" lon="5.92409">
        <ele>1712.5</ele>
        <time>2013-03-02T07:59:28Z</time>
      </trkpt>
      <trkpt lat="45.17482" lon="5.92416">
        <ele>1713.8</ele>
        <time>2013-03-02T07:59:37Z</time>
      </trkpt>
      <trkpt lat="45.17473" lon="5.92416">
        <ele>1717.7</ele>
        <time>2013-03-02T07:59:58Z</time>
      </trkpt>
      <trkpt lat="45.17472" lon="5.92417">
        <ele>1718</ele>
        <time>2013-03-02T07:59:59Z</time>
      </trkpt>
      <trkpt lat="45.17461" lon="5.9243">
        <ele>1720.5</ele>
        <time>2013-03-02T08:00:27Z</time>
      </trkpt>
      <trkpt lat="45.17452" lon="5.9243">
        <ele>1720.4</ele>
        <time>2013-03-02T08:00:37Z</time>
      </trkpt>
      <trkpt lat="45.1746" lon="5.92437">
        <ele>1719.3</ele>
        <time>2013-03-02T08:00:59Z</time>
      </trkpt>
      <trkpt lat="45.17461" lon="5.92437">
        <ele>1719.3</ele>
        <time>2013-03-02T08:01:00Z</time>
      </trkpt>
      <trkpt lat="45.17461" lon="5.92446">
        <ele>1719.6</ele>
        <time>2013-03-02T08:01:37Z</time>
      </trkpt>
      <trkpt lat="45.17468" lon="5.9244">
        <ele>1719.2</ele>
        <time>2013-03-02T08:02:42Z</time>
      </trkpt>
      <trkpt lat="45.17469" lon="5.92439">
        <ele>1719.3</ele>
        <time>2013-03-02T08:02:43Z</time>
      </trkpt>
      <trkpt lat="45.17465" lon="5.92427">
        <ele>1719</ele>
        <time>2013-03-02T08:03:45Z</time>
      </trkpt>
      <trkpt lat="45.17465" lon="5.92426">
        <ele>1719.2</ele>
        <time>2013-03-02T08:05:06Z</time>
      </trkpt>
      <trkpt lat="45.17466" lon="5.92426">
        <ele>1719</ele>
        <time>2013-03-02T08:05:07Z</time>
      </trkpt>
      <trkpt lat="45.17481" lon="5.92429">
        <ele>1719.5</ele>
        <time>2013-03-02T08:05:18Z</time>
      </trkpt>
      <trkpt lat="45.17478" lon="5.9244">
        <ele>1720</ele>
        <time>2013-03-02T08:06:52Z</time>
      </trkpt>
      <trkpt lat="45.17478" lon="5.92441">
        <ele>1719.7</ele>
        <time>2013-03-02T08:06:53Z</time>
      </trkpt>
      <trkpt lat="45.17469" lon="5.92435">
        <ele>1719</ele>
        <time>2013-03-02T08:08:00Z</time>
      </trkpt>
      <trkpt lat="45.17462" lon="5.92428">
        <ele>1718.5</ele>
        <time>2013-03-02T08:09:14Z</time>
      </trkpt>
      <trkpt lat="45.17461" lon="5.9243">
        <ele>1719.4</ele>
        <time>2013-03-02T08:11:13Z</time>
      </trkpt>
      <trkpt lat="45.17461" lon="5.9243">
        <ele>1719</ele>
        <time>2013-03-02T08:11:14Z</time>
      </trkpt>
      <trkpt lat="45.1746" lon="5.92431">
        <ele>1719.4</ele>
        <time>2013-03-02T08:14:20Z</time>
      </trkpt>
      <trkpt lat="45.1746" lon="5.9243">
        <ele>1719.7</ele>
        <time>2013-03-02T08:14:21Z</time>
      </trkpt>
      <trkpt lat="45.17449" lon="5.92428">
        <ele>1718.8</ele>
        <time>2013-03-02T08:15:27Z</time>
      </trkpt>
      <trkpt lat="45.17449" lon="5.9243">
        <ele>1718.6</ele>
        <time>2013-03-02T08:15:28Z</time>
      </trkpt>
      <trkpt lat="45.17442" lon="5.9245">
        <ele>1719.9</ele>
        <time>2013-03-02T08:15:42Z</time>
      </trkpt>
      <trkpt lat="45.17437" lon="5.92459">
        <ele>1720.8</ele>
        <time>2013-03-02T08:15:50Z</time>
      </trkpt>
      <trkpt lat="45.17436" lon="5.9247">
        <ele>1721.9</ele>
        <time>2013-03-02T08:15:56Z</time>
      </trkpt>
      <trkpt lat="45.17437" lon="5.92482">
        <ele>1722.6</ele>
        <time>2013-03-02T08:16:03Z</time>
      </trkpt>
      <trkpt lat="45.17435" lon="5.92493">
        <ele>1723</ele>
        <time>2013-03-02T08:16:12Z</time>
      </trkpt>
      <trkpt lat="45.17431" lon="5.92503">
        <ele>1725.2</ele>
        <time>2013-03-02T08:16:20Z</time>
      </trkpt>
      <trkpt lat="45.17426" lon="5.92513">
        <ele>1727.2</ele>
        <time>2013-03-02T08:16:31Z</time>
      </trkpt>
      <trkpt lat="45.17426" lon="5.92514">
        <ele>1727.5</ele>
        <time>2013-03-02T08:16:32Z</time>
      </trkpt>
      <trkpt lat="45.17437" lon="5.9253">
        <ele>1731.4</ele>
        <time>2013-03-02T08:16:55Z</time>
      </trkpt>
      <trkpt lat="45.17444" lon="5.92536">
        <ele>1734.1</ele>
        <time>2013-03-02T08:17:03Z</time>
      </trkpt>
      <trkpt lat="45.17452" lon="5.92541">
        <ele>1735.1</ele>
        <time>2013-03-02T08:17:12Z</time>
      </trkpt>
      <trkpt lat="45.17458" lon="5.92551">
        <ele>1743.7</ele>
        <time>2013-03-02T08:18:02Z</time>
      </trkpt>
      <trkpt lat="45.17458" lon="5.92551">
        <ele>1744</ele>
        <time>2013-03-02T08:18:03Z</time>
      </trkpt>
      <trkpt lat="45.17449" lon="5.92572">
        <ele>1750.7</ele>
        <time>2013-03-02T08:18:51Z</time>
      </trkpt>
      <trkpt lat="45.17442" lon="5.92578">
        <ele>1753.4</ele>
        <time>2013-03-02T08:19:11Z</time>
      </trkpt>
      <trkpt lat="45.17441" lon="5.92577">
        <ele>1753.5</ele>
        <time>2013-03-02T08:19:12Z</time>
      </trkpt>
      <trkpt lat="45.17425" lon="5.92587">
        <ele>1759.2</ele>
        <time>2013-03-02T08:19:32Z</time>
      </trkpt>
      <trkpt lat="45.17419" lon="5.92595">
        <ele>1761.8</ele>
        <time>2013-03-02T08:19:45Z</time>
      </trkpt>
      <trkpt lat="45.17412" lon="5.92601">
        <ele>1765.8</ele>
        <time>2013-03-02T08:19:57Z</time>
      </trkpt>
      <trkpt lat="45.17406" lon="5.92611">
        <ele>1767</ele>
        <time>2013-03-02T08:20:10Z</time>
      </trkpt>
      <trkpt lat="45.17402" lon="5.92622">
        <ele>1769</ele>
        <time>2013-03-02T08:20:22Z</time>
      </trkpt>
      <trkpt lat="45.17402" lon="5.92622">
        <ele>1769</ele>
        <time>2013-03-02T08:20:23Z</time>
      </trkpt>
      <trkpt lat="45.17388" lon="5.92635">
        <ele>1774.9</ele>
        <time>2013-03-02T08:20:53Z</time>
      </trkpt>
      <trkpt lat="45.17392" lon="5.92645">
        <ele>1777.2</ele>
        <time>2013-03-02T08:21:09Z</time>
      </trkpt>
      <trkpt lat="45.17386" lon="5.92654">
        <ele>1780.4</ele>
        <time>2013-03-02T08:21:24Z</time>
      </trkpt>
      <trkpt lat="45.17385" lon="5.92654">
        <ele>1780.6</ele>
        <time>2013-03-02T08:21:25Z</time>
      </trkpt>
      <trkpt lat="45.17371" lon="5.92665">
        <ele>1783.3</ele>
        <time>2013-03-02T08:21:45Z</time>
      </trkpt>
      <trkpt lat="45.17364" lon="5.92671">
        <ele>1784.3</ele>
        <time>2013-03-02T08:21:55Z</time>
      </trkpt>
      <trkpt lat="45.17356" lon="5.92676">
        <ele>1787.1</ele>
        <time>2013-03-02T08:22:07Z</time>
      </trkpt>
      <trkpt lat="45.17353" lon="5.92687">
        <ele>1790.5</ele>
        <time>2013-03-02T08:22:20Z</time>
      </trkpt>
      <trkpt lat="45.17346" lon="5.92696">
        <ele>1790.2</ele>
        <time>2013-03-02T08:22:29Z</time>
      </trkpt>
      <trkpt lat="45.17345" lon="5.92696">
        <ele>1790.6</ele>
        <time>2013-03-02T08:22:30Z</time>
      </trkpt>
      <trkpt lat="45.17332" lon="5.9271">
        <ele>1792.8</ele>
        <time>2013-03-02T08:22:46Z</time>
      </trkpt>
      <trkpt lat="45.17327" lon="5.92719">
        <ele>1793.3</ele>
        <time>2013-03-02T08:22:57Z</time>
      </trkpt>
      <trkpt lat="45.17322" lon="5.92729">
        <ele>1796</ele>
        <time>2013-03-02T08:23:08Z</time>
      </trkpt>
      <trkpt lat="45.17318" lon="5.92741">
        <ele>1799.1</ele>
        <time>2013-03-02T08:23:21Z</time>
      </trkpt>
      <trkpt lat="45.17317" lon="5.92752">
        <ele>1800.7</ele>
        <time>2013-03-02T08:23:32Z</time>
      </trkpt>
      <trkpt lat="45.17317" lon="5.92753">
        <ele>1800.7</ele>
        <time>2013-03-02T08:23:33Z</time>
      </trkpt>
      <trkpt lat="45.17318" lon="5.92776">
        <ele>1803</ele>
        <time>2013-03-02T08:23:51Z</time>
      </trkpt>
      <trkpt lat="45.17319" lon="5.92788">
        <ele>1804.5</ele>
        <time>2013-03-02T08:24:00Z</time>
      </trkpt>
      <trkpt lat="45.1732" lon="5.928">
        <ele>1806.1</ele>
        <time>2013-03-02T08:24:09Z</time>
      </trkpt>
      <trkpt lat="45.17324" lon="5.92812">
        <ele>1807.8</ele>
        <time>2013-03-02T08:24:21Z</time>
      </trkpt>
      <trkpt lat="45.1733" lon="5.9282">
        <ele>1808.8</ele>
        <time>2013-03-02T08:24:32Z</time>
      </trkpt>
      <trkpt lat="45.17335" lon="5.9283">
        <ele>1811.5</ele>
        <time>2013-03-02T08:24:44Z</time>
      </trkpt>
      <trkpt lat="45.17336" lon="5.9283">
        <ele>1811.8</ele>
        <time>2013-03-02T08:24:45Z</time>
      </trkpt>
      <trkpt lat="45.17347" lon="5.92848">
        <ele>1814.8</ele>
        <time>2013-03-02T08:25:06Z</time>
      </trkpt>
      <trkpt lat="45.17352" lon="5.92858">
        <ele>1817.9</ele>
        <time>2013-03-02T08:25:25Z</time>
      </trkpt>
      <trkpt lat="45.17355" lon="5.9287">
        <ele>1820.3</ele>
        <time>2013-03-02T08:25:40Z</time>
      </trkpt>
      <trkpt lat="45.17354" lon="5.92882">
        <ele>1823.9</ele>
        <time>2013-03-02T08:25:57Z</time>
      </trkpt>
      <trkpt lat="45.17354" lon="5.92883">
        <ele>1824.2</ele>
        <time>2013-03-02T08:25:58Z</time>
      </trkpt>
      <trkpt lat="45.17363" lon="5.92903">
        <ele>1829</ele>
        <time>2013-03-02T08:26:24Z</time>
      </trkpt>
      <trkpt lat="45.17369" lon="5.92911">
        <ele>1829.4</ele>
        <time>2013-03-02T08:26:32Z</time>
      </trkpt>
      <trkpt lat="45.17377" lon="5.92918">
        <ele>1831.3</ele>
        <time>2013-03-02T08:26:44Z</time>
      </trkpt>
      <trkpt lat="45.17385" lon="5.92924">
        <ele>1833.9</ele>
        <time>2013-03-02T08:26:58Z</time>
      </trkpt>
      <trkpt lat="45.17385" lon="5.92925">
        <ele>1833.9</ele>
        <time>2013-03-02T08:26:59Z</time>
      </trkpt>
      <trkpt lat="45.17396" lon="5.9294">
        <ele>1837.1</ele>
        <time>2013-03-02T08:27:21Z</time>
      </trkpt>
      <trkpt lat="45.17401" lon="5.92951">
        <ele>1841.4</ele>
        <time>2013-03-02T08:27:38Z</time>
      </trkpt>
      <trkpt lat="45.17402" lon="5.92963">
        <ele>1844.1</ele>
        <time>2013-03-02T08:27:55Z</time>
      </trkpt>
      <trkpt lat="45.17402" lon="5.92976">
        <ele>1847</ele>
        <time>2013-03-02T08:28:13Z</time>
      </trkpt>
      <trkpt lat="45.17402" lon="5.92976">
        <ele>1847.3</ele>
        <time>2013-03-02T08:28:14Z</time>
      </trkpt>
      <trkpt lat="45.17415" lon="5.92992">
        <ele>1853.5</ele>
        <time>2013-03-02T08:28:42Z</time>
      </trkpt>
      <trkpt lat="45.17419" lon="5.93002">
        <ele>1856.1</ele>
        <time>2013-03-02T08:28:55Z</time>
      </trkpt>
      <trkpt lat="45.17421" lon="5.93014">
        <ele>1858.8</ele>
        <time>2013-03-02T08:29:13Z</time>
      </trkpt>
      <trkpt lat="45.17423" lon="5.93025">
        <ele>1860.5</ele>
        <time>2013-03-02T08:29:23Z</time>
      </trkpt>
      <trkpt lat="45.17423" lon="5.93027">
        <ele>1860.3</ele>
        <time>2013-03-02T08:29:24Z</time>
      </trkpt>
      <trkpt lat="45.17428" lon="5.93049">
        <ele>1863.4</ele>
        <time>2013-03-02T08:29:43Z</time>
      </trkpt>
      <trkpt lat="45.1743" lon="5.93061">
        <ele>1866.2</ele>
        <time>2013-03-02T08:30:00Z</time>
      </trkpt>
      <trkpt lat="45.17436" lon="5.93069">
        <ele>1869.2</ele>
        <time>2013-03-02T08:30:11Z</time>
      </trkpt>
      <trkpt lat="45.17442" lon="5.93079">
        <ele>1870.2</ele>
        <time>2013-03-02T08:30:23Z</time>
      </trkpt>
      <trkpt lat="45.17436" lon="5.93089">
        <ele>1872.4</ele>
        <time>2013-03-02T08:30:55Z</time>
      </trkpt>
      <trkpt lat="45.17436" lon="5.93089">
        <ele>1872.7</ele>
        <time>2013-03-02T08:30:56Z</time>
      </trkpt>
      <trkpt lat="45.17437" lon="5.93113">
        <ele>1876.2</ele>
        <time>2013-03-02T08:31:21Z</time>
      </trkpt>
      <trkpt lat="45.17436" lon="5.93126">
        <ele>1878.8</ele>
        <time>2013-03-02T08:31:32Z</time>
      </trkpt>
      <trkpt lat="45.17433" lon="5.93137">
        <ele>1880.6</ele>
        <time>2013-03-02T08:31:44Z</time>
      </trkpt>
      <trkpt lat="45.17426" lon="5.93144">
        <ele>1883.4</ele>
        <time>2013-03-02T08:31:58Z</time>
      </trkpt>
      <trkpt lat="45.17425" lon="5.93145">
        <ele>1883.6</ele>
        <time>2013-03-02T08:31:59Z</time>
      </trkpt>
      <trkpt lat="45.17421" lon="5.93168">
        <ele>1889</ele>
        <time>2013-03-02T08:32:31Z</time>
      </trkpt>
      <trkpt lat="45.17412" lon="5.9317">
        <ele>1893.3</ele>
        <time>2013-03-02T08:32:49Z</time>
      </trkpt>
      <trkpt lat="45.17415" lon="5.93181">
        <ele>1894.8</ele>
        <time>2013-03-02T08:32:59Z</time>
      </trkpt>
      <trkpt lat="45.17415" lon="5.93183">
        <ele>1895</ele>
        <time>2013-03-02T08:33:00Z</time>
      </trkpt>
      <trkpt lat="45.17409" lon="5.93205">
        <ele>1898.2</ele>
        <time>2013-03-02T08:33:21Z</time>
      </trkpt>
      <trkpt lat="45.17408" lon="5.93216">
        <ele>1898.9</ele>
        <time>2013-03-02T08:33:30Z</time>
      </trkpt>
      <trkpt lat="45.17404" lon="5.93227">
        <ele>1899.6</ele>
        <time>2013-03-02T08:33:40Z</time>
      </trkpt>
      <trkpt lat="45.174" lon="5.93238">
        <ele>1900.1</ele>
        <time>2013-03-02T08:33:51Z</time>
      </trkpt>
      <trkpt lat="45.17396" lon="5.93248">
        <ele>1900.9</ele>
        <time>2013-03-02T08:33:59Z</time>
      </trkpt>
      <trkpt lat="45.17393" lon="5.9326">
        <ele>1902.7</ele>
        <time>2013-03-02T08:34:08Z</time>
      </trkpt>
      <trkpt lat="45.17393" lon="5.93261">
        <ele>1902.4</ele>
        <time>2013-03-02T08:34:09Z</time>
      </trkpt>
      <trkpt lat="45.1739" lon="5.93283">
        <ele>1903.4</ele>
        <time>2013-03-02T08:34:24Z</time>
      </trkpt>
      <trkpt lat="45.17388" lon="5.93295">
        <ele>1904.9</ele>
        <time>2013-03-02T08:34:33Z</time>
      </trkpt>
      <trkpt lat="45.17385" lon="5.93305">
        <ele>1907.9</ele>
        <time>2013-03-02T08:34:43Z</time>
      </trkpt>
      <trkpt lat="45.1738" lon="5.93316">
        <ele>1907.9</ele>
        <time>2013-03-02T08:34:52Z</time>
      </trkpt>
      <trkpt lat="45.17379" lon="5.93328">
        <ele>1908.5</ele>
        <time>2013-03-02T08:35:01Z</time>
      </trkpt>
      <trkpt lat="45.17378" lon="5.9334">
        <ele>1909</ele>
        <time>2013-03-02T08:35:08Z</time>
      </trkpt>
      <trkpt lat="45.17377" lon="5.93352">
        <ele>1909</ele>
        <time>2013-03-02T08:35:16Z</time>
      </trkpt>
      <trkpt lat="45.17377" lon="5.93353">
        <ele>1909.3</ele>
        <time>2013-03-02T08:35:17Z</time>
      </trkpt>
      <trkpt lat="45.17374" lon="5.93374">
        <ele>1911.5</ele>
        <time>2013-03-02T08:35:30Z</time>
      </trkpt>
      <trkpt lat="45.17374" lon="5.93386">
        <ele>1911.3</ele>
        <time>2013-03-02T08:35:37Z</time>
      </trkpt>
      <trkpt lat="45.17374" lon="5.93399">
        <ele>1913</ele>
        <time>2013-03-02T08:35:46Z</time>
      </trkpt>
      <trkpt lat="45.17373" lon="5.9341">
        <ele>1913.7</ele>
        <time>2013-03-02T08:35:55Z</time>
      </trkpt>
      <trkpt lat="45.17369" lon="5.93421">
        <ele>1916.6</ele>
        <time>2013-03-02T08:36:07Z</time>
      </trkpt>
      <trkpt lat="45.17366" lon="5.93433">
        <ele>1918</ele>
        <time>2013-03-02T08:36:19Z</time>
      </trkpt>
      <trkpt lat="45.17366" lon="5.93434">
        <ele>1918</ele>
        <time>2013-03-02T08:36:20Z</time>
      </trkpt>
      <trkpt lat="45.17364" lon="5.93456">
        <ele>1925.2</ele>
        <time>2013-03-02T08:36:51Z</time>
      </trkpt>
      <trkpt lat="45.17365" lon="5.93468">
        <ele>1926</ele>
        <time>2013-03-02T08:37:02Z</time>
      </trkpt>
      <trkpt lat="45.17366" lon="5.9348">
        <ele>1928</ele>
        <time>2013-03-02T08:37:14Z</time>
      </trkpt>
      <trkpt lat="45.17367" lon="5.93493">
        <ele>1930.4</ele>
        <time>2013-03-02T08:37:27Z</time>
      </trkpt>
      <trkpt lat="45.17367" lon="5.93494">
        <ele>1930.7</ele>
        <time>2013-03-02T08:37:28Z</time>
      </trkpt>
      <trkpt lat="45.17366" lon="5.93517">
        <ele>1934.9</ele>
        <time>2013-03-02T08:37:52Z</time>
      </trkpt>
      <trkpt lat="45.17366" lon="5.93529">
        <ele>1935.2</ele>
        <time>2013-03-02T08:38:03Z</time>
      </trkpt>
      <trkpt lat="45.1737" lon="5.93539">
        <ele>1938.2</ele>
        <time>2013-03-02T08:38:16Z</time>
      </trkpt>
      <trkpt lat="45.17376" lon="5.93549">
        <ele>1941.3</ele>
        <time>2013-03-02T08:38:30Z</time>
      </trkpt>
      <trkpt lat="45.17376" lon="5.93551">
        <ele>1941.7</ele>
        <time>2013-03-02T08:38:31Z</time>
      </trkpt>
      <trkpt lat="45.17386" lon="5.93567">
        <ele>1943.9</ele>
        <time>2013-03-02T08:38:47Z</time>
      </trkpt>
      <trkpt lat="45.17393" lon="5.93576">
        <ele>1946.8</ele>
        <time>2013-03-02T08:38:59Z</time>
      </trkpt>
      <trkpt lat="45.17401" lon="5.9358">
        <ele>1948</ele>
        <time>2013-03-02T08:39:11Z</time>
      </trkpt>
      <trkpt lat="45.17398" lon="5.93592">
        <ele>1950.3</ele>
        <time>2013-03-02T08:39:30Z</time>
      </trkpt>
      <trkpt lat="45.17391" lon="5.936">
        <ele>1952.1</ele>
        <time>2013-03-02T08:39:42Z</time>
      </trkpt>
      <trkpt lat="45.17391" lon="5.936">
        <ele>1952.7</ele>
        <time>2013-03-02T08:39:43Z</time>
      </trkpt>
      <trkpt lat="45.17375" lon="5.93608">
        <ele>1957.7</ele>
        <time>2013-03-02T08:40:10Z</time>
      </trkpt>
      <trkpt lat="45.17366" lon="5.93611">
        <ele>1960.8</ele>
        <time>2013-03-02T08:40:24Z</time>
      </trkpt>
      <trkpt lat="45.17357" lon="5.9361">
        <ele>1964.1</ele>
        <time>2013-03-02T08:40:37Z</time>
      </trkpt>
      <trkpt lat="45.17349" lon="5.93607">
        <ele>1966.1</ele>
        <time>2013-03-02T08:40:51Z</time>
      </trkpt>
      <trkpt lat="45.17349" lon="5.93606">
        <ele>1966.3</ele>
        <time>2013-03-02T08:40:52Z</time>
      </trkpt>
      <trkpt lat="45.17333" lon="5.93597">
        <ele>1971.8</ele>
        <time>2013-03-02T08:41:22Z</time>
      </trkpt>
      <trkpt lat="45.17324" lon="5.936">
        <ele>1975.4</ele>
        <time>2013-03-02T08:41:40Z</time>
      </trkpt>
      <trkpt lat="45.17316" lon="5.93601">
        <ele>1978.3</ele>
        <time>2013-03-02T08:41:56Z</time>
      </trkpt>
      <trkpt lat="45.17315" lon="5.936">
        <ele>1978.1</ele>
        <time>2013-03-02T08:41:57Z</time>
      </trkpt>
      <trkpt lat="45.173" lon="5.93609">
        <ele>1982.5</ele>
        <time>2013-03-02T08:42:25Z</time>
      </trkpt>
      <trkpt lat="45.17292" lon="5.93614">
        <ele>1984.7</ele>
        <time>2013-03-02T08:42:39Z</time>
      </trkpt>
      <trkpt lat="45.17284" lon="5.93619">
        <ele>1987.2</ele>
        <time>2013-03-02T08:42:53Z</time>
      </trkpt>
      <trkpt lat="45.17275" lon="5.93616">
        <ele>1988.1</ele>
        <time>2013-03-02T08:43:27Z</time>
      </trkpt>
      <trkpt lat="45.17275" lon="5.93616">
        <ele>1988.1</ele>
        <time>2013-03-02T08:43:28Z</time>
      </trkpt>
      <trkpt lat="45.17269" lon="5.93625">
        <ele>1988.7</ele>
        <time>2013-03-02T08:44:51Z</time>
      </trkpt>
      <trkpt lat="45.17276" lon="5.93617">
        <ele>1987.4</ele>
        <time>2013-03-02T08:47:07Z</time>
      </trkpt>
      <trkpt lat="45.1728" lon="5.93614">
        <ele>1989.2</ele>
        <time>2013-03-02T08:52:19Z</time>
      </trkpt>
      <trkpt lat="45.1728" lon="5.93614">
        <ele>1988.9</ele>
        <time>2013-03-02T08:52:20Z</time>
      </trkpt>
      <trkpt lat="45.17274" lon="5.93623">
        <ele>1988.4</ele>
        <time>2013-03-02T08:53:48Z</time>
      </trkpt>
      <trkpt lat="45.1727" lon="5.93635">
        <ele>1987.8</ele>
        <time>2013-03-02T08:59:16Z</time>
      </trkpt>
      <trkpt lat="45.17254" lon="5.93644">
        <ele>1990</ele>
        <time>2013-03-02T08:59:37Z</time>
      </trkpt>
      <trkpt lat="45.17247" lon="5.93648">
        <ele>1990.7</ele>
        <time>2013-03-02T08:59:47Z</time>
      </trkpt>
      <trkpt lat="45.1724" lon="5.93655">
        <ele>1993.2</ele>
        <time>2013-03-02T09:00:00Z</time>
      </trkpt>
      <trkpt lat="45.17232" lon="5.93661">
        <ele>1994.9</ele>
        <time>2013-03-02T09:00:11Z</time>
      </trkpt>
      <trkpt lat="45.17225" lon="5.93667">
        <ele>1995.2</ele>
        <time>2013-03-02T09:00:23Z</time>
      </trkpt>
      <trkpt lat="45.17224" lon="5.93668">
        <ele>1995.5</ele>
        <time>2013-03-02T09:00:24Z</time>
      </trkpt>
      <trkpt lat="45.17209" lon="5.93676">
        <ele>1998.1</ele>
        <time>2013-03-02T09:00:46Z</time>
      </trkpt>
      <trkpt lat="45.172" lon="5.9368">
        <ele>2000.6</ele>
        <time>2013-03-02T09:00:58Z</time>
      </trkpt>
      <trkpt lat="45.17193" lon="5.93684">
        <ele>2002</ele>
        <time>2013-03-02T09:01:09Z</time>
      </trkpt>
      <trkpt lat="45.17184" lon="5.93688">
        <ele>2003.4</ele>
        <time>2013-03-02T09:01:21Z</time>
      </trkpt>
      <trkpt lat="45.17176" lon="5.93692">
        <ele>2004.8</ele>
        <time>2013-03-02T09:01:33Z</time>
      </trkpt>
      <trkpt lat="45.17175" lon="5.93692">
        <ele>2005.1</ele>
        <time>2013-03-02T09:01:34Z</time>
      </trkpt>
      <trkpt lat="45.1716" lon="5.93699">
        <ele>2007</ele>
        <time>2013-03-02T09:01:56Z</time>
      </trkpt>
      <trkpt lat="45.17151" lon="5.93701">
        <ele>2008.8</ele>
        <time>2013-03-02T09:02:10Z</time>
      </trkpt>
      <trkpt lat="45.17144" lon="5.93709">
        <ele>2011.4</ele>
        <time>2013-03-02T09:02:26Z</time>
      </trkpt>
      <trkpt lat="45.17139" lon="5.93719">
        <ele>2013.6</ele>
        <time>2013-03-02T09:02:42Z</time>
      </trkpt>
      <trkpt lat="45.17139" lon="5.9372">
        <ele>2013.8</ele>
        <time>2013-03-02T09:02:43Z</time>
      </trkpt>
      <trkpt lat="45.17131" lon="5.93741">
        <ele>2020.5</ele>
        <time>2013-03-02T09:03:20Z</time>
      </trkpt>
      <trkpt lat="45.17124" lon="5.93749">
        <ele>2022.8</ele>
        <time>2013-03-02T09:03:37Z</time>
      </trkpt>
      <trkpt lat="45.1713" lon="5.93758">
        <ele>2028.3</ele>
        <time>2013-03-02T09:04:10Z</time>
      </trkpt>
      <trkpt lat="45.17131" lon="5.93758">
        <ele>2028.6</ele>
        <time>2013-03-02T09:04:11Z</time>
      </trkpt>
      <trkpt lat="45.17147" lon="5.93764">
        <ele>2033.2</ele>
        <time>2013-03-02T09:04:38Z</time>
      </trkpt>
      <trkpt lat="45.17156" lon="5.93765">
        <ele>2035.7</ele>
        <time>2013-03-02T09:04:53Z</time>
      </trkpt>
      <trkpt lat="45.17165" lon="5.93765">
        <ele>2038.8</ele>
        <time>2013-03-02T09:05:11Z</time>
      </trkpt>
      <trkpt lat="45.17165" lon="5.93765">
        <ele>2038.6</ele>
        <time>2013-03-02T09:05:12Z</time>
      </trkpt>
      <trkpt lat="45.17182" lon="5.93761">
        <ele>2044.6</ele>
        <time>2013-03-02T09:05:45Z</time>
      </trkpt>
      <trkpt lat="45.17183" lon="5.93773">
        <ele>2048</ele>
        <time>2013-03-02T09:06:14Z</time>
      </trkpt>
      <trkpt lat="45.17182" lon="5.93773">
        <ele>2048.1</ele>
        <time>2013-03-02T09:06:15Z</time>
      </trkpt>
      <trkpt lat="45.17172" lon="5.93793">
        <ele>2052.9</ele>
        <time>2013-03-02T09:06:44Z</time>
      </trkpt>
      <trkpt lat="45.17166" lon="5.93801">
        <ele>2054</ele>
        <time>2013-03-02T09:07:01Z</time>
      </trkpt>
      <trkpt lat="45.17162" lon="5.93812">
        <ele>2059.3</ele>
        <time>2013-03-02T09:07:34Z</time>
      </trkpt>
      <trkpt lat="45.17162" lon="5.93813">
        <ele>2059.6</ele>
        <time>2013-03-02T09:07:35Z</time>
      </trkpt>
      <trkpt lat="45.17179" lon="5.93814">
        <ele>2065.2</ele>
        <time>2013-03-02T09:08:11Z</time>
      </trkpt>
      <trkpt lat="45.17187" lon="5.93808">
        <ele>2069</ele>
        <time>2013-03-02T09:08:26Z</time>
      </trkpt>
      <trkpt lat="45.17195" lon="5.93806">
        <ele>2069.4</ele>
        <time>2013-03-02T09:08:44Z</time>
      </trkpt>
      <trkpt lat="45.17196" lon="5.93806">
        <ele>2069.4</ele>
        <time>2013-03-02T09:08:45Z</time>
      </trkpt>
      <trkpt lat="45.17212" lon="5.93802">
        <ele>2073.1</ele>
        <time>2013-03-02T09:09:09Z</time>
      </trkpt>
      <trkpt lat="45.17221" lon="5.93799">
        <ele>2075.8</ele>
        <time>2013-03-02T09:09:22Z</time>
      </trkpt>
      <trkpt lat="45.17229" lon="5.93804">
        <ele>2079</ele>
        <time>2013-03-02T09:09:39Z</time>
      </trkpt>
      <trkpt lat="45.17232" lon="5.93815">
        <ele>2081.9</ele>
        <time>2013-03-02T09:09:52Z</time>
      </trkpt>
      <trkpt lat="45.17232" lon="5.93815">
        <ele>2082.1</ele>
        <time>2013-03-02T09:09:53Z</time>
      </trkpt>
      <trkpt lat="45.17244" lon="5.93832">
        <ele>2085.4</ele>
        <time>2013-03-02T09:10:19Z</time>
      </trkpt>
      <trkpt lat="45.1725" lon="5.93841">
        <ele>2087.7</ele>
        <time>2013-03-02T09:10:31Z</time>
      </trkpt>
      <trkpt lat="45.17255" lon="5.9385">
        <ele>2087.6</ele>
        <time>2013-03-02T09:10:42Z</time>
      </trkpt>
      <trkpt lat="45.1726" lon="5.93859">
        <ele>2088.8</ele>
        <time>2013-03-02T09:10:52Z</time>
      </trkpt>
      <trkpt lat="45.17266" lon="5.93868">
        <ele>2090.2</ele>
        <time>2013-03-02T09:11:02Z</time>
      </trkpt>
      <trkpt lat="45.17267" lon="5.93868">
        <ele>2090.3</ele>
        <time>2013-03-02T09:11:03Z</time>
      </trkpt>
      <trkpt lat="45.17278" lon="5.93886">
        <ele>2092.4</ele>
        <time>2013-03-02T09:11:52Z</time>
      </trkpt>
      <trkpt lat="45.17285" lon="5.93893">
        <ele>2093.9</ele>
        <time>2013-03-02T09:12:02Z</time>
      </trkpt>
      <trkpt lat="45.17291" lon="5.93901">
        <ele>2093.7</ele>
        <time>2013-03-02T09:12:11Z</time>
      </trkpt>
      <trkpt lat="45.17292" lon="5.93901">
        <ele>2093.7</ele>
        <time>2013-03-02T09:12:12Z</time>
      </trkpt>
      <trkpt lat="45.173" lon="5.9392">
        <ele>2095.9</ele>
        <time>2013-03-02T09:12:39Z</time>
      </trkpt>
      <trkpt lat="45.17306" lon="5.93929">
        <ele>2098.6</ele>
        <time>2013-03-02T09:12:51Z</time>
      </trkpt>
      <trkpt lat="45.17311" lon="5.93939">
        <ele>2099.7</ele>
        <time>2013-03-02T09:13:02Z</time>
      </trkpt>
      <trkpt lat="45.17317" lon="5.93948">
        <ele>2102</ele>
        <time>2013-03-02T09:13:15Z</time>
      </trkpt>
      <trkpt lat="45.17317" lon="5.93949">
        <ele>2102.3</ele>
        <time>2013-03-02T09:13:16Z</time>
      </trkpt>
      <trkpt lat="45.17331" lon="5.93962">
        <ele>2106.5</ele>
        <time>2013-03-02T09:13:40Z</time>
      </trkpt>
      <trkpt lat="45.17336" lon="5.93972">
        <ele>2108.7</ele>
        <time>2013-03-02T09:13:55Z</time>
      </trkpt>
      <trkpt lat="45.17341" lon="5.93982">
        <ele>2112.1</ele>
        <time>2013-03-02T09:14:11Z</time>
      </trkpt>
      <trkpt lat="45.17345" lon="5.93993">
        <ele>2115.4</ele>
        <time>2013-03-02T09:14:28Z</time>
      </trkpt>
      <trkpt lat="45.17346" lon="5.93994">
        <ele>2115.7</ele>
        <time>2013-03-02T09:14:29Z</time>
      </trkpt>
      <trkpt lat="45.17352" lon="5.94016">
        <ele>2122.5</ele>
        <time>2013-03-02T09:15:04Z</time>
      </trkpt>
      <trkpt lat="45.17353" lon="5.94028">
        <ele>2125.4</ele>
        <time>2013-03-02T09:15:20Z</time>
      </trkpt>
      <trkpt lat="45.17352" lon="5.94041">
        <ele>2127.3</ele>
        <time>2013-03-02T09:15:35Z</time>
      </trkpt>
      <trkpt lat="45.17352" lon="5.94042">
        <ele>2127.5</ele>
        <time>2013-03-02T09:15:36Z</time>
      </trkpt>
      <trkpt lat="45.17364" lon="5.94055">
        <ele>2134.9</ele>
        <time>2013-03-02T09:16:14Z</time>
      </trkpt>
      <trkpt lat="45.17369" lon="5.94065">
        <ele>2137.7</ele>
        <time>2013-03-02T09:16:35Z</time>
      </trkpt>
      <trkpt lat="45.17368" lon="5.94077">
        <ele>2140.3</ele>
        <time>2013-03-02T09:16:49Z</time>
      </trkpt>
      <trkpt lat="45.17367" lon="5.94078">
        <ele>2140.6</ele>
        <time>2013-03-02T09:16:50Z</time>
      </trkpt>
      <trkpt lat="45.17371" lon="5.94102">
        <ele>2147</ele>
        <time>2013-03-02T09:17:27Z</time>
      </trkpt>
      <trkpt lat="45.17371" lon="5.94113">
        <ele>2149.3</ele>
        <time>2013-03-02T09:17:40Z</time>
      </trkpt>
      <trkpt lat="45.17373" lon="5.94126">
        <ele>2151</ele>
        <time>2013-03-02T09:17:52Z</time>
      </trkpt>
      <trkpt lat="45.17373" lon="5.94126">
        <ele>2151.3</ele>
        <time>2013-03-02T09:17:53Z</time>
      </trkpt>
      <trkpt lat="45.17379" lon="5.94149">
        <ele>2154</ele>
        <time>2013-03-02T09:18:17Z</time>
      </trkpt>
      <trkpt lat="45.17381" lon="5.9416">
        <ele>2155.7</ele>
        <time>2013-03-02T09:18:30Z</time>
      </trkpt>
      <trkpt lat="45.17385" lon="5.94171">
        <ele>2158.5</ele>
        <time>2013-03-02T09:18:43Z</time>
      </trkpt>
      <trkpt lat="45.1738" lon="5.94182">
        <ele>2161.8</ele>
        <time>2013-03-02T09:18:59Z</time>
      </trkpt>
      <trkpt lat="45.1738" lon="5.94182">
        <ele>2161.9</ele>
        <time>2013-03-02T09:19:00Z</time>
      </trkpt>
      <trkpt lat="45.17375" lon="5.94205">
        <ele>2166.4</ele>
        <time>2013-03-02T09:19:50Z</time>
      </trkpt>
      <trkpt lat="45.17371" lon="5.94217">
        <ele>2170.4</ele>
        <time>2013-03-02T09:20:08Z</time>
      </trkpt>
      <trkpt lat="45.17371" lon="5.94217">
        <ele>2170.5</ele>
        <time>2013-03-02T09:20:09Z</time>
      </trkpt>
      <trkpt lat="45.17362" lon="5.94237">
        <ele>2177.3</ele>
        <time>2013-03-02T09:20:40Z</time>
      </trkpt>
      <trkpt lat="45.17361" lon="5.9425">
        <ele>2180.2</ele>
        <time>2013-03-02T09:20:55Z</time>
      </trkpt>
      <trkpt lat="45.1736" lon="5.94262">
        <ele>2182.6</ele>
        <time>2013-03-02T09:21:08Z</time>
      </trkpt>
      <trkpt lat="45.17364" lon="5.94273">
        <ele>2184.8</ele>
        <time>2013-03-02T09:21:20Z</time>
      </trkpt>
      <trkpt lat="45.17364" lon="5.94274">
        <ele>2185</ele>
        <time>2013-03-02T09:21:21Z</time>
      </trkpt>
      <trkpt lat="45.17375" lon="5.94293">
        <ele>2189.9</ele>
        <time>2013-03-02T09:21:50Z</time>
      </trkpt>
      <trkpt lat="45.17375" lon="5.94305">
        <ele>2195.6</ele>
        <time>2013-03-02T09:22:24Z</time>
      </trkpt>
      <trkpt lat="45.17375" lon="5.94305">
        <ele>2195.5</ele>
        <time>2013-03-02T09:22:25Z</time>
      </trkpt>
      <trkpt lat="45.17359" lon="5.94318">
        <ele>2198.3</ele>
        <time>2013-03-02T09:22:51Z</time>
      </trkpt>
      <trkpt lat="45.17351" lon="5.94323">
        <ele>2201.2</ele>
        <time>2013-03-02T09:23:03Z</time>
      </trkpt>
      <trkpt lat="45.17344" lon="5.9433">
        <ele>2203.5</ele>
        <time>2013-03-02T09:23:18Z</time>
      </trkpt>
      <trkpt lat="45.1734" lon="5.94341">
        <ele>2206.3</ele>
        <time>2013-03-02T09:23:31Z</time>
      </trkpt>
      <trkpt lat="45.1734" lon="5.94342">
        <ele>2206.2</ele>
        <time>2013-03-02T09:23:32Z</time>
      </trkpt>
      <trkpt lat="45.17334" lon="5.94364">
        <ele>2211.7</ele>
        <time>2013-03-02T09:24:03Z</time>
      </trkpt>
      <trkpt lat="45.17332" lon="5.94376">
        <ele>2214.5</ele>
        <time>2013-03-02T09:24:20Z</time>
      </trkpt>
      <trkpt lat="45.1733" lon="5.94388">
        <ele>2217</ele>
        <time>2013-03-02T09:24:32Z</time>
      </trkpt>
      <trkpt lat="45.1733" lon="5.94389">
        <ele>2217</ele>
        <time>2013-03-02T09:24:33Z</time>
      </trkpt>
      <trkpt lat="45.17329" lon="5.94413">
        <ele>2221.6</ele>
        <time>2013-03-02T09:25:02Z</time>
      </trkpt>
      <trkpt lat="45.17326" lon="5.94425">
        <ele>2223.2</ele>
        <time>2013-03-02T09:25:17Z</time>
      </trkpt>
      <trkpt lat="45.17321" lon="5.94434">
        <ele>2225.3</ele>
        <time>2013-03-02T09:25:29Z</time>
      </trkpt>
      <trkpt lat="45.17315" lon="5.94443">
        <ele>2228.4</ele>
        <time>2013-03-02T09:25:44Z</time>
      </trkpt>
      <trkpt lat="45.17315" lon="5.94443">
        <ele>2228.7</ele>
        <time>2013-03-02T09:25:45Z</time>
      </trkpt>
      <trkpt lat="45.17301" lon="5.94453">
        <ele>2235.7</ele>
        <time>2013-03-02T09:26:29Z</time>
      </trkpt>
      <trkpt lat="45.17293" lon="5.94459">
        <ele>2238.7</ele>
        <time>2013-03-02T09:26:50Z</time>
      </trkpt>
      <trkpt lat="45.17292" lon="5.9446">
        <ele>2239</ele>
        <time>2013-03-02T09:26:51Z</time>
      </trkpt>
      <trkpt lat="45.17294" lon="5.94484">
        <ele>2242.9</ele>
        <time>2013-03-02T09:27:19Z</time>
      </trkpt>
      <trkpt lat="45.17285" lon="5.94485">
        <ele>2246.4</ele>
        <time>2013-03-02T09:27:53Z</time>
      </trkpt>
      <trkpt lat="45.17285" lon="5.94485">
        <ele>2246.8</ele>
        <time>2013-03-02T09:27:54Z</time>
      </trkpt>
      <trkpt lat="45.17274" lon="5.94467">
        <ele>2249.9</ele>
        <time>2013-03-02T09:28:14Z</time>
      </trkpt>
      <trkpt lat="45.17269" lon="5.94457">
        <ele>2251.3</ele>
        <time>2013-03-02T09:28:24Z</time>
      </trkpt>
      <trkpt lat="45.17263" lon="5.94447">
        <ele>2253</ele>
        <time>2013-03-02T09:28:36Z</time>
      </trkpt>
      <trkpt lat="45.17256" lon="5.9444">
        <ele>2255.6</ele>
        <time>2013-03-02T09:28:50Z</time>
      </trkpt>
      <trkpt lat="45.17248" lon="5.94437">
        <ele>2257.6</ele>
        <time>2013-03-02T09:29:03Z</time>
      </trkpt>
      <trkpt lat="45.17247" lon="5.94437">
        <ele>2257.6</ele>
        <time>2013-03-02T09:29:04Z</time>
      </trkpt>
      <trkpt lat="45.17239" lon="5.94432">
        <ele>2259</ele>
        <time>2013-03-02T09:31:57Z</time>
      </trkpt>
      <trkpt lat="45.17247" lon="5.94441">
        <ele>2260.3</ele>
        <time>2013-03-02T09:33:24Z</time>
      </trkpt>
      <trkpt lat="45.17251" lon="5.94463">
        <ele>2261.8</ele>
        <time>2013-03-02T09:33:43Z</time>
      </trkpt>
      <trkpt lat="45.17253" lon="5.94475">
        <ele>2263.8</ele>
        <time>2013-03-02T09:34:07Z</time>
      </trkpt>
      <trkpt lat="45.17255" lon="5.94487">
        <ele>2265.7</ele>
        <time>2013-03-02T09:34:21Z</time>
      </trkpt>
      <trkpt lat="45.17257" lon="5.945">
        <ele>2268.3</ele>
        <time>2013-03-02T09:34:33Z</time>
      </trkpt>
      <trkpt lat="45.17257" lon="5.94501">
        <ele>2268.4</ele>
        <time>2013-03-02T09:34:34Z</time>
      </trkpt>
      <trkpt lat="45.17259" lon="5.94524">
        <ele>2269.5</ele>
        <time>2013-03-02T09:34:55Z</time>
      </trkpt>
      <trkpt lat="45.17261" lon="5.94535">
        <ele>2271.9</ele>
        <time>2013-03-02T09:35:05Z</time>
      </trkpt>
      <trkpt lat="45.17263" lon="5.94547">
        <ele>2273.8</ele>
        <time>2013-03-02T09:35:15Z</time>
      </trkpt>
      <trkpt lat="45.17263" lon="5.94559">
        <ele>2275</ele>
        <time>2013-03-02T09:35:26Z</time>
      </trkpt>
      <trkpt lat="45.17262" lon="5.94572">
        <ele>2278.4</ele>
        <time>2013-03-02T09:35:42Z</time>
      </trkpt>
      <trkpt lat="45.17262" lon="5.94572">
        <ele>2278.8</ele>
        <time>2013-03-02T09:35:43Z</time>
      </trkpt>
      <trkpt lat="45.17267" lon="5.94595">
        <ele>2283.8</ele>
        <time>2013-03-02T09:36:11Z</time>
      </trkpt>
      <trkpt lat="45.17272" lon="5.94605">
        <ele>2285.9</ele>
        <time>2013-03-02T09:36:25Z</time>
      </trkpt>
      <trkpt lat="45.17278" lon="5.94614">
        <ele>2288.1</ele>
        <time>2013-03-02T09:36:40Z</time>
      </trkpt>
      <trkpt lat="45.17284" lon="5.94624">
        <ele>2292.5</ele>
        <time>2013-03-02T09:37:00Z</time>
      </trkpt>
      <trkpt lat="45.17283" lon="5.94624">
        <ele>2292.6</ele>
        <time>2013-03-02T09:37:01Z</time>
      </trkpt>
      <trkpt lat="45.17296" lon="5.94637">
        <ele>2298.2</ele>
        <time>2013-03-02T09:37:35Z</time>
      </trkpt>
      <trkpt lat="45.17294" lon="5.9465">
        <ele>2300.7</ele>
        <time>2013-03-02T09:37:53Z</time>
      </trkpt>
      <trkpt lat="45.17289" lon="5.94659">
        <ele>2305.4</ele>
        <time>2013-03-02T09:38:03Z</time>
      </trkpt>
      <trkpt lat="45.17288" lon="5.9466">
        <ele>2304.9</ele>
        <time>2013-03-02T09:38:04Z</time>
      </trkpt>
      <trkpt lat="45.17299" lon="5.94676">
        <ele>2308.7</ele>
        <time>2013-03-02T09:38:32Z</time>
      </trkpt>
      <trkpt lat="45.17308" lon="5.94678">
        <ele>2310.3</ele>
        <time>2013-03-02T09:38:43Z</time>
      </trkpt>
      <trkpt lat="45.17308" lon="5.9469">
        <ele>2315</ele>
        <time>2013-03-02T09:39:03Z</time>
      </trkpt>
      <trkpt lat="45.17303" lon="5.947">
        <ele>2317</ele>
        <time>2013-03-02T09:39:17Z</time>
      </trkpt>
      <trkpt lat="45.17303" lon="5.94701">
        <ele>2317.5</ele>
        <time>2013-03-02T09:39:18Z</time>
      </trkpt>
      <trkpt lat="45.17305" lon="5.94714">
        <ele>2321.6</ele>
        <time>2013-03-02T09:39:56Z</time>
      </trkpt>
      <trkpt lat="45.17313" lon="5.94714">
        <ele>2324.1</ele>
        <time>2013-03-02T09:40:07Z</time>
      </trkpt>
      <trkpt lat="45.17322" lon="5.94712">
        <ele>2326</ele>
        <time>2013-03-02T09:40:17Z</time>
      </trkpt>
      <trkpt lat="45.1733" lon="5.94711">
        <ele>2327.4</ele>
        <time>2013-03-02T09:40:26Z</time>
      </trkpt>
      <trkpt lat="45.17331" lon="5.94711">
        <ele>2327.7</ele>
        <time>2013-03-02T09:40:27Z</time>
      </trkpt>
      <trkpt lat="45.17323" lon="5.9473">
        <ele>2331.8</ele>
        <time>2013-03-02T09:41:02Z</time>
      </trkpt>
      <trkpt lat="45.17332" lon="5.94729">
        <ele>2335.8</ele>
        <time>2013-03-02T09:41:32Z</time>
      </trkpt>
      <trkpt lat="45.17333" lon="5.94729">
        <ele>2336.2</ele>
        <time>2013-03-02T09:41:33Z</time>
      </trkpt>
      <trkpt lat="45.17349" lon="5.94725">
        <ele>2339.2</ele>
        <time>2013-03-02T09:41:52Z</time>
      </trkpt>
      <trkpt lat="45.17354" lon="5.94735">
        <ele>2341.9</ele>
        <time>2013-03-02T09:42:30Z</time>
      </trkpt>
      <trkpt lat="45.17351" lon="5.94746">
        <ele>2344.4</ele>
        <time>2013-03-02T09:42:41Z</time>
      </trkpt>
      <trkpt lat="45.1735" lon="5.94747">
        <ele>2344.6</ele>
        <time>2013-03-02T09:42:42Z</time>
      </trkpt>
      <trkpt lat="45.17338" lon="5.94759">
        <ele>2347.6</ele>
        <time>2013-03-02T09:42:55Z</time>
      </trkpt>
      <trkpt lat="45.17331" lon="5.94765">
        <ele>2350.9</ele>
        <time>2013-03-02T09:43:08Z</time>
      </trkpt>
      <trkpt lat="45.17339" lon="5.94769">
        <ele>2352.3</ele>
        <time>2013-03-02T09:43:30Z</time>
      </trkpt>
      <trkpt lat="45.17347" lon="5.94768">
        <ele>2353.9</ele>
        <time>2013-03-02T09:43:40Z</time>
      </trkpt>
      <trkpt lat="45.17356" lon="5.94769">
        <ele>2356</ele>
        <time>2013-03-02T09:43:49Z</time>
      </trkpt>
      <trkpt lat="45.17357" lon="5.94769">
        <ele>2356.3</ele>
        <time>2013-03-02T09:43:50Z</time>
      </trkpt>
      <trkpt lat="45.17373" lon="5.94767">
        <ele>2359.9</ele>
        <time>2013-03-02T09:44:10Z</time>
      </trkpt>
      <trkpt lat="45.1738" lon="5.9476">
        <ele>2362.8</ele>
        <time>2013-03-02T09:44:22Z</time>
      </trkpt>
      <trkpt lat="45.17385" lon="5.9475">
        <ele>2365</ele>
        <time>2013-03-02T09:44:35Z</time>
      </trkpt>
      <trkpt lat="45.1739" lon="5.9474">
        <ele>2368</ele>
        <time>2013-03-02T09:44:49Z</time>
      </trkpt>
      <trkpt lat="45.17397" lon="5.94733">
        <ele>2370.3</ele>
        <time>2013-03-02T09:45:13Z</time>
      </trkpt>
      <trkpt lat="45.17397" lon="5.94732">
        <ele>2370.2</ele>
        <time>2013-03-02T09:45:14Z</time>
      </trkpt>
      <trkpt lat="45.17406" lon="5.94746">
        <ele>2379.5</ele>
        <time>2013-03-02T09:46:18Z</time>
      </trkpt>
      <trkpt lat="45.17407" lon="5.94745">
        <ele>2379.5</ele>
        <time>2013-03-02T09:46:19Z</time>
      </trkpt>
      <trkpt lat="45.17419" lon="5.94762">
        <ele>2385.5</ele>
        <time>2013-03-02T09:47:15Z</time>
      </trkpt>
      <trkpt lat="45.17423" lon="5.94773">
        <ele>2387.5</ele>
        <time>2013-03-02T09:48:00Z</time>
      </trkpt>
      <trkpt lat="45.17423" lon="5.94773">
        <ele>2387.4</ele>
        <time>2013-03-02T09:48:01Z</time>
      </trkpt>
      <trkpt lat="45.17423" lon="5.94769">
        <ele>2390.1</ele>
        <time>2013-03-02T09:49:11Z</time>
      </trkpt>
      <trkpt lat="45.17423" lon="5.94769">
        <ele>2390.4</ele>
        <time>2013-03-02T09:49:12Z</time>
      </trkpt>
      <trkpt lat="45.17414" lon="5.94769">
        <ele>2387</ele>
        <time>2013-03-02T09:58:41Z</time>
      </trkpt>
      <trkpt lat="45.174" lon="5.94782">
        <ele>2381.6</ele>
        <time>2013-03-02T09:59:35Z</time>
      </trkpt>
      <trkpt lat="45.17409" lon="5.94784">
        <ele>2381.9</ele>
        <time>2013-03-02T10:00:29Z</time>
      </trkpt>
      <trkpt lat="45.17409" lon="5.94784">
        <ele>2381.8</ele>
        <time>2013-03-02T10:00:30Z</time>
      </trkpt>
      <trkpt lat="45.174" lon="5.94784">
        <ele>2381.1</ele>
        <time>2013-03-02T10:01:59Z</time>
      </trkpt>
      <trkpt lat="45.17384" lon="5.94791">
        <ele>2382.7</ele>
        <time>2013-03-02T10:03:26Z</time>
      </trkpt>
      <trkpt lat="45.17383" lon="5.94791">
        <ele>2382.7</ele>
        <time>2013-03-02T10:03:27Z</time>
      </trkpt>
      <trkpt lat="45.174" lon="5.94782">
        <ele>2381.5</ele>
        <time>2013-03-02T10:04:18Z</time>
      </trkpt>
      <trkpt lat="45.17393" lon="5.94789">
        <ele>2381.7</ele>
        <time>2013-03-02T10:05:09Z</time>
      </trkpt>
      <trkpt lat="45.17393" lon="5.9479">
        <ele>2381.2</ele>
        <time>2013-03-02T10:05:10Z</time>
      </trkpt>
      <trkpt lat="45.17386" lon="5.9481">
        <ele>2373.4</ele>
        <time>2013-03-02T10:05:31Z</time>
      </trkpt>
      <trkpt lat="45.17383" lon="5.94822">
        <ele>2371.1</ele>
        <time>2013-03-02T10:05:37Z</time>
      </trkpt>
      <trkpt lat="45.17384" lon="5.94833">
        <ele>2367.3</ele>
        <time>2013-03-02T10:05:42Z</time>
      </trkpt>
      <trkpt lat="45.17385" lon="5.94843">
        <ele>2365.4</ele>
        <time>2013-03-02T10:05:45Z</time>
      </trkpt>
      <trkpt lat="45.17385" lon="5.94855">
        <ele>2363.1</ele>
        <time>2013-03-02T10:05:49Z</time>
      </trkpt>
      <trkpt lat="45.17387" lon="5.94866">
        <ele>2361.2</ele>
        <time>2013-03-02T10:05:52Z</time>
      </trkpt>
      <trkpt lat="45.17388" lon="5.94877">
        <ele>2358.8</ele>
        <time>2013-03-02T10:05:56Z</time>
      </trkpt>
      <trkpt lat="45.17389" lon="5.94888">
        <ele>2355.8</ele>
        <time>2013-03-02T10:06:01Z</time>
      </trkpt>
      <trkpt lat="45.17392" lon="5.949">
        <ele>2354</ele>
        <time>2013-03-02T10:06:05Z</time>
      </trkpt>
      <trkpt lat="45.17395" lon="5.94912">
        <ele>2351.8</ele>
        <time>2013-03-02T10:06:09Z</time>
      </trkpt>
      <trkpt lat="45.17398" lon="5.94922">
        <ele>2350.4</ele>
        <time>2013-03-02T10:06:12Z</time>
      </trkpt>
      <trkpt lat="45.17399" lon="5.94927">
        <ele>2350.1</ele>
        <time>2013-03-02T10:06:13Z</time>
      </trkpt>
      <trkpt lat="45.17404" lon="5.94945">
        <ele>2344.5</ele>
        <time>2013-03-02T10:06:21Z</time>
      </trkpt>
      <trkpt lat="45.17409" lon="5.94954">
        <ele>2342.5</ele>
        <time>2013-03-02T10:06:27Z</time>
      </trkpt>
      <trkpt lat="45.17414" lon="5.94963">
        <ele>2341.2</ele>
        <time>2013-03-02T10:06:30Z</time>
      </trkpt>
      <trkpt lat="45.17417" lon="5.9497">
        <ele>2340.7</ele>
        <time>2013-03-02T10:06:32Z</time>
      </trkpt>
      <trkpt lat="45.17419" lon="5.94981">
        <ele>2338.4</ele>
        <time>2013-03-02T10:06:35Z</time>
      </trkpt>
      <trkpt lat="45.17424" lon="5.94991">
        <ele>2334.9</ele>
        <time>2013-03-02T10:06:43Z</time>
      </trkpt>
      <trkpt lat="45.17428" lon="5.95001">
        <ele>2332.7</ele>
        <time>2013-03-02T10:06:47Z</time>
      </trkpt>
      <trkpt lat="45.17429" lon="5.95011">
        <ele>2330.3</ele>
        <time>2013-03-02T10:06:51Z</time>
      </trkpt>
      <trkpt lat="45.17429" lon="5.95019">
        <ele>2329.6</ele>
        <time>2013-03-02T10:06:53Z</time>
      </trkpt>
      <trkpt lat="45.17429" lon="5.9503">
        <ele>2327.5</ele>
        <time>2013-03-02T10:06:55Z</time>
      </trkpt>
      <trkpt lat="45.17429" lon="5.95042">
        <ele>2324.4</ele>
        <time>2013-03-02T10:07:00Z</time>
      </trkpt>
      <trkpt lat="45.17428" lon="5.95054">
        <ele>2322.1</ele>
        <time>2013-03-02T10:07:11Z</time>
      </trkpt>
      <trkpt lat="45.17428" lon="5.95065">
        <ele>2321.2</ele>
        <time>2013-03-02T10:07:18Z</time>
      </trkpt>
      <trkpt lat="45.17428" lon="5.95067">
        <ele>2321.3</ele>
        <time>2013-03-02T10:07:19Z</time>
      </trkpt>
      <trkpt lat="45.17434" lon="5.95089">
        <ele>2319.8</ele>
        <time>2013-03-02T10:07:39Z</time>
      </trkpt>
      <trkpt lat="45.17437" lon="5.951">
        <ele>2320</ele>
        <time>2013-03-02T10:07:47Z</time>
      </trkpt>
      <trkpt lat="45.17442" lon="5.95111">
        <ele>2319.3</ele>
        <time>2013-03-02T10:07:57Z</time>
      </trkpt>
      <trkpt lat="45.17447" lon="5.95121">
        <ele>2318.1</ele>
        <time>2013-03-02T10:08:05Z</time>
      </trkpt>
      <trkpt lat="45.17452" lon="5.9513">
        <ele>2316.8</ele>
        <time>2013-03-02T10:08:14Z</time>
      </trkpt>
      <trkpt lat="45.17457" lon="5.9514">
        <ele>2316.9</ele>
        <time>2013-03-02T10:08:23Z</time>
      </trkpt>
      <trkpt lat="45.17458" lon="5.95141">
        <ele>2316.8</ele>
        <time>2013-03-02T10:08:24Z</time>
      </trkpt>
      <trkpt lat="45.17463" lon="5.9516">
        <ele>2314.9</ele>
        <time>2013-03-02T10:08:35Z</time>
      </trkpt>
      <trkpt lat="45.17464" lon="5.95168">
        <ele>2314.7</ele>
        <time>2013-03-02T10:08:37Z</time>
      </trkpt>
      <trkpt lat="45.17465" lon="5.95178">
        <ele>2312.3</ele>
        <time>2013-03-02T10:08:39Z</time>
      </trkpt>
      <trkpt lat="45.17465" lon="5.95188">
        <ele>2310.7</ele>
        <time>2013-03-02T10:08:41Z</time>
      </trkpt>
      <trkpt lat="45.17461" lon="5.95196">
        <ele>2309.6</ele>
        <time>2013-03-02T10:08:44Z</time>
      </trkpt>
      <trkpt lat="45.17457" lon="5.95208">
        <ele>2307.8</ele>
        <time>2013-03-02T10:08:49Z</time>
      </trkpt>
      <trkpt lat="45.17458" lon="5.95219">
        <ele>2308.3</ele>
        <time>2013-03-02T10:08:55Z</time>
      </trkpt>
      <trkpt lat="45.17462" lon="5.9523">
        <ele>2308.2</ele>
        <time>2013-03-02T10:09:03Z</time>
      </trkpt>
      <trkpt lat="45.17466" lon="5.95241">
        <ele>2309.3</ele>
        <time>2013-03-02T10:09:11Z</time>
      </trkpt>
      <trkpt lat="45.17472" lon="5.9525">
        <ele>2308.9</ele>
        <time>2013-03-02T10:09:22Z</time>
      </trkpt>
      <trkpt lat="45.17479" lon="5.95258">
        <ele>2308.8</ele>
        <time>2013-03-02T10:09:34Z</time>
      </trkpt>
      <trkpt lat="45.17479" lon="5.95259">
        <ele>2309.1</ele>
        <time>2013-03-02T10:09:35Z</time>
      </trkpt>
      <trkpt lat="45.17484" lon="5.95279">
        <ele>2310</ele>
        <time>2013-03-02T10:09:58Z</time>
      </trkpt>
      <trkpt lat="45.17492" lon="5.95285">
        <ele>2311.2</ele>
        <time>2013-03-02T10:10:07Z</time>
      </trkpt>
      <trkpt lat="45.17499" lon="5.95291">
        <ele>2314.5</ele>
        <time>2013-03-02T10:10:23Z</time>
      </trkpt>
      <trkpt lat="45.17506" lon="5.95297">
        <ele>2316.1</ele>
        <time>2013-03-02T10:10:35Z</time>
      </trkpt>
      <trkpt lat="45.17513" lon="5.95304">
        <ele>2318.2</ele>
        <time>2013-03-02T10:10:53Z</time>
      </trkpt>
      <trkpt lat="45.17513" lon="5.95305">
        <ele>2318.2</ele>
        <time>2013-03-02T10:10:54Z</time>
      </trkpt>
      <trkpt lat="45.17522" lon="5.95326">
        <ele>2322.1</ele>
        <time>2013-03-02T10:11:26Z</time>
      </trkpt>
      <trkpt lat="45.17525" lon="5.95337">
        <ele>2324.8</ele>
        <time>2013-03-02T10:11:38Z</time>
      </trkpt>
      <trkpt lat="45.17519" lon="5.95346">
        <ele>2324.8</ele>
        <time>2013-03-02T10:12:04Z</time>
      </trkpt>
      <trkpt lat="45.17518" lon="5.95347">
        <ele>2325.4</ele>
        <time>2013-03-02T10:12:05Z</time>
      </trkpt>
      <trkpt lat="45.17518" lon="5.95345">
        <ele>2326</ele>
        <time>2013-03-02T10:12:52Z</time>
      </trkpt>
      <trkpt lat="45.17526" lon="5.95346">
        <ele>2325.7</ele>
        <time>2013-03-02T10:13:25Z</time>
      </trkpt>
      <trkpt lat="45.17527" lon="5.95346">
        <ele>2325.9</ele>
        <time>2013-03-02T10:13:26Z</time>
      </trkpt>
      <trkpt lat="45.17529" lon="5.95358">
        <ele>2329.1</ele>
        <time>2013-03-02T10:14:31Z</time>
      </trkpt>
      <trkpt lat="45.17517" lon="5.95368">
        <ele>2333.3</ele>
        <time>2013-03-02T10:15:12Z</time>
      </trkpt>
      <trkpt lat="45.17509" lon="5.95363">
        <ele>2334.2</ele>
        <time>2013-03-02T10:15:23Z</time>
      </trkpt>
      <trkpt lat="45.17502" lon="5.95358">
        <ele>2336.2</ele>
        <time>2013-03-02T10:15:37Z</time>
      </trkpt>
      <trkpt lat="45.17501" lon="5.95358">
        <ele>2336.2</ele>
        <time>2013-03-02T10:15:38Z</time>
      </trkpt>
      <trkpt lat="45.17504" lon="5.95381">
        <ele>2342.4</ele>
        <time>2013-03-02T10:16:15Z</time>
      </trkpt>
      <trkpt lat="45.17502" lon="5.95393">
        <ele>2343.9</ele>
        <time>2013-03-02T10:16:27Z</time>
      </trkpt>
      <trkpt lat="45.17501" lon="5.95405">
        <ele>2347.3</ele>
        <time>2013-03-02T10:16:38Z</time>
      </trkpt>
      <trkpt lat="45.17509" lon="5.95406">
        <ele>2346.9</ele>
        <time>2013-03-02T10:16:51Z</time>
      </trkpt>
      <trkpt lat="45.1751" lon="5.95406">
        <ele>2346.8</ele>
        <time>2013-03-02T10:16:52Z</time>
      </trkpt>
      <trkpt lat="45.17499" lon="5.95389">
        <ele>2351</ele>
        <time>2013-03-02T10:17:28Z</time>
      </trkpt>
      <trkpt lat="45.17491" lon="5.95391">
        <ele>2352.5</ele>
        <time>2013-03-02T10:17:47Z</time>
      </trkpt>
      <trkpt lat="45.17491" lon="5.95404">
        <ele>2356.5</ele>
        <time>2013-03-02T10:18:03Z</time>
      </trkpt>
      <trkpt lat="45.17491" lon="5.95405">
        <ele>2356.8</ele>
        <time>2013-03-02T10:18:04Z</time>
      </trkpt>
      <trkpt lat="45.17487" lon="5.95405">
        <ele>2362.3</ele>
        <time>2013-03-02T10:19:06Z</time>
      </trkpt>
      <trkpt lat="45.17486" lon="5.95404">
        <ele>2362.9</ele>
        <time>2013-03-02T10:19:07Z</time>
      </trkpt>
      <trkpt lat="45.17472" lon="5.95403">
        <ele>2367.2</ele>
        <time>2013-03-02T10:19:35Z</time>
      </trkpt>
      <trkpt lat="45.17475" lon="5.95414">
        <ele>2369</ele>
        <time>2013-03-02T10:19:46Z</time>
      </trkpt>
      <trkpt lat="45.17481" lon="5.95422">
        <ele>2370.8</ele>
        <time>2013-03-02T10:19:54Z</time>
      </trkpt>
      <trkpt lat="45.17473" lon="5.95423">
        <ele>2373.4</ele>
        <time>2013-03-02T10:20:39Z</time>
      </trkpt>
      <trkpt lat="45.17472" lon="5.95422">
        <ele>2373.6</ele>
        <time>2013-03-02T10:20:40Z</time>
      </trkpt>
      <trkpt lat="45.17465" lon="5.95425">
        <ele>2380.6</ele>
        <time>2013-03-02T10:21:28Z</time>
      </trkpt>
      <trkpt lat="45.1747" lon="5.95436">
        <ele>2382.4</ele>
        <time>2013-03-02T10:21:39Z</time>
      </trkpt>
      <trkpt lat="45.17462" lon="5.95443">
        <ele>2386.3</ele>
        <time>2013-03-02T10:22:28Z</time>
      </trkpt>
      <trkpt lat="45.17462" lon="5.95442">
        <ele>2386.4</ele>
        <time>2013-03-02T10:22:29Z</time>
      </trkpt>
      <trkpt lat="45.17459" lon="5.95445">
        <ele>2393.2</ele>
        <time>2013-03-02T10:23:16Z</time>
      </trkpt>
      <trkpt lat="45.17463" lon="5.95456">
        <ele>2395</ele>
        <time>2013-03-02T10:23:28Z</time>
      </trkpt>
      <trkpt lat="45.17457" lon="5.95464">
        <ele>2396.9</ele>
        <time>2013-03-02T10:24:11Z</time>
      </trkpt>
      <trkpt lat="45.17456" lon="5.95464">
        <ele>2397.1</ele>
        <time>2013-03-02T10:24:12Z</time>
      </trkpt>
      <trkpt lat="45.17443" lon="5.95449">
        <ele>2401.6</ele>
        <time>2013-03-02T10:24:36Z</time>
      </trkpt>
      <trkpt lat="45.17444" lon="5.95461">
        <ele>2403.7</ele>
        <time>2013-03-02T10:25:09Z</time>
      </trkpt>
      <trkpt lat="45.1745" lon="5.9547">
        <ele>2405.1</ele>
        <time>2013-03-02T10:25:34Z</time>
      </trkpt>
      <trkpt lat="45.17451" lon="5.95471">
        <ele>2405.6</ele>
        <time>2013-03-02T10:25:35Z</time>
      </trkpt>
      <trkpt lat="45.1745" lon="5.95486">
        <ele>2408.6</ele>
        <time>2013-03-02T10:26:10Z</time>
      </trkpt>
      <trkpt lat="45.17442" lon="5.95481">
        <ele>2409.1</ele>
        <time>2013-03-02T10:26:21Z</time>
      </trkpt>
      <trkpt lat="45.17434" lon="5.95474">
        <ele>2412.6</ele>
        <time>2013-03-02T10:26:33Z</time>
      </trkpt>
      <trkpt lat="45.1744" lon="5.95483">
        <ele>2416.1</ele>
        <time>2013-03-02T10:27:05Z</time>
      </trkpt>
      <trkpt lat="45.17441" lon="5.95484">
        <ele>2416.4</ele>
        <time>2013-03-02T10:27:06Z</time>
      </trkpt>
      <trkpt lat="45.17453" lon="5.955">
        <ele>2419.1</ele>
        <time>2013-03-02T10:27:28Z</time>
      </trkpt>
      <trkpt lat="45.17445" lon="5.95503">
        <ele>2421.6</ele>
        <time>2013-03-02T10:28:11Z</time>
      </trkpt>
      <trkpt lat="45.17444" lon="5.95502">
        <ele>2421.8</ele>
        <time>2013-03-02T10:28:12Z</time>
      </trkpt>
      <trkpt lat="45.17428" lon="5.95493">
        <ele>2424.7</ele>
        <time>2013-03-02T10:28:31Z</time>
      </trkpt>
      <trkpt lat="45.1743" lon="5.95505">
        <ele>2425.9</ele>
        <time>2013-03-02T10:29:08Z</time>
      </trkpt>
      <trkpt lat="45.17438" lon="5.9551">
        <ele>2428.3</ele>
        <time>2013-03-02T10:29:17Z</time>
      </trkpt>
      <trkpt lat="45.17439" lon="5.95511">
        <ele>2428.1</ele>
        <time>2013-03-02T10:29:18Z</time>
      </trkpt>
      <trkpt lat="45.17453" lon="5.95519">
        <ele>2430.2</ele>
        <time>2013-03-02T10:29:35Z</time>
      </trkpt>
      <trkpt lat="45.17447" lon="5.95527">
        <ele>2435.8</ele>
        <time>2013-03-02T10:30:46Z</time>
      </trkpt>
      <trkpt lat="45.17447" lon="5.95527">
        <ele>2435.8</ele>
        <time>2013-03-02T10:30:47Z</time>
      </trkpt>
      <trkpt lat="45.17446" lon="5.95543">
        <ele>2443.3</ele>
        <time>2013-03-02T10:32:35Z</time>
      </trkpt>
      <trkpt lat="45.17446" lon="5.95543">
        <ele>2443.3</ele>
        <time>2013-03-02T10:32:36Z</time>
      </trkpt>
      <trkpt lat="45.17446" lon="5.95546">
        <ele>2446.2</ele>
        <time>2013-03-02T10:34:37Z</time>
      </trkpt>
      <trkpt lat="45.17445" lon="5.95546">
        <ele>2447.4</ele>
        <time>2013-03-02T10:34:38Z</time>
      </trkpt>
      <trkpt lat="45.17448" lon="5.95559">
        <ele>2457.7</ele>
        <time>2013-03-02T10:36:22Z</time>
      </trkpt>
      <trkpt lat="45.17445" lon="5.95583">
        <ele>2468.7</ele>
        <time>2013-03-02T10:37:49Z</time>
      </trkpt>
      <trkpt lat="45.17445" lon="5.95583">
        <ele>2468.9</ele>
        <time>2013-03-02T10:37:50Z</time>
      </trkpt>
      <trkpt lat="45.17428" lon="5.95582">
        <ele>2471.9</ele>
        <time>2013-03-02T10:39:14Z</time>
      </trkpt>
      <trkpt lat="45.17427" lon="5.95582">
        <ele>2471.9</ele>
        <time>2013-03-02T10:39:15Z</time>
      </trkpt>
      <trkpt lat="45.17412" lon="5.9558">
        <ele>2476.9</ele>
        <time>2013-03-02T10:39:59Z</time>
      </trkpt>
      <trkpt lat="45.17405" lon="5.95574">
        <ele>2478.4</ele>
        <time>2013-03-02T10:40:10Z</time>
      </trkpt>
      <trkpt lat="45.17413" lon="5.95577">
        <ele>2481.9</ele>
        <time>2013-03-02T10:41:05Z</time>
      </trkpt>
      <trkpt lat="45.17414" lon="5.95577">
        <ele>2481.6</ele>
        <time>2013-03-02T10:41:06Z</time>
      </trkpt>
      <trkpt lat="45.17424" lon="5.9559">
        <ele>2482.3</ele>
        <time>2013-03-02T10:41:38Z</time>
      </trkpt>
      <trkpt lat="45.17429" lon="5.95601">
        <ele>2485.3</ele>
        <time>2013-03-02T10:41:49Z</time>
      </trkpt>
      <trkpt lat="45.17423" lon="5.9561">
        <ele>2486.5</ele>
        <time>2013-03-02T10:42:01Z</time>
      </trkpt>
      <trkpt lat="45.17419" lon="5.95621">
        <ele>2488.2</ele>
        <time>2013-03-02T10:42:21Z</time>
      </trkpt>
      <trkpt lat="45.17418" lon="5.95621">
        <ele>2488</ele>
        <time>2013-03-02T10:42:22Z</time>
      </trkpt>
      <trkpt lat="45.17416" lon="5.95645">
        <ele>2493.3</ele>
        <time>2013-03-02T10:43:12Z</time>
      </trkpt>
      <trkpt lat="45.1741" lon="5.95654">
        <ele>2495</ele>
        <time>2013-03-02T10:43:23Z</time>
      </trkpt>
      <trkpt lat="45.1741" lon="5.95655">
        <ele>2495</ele>
        <time>2013-03-02T10:43:24Z</time>
      </trkpt>
      <trkpt lat="45.17399" lon="5.95673">
        <ele>2497.7</ele>
        <time>2013-03-02T10:43:46Z</time>
      </trkpt>
      <trkpt lat="45.17399" lon="5.95685">
        <ele>2499.6</ele>
        <time>2013-03-02T10:44:26Z</time>
      </trkpt>
      <trkpt lat="45.17399" lon="5.95686">
        <ele>2499.7</ele>
        <time>2013-03-02T10:44:27Z</time>
      </trkpt>
      <trkpt lat="45.17393" lon="5.95707">
        <ele>2505.4</ele>
        <time>2013-03-02T10:44:49Z</time>
      </trkpt>
      <trkpt lat="45.17387" lon="5.95715">
        <ele>2507.1</ele>
        <time>2013-03-02T10:45:00Z</time>
      </trkpt>
      <trkpt lat="45.17381" lon="5.95725">
        <ele>2509.5</ele>
        <time>2013-03-02T10:45:10Z</time>
      </trkpt>
      <trkpt lat="45.17374" lon="5.95733">
        <ele>2510.2</ele>
        <time>2013-03-02T10:45:42Z</time>
      </trkpt>
      <trkpt lat="45.17374" lon="5.95733">
        <ele>2510.3</ele>
        <time>2013-03-02T10:45:43Z</time>
      </trkpt>
      <trkpt lat="45.17385" lon="5.95752">
        <ele>2517.9</ele>
        <time>2013-03-02T10:46:45Z</time>
      </trkpt>
      <trkpt lat="45.17385" lon="5.95753">
        <ele>2518.2</ele>
        <time>2013-03-02T10:46:46Z</time>
      </trkpt>
      <trkpt lat="45.17383" lon="5.95766">
        <ele>2524.8</ele>
        <time>2013-03-02T10:47:54Z</time>
      </trkpt>
      <trkpt lat="45.17383" lon="5.95766">
        <ele>2525.1</ele>
        <time>2013-03-02T10:47:55Z</time>
      </trkpt>
      <trkpt lat="45.17399" lon="5.95762">
        <ele>2528.5</ele>
        <time>2013-03-02T10:48:15Z</time>
      </trkpt>
      <trkpt lat="45.17405" lon="5.95752">
        <ele>2529.9</ele>
        <time>2013-03-02T10:48:47Z</time>
      </trkpt>
      <trkpt lat="45.17413" lon="5.95747">
        <ele>2533.7</ele>
        <time>2013-03-02T10:49:03Z</time>
      </trkpt>
      <trkpt lat="45.17413" lon="5.95747">
        <ele>2533.5</ele>
        <time>2013-03-02T10:49:04Z</time>
      </trkpt>
      <trkpt lat="45.17429" lon="5.95737">
        <ele>2538.5</ele>
        <time>2013-03-02T10:49:43Z</time>
      </trkpt>
      <trkpt lat="45.17432" lon="5.95749">
        <ele>2541.4</ele>
        <time>2013-03-02T10:50:23Z</time>
      </trkpt>
      <trkpt lat="45.17431" lon="5.9575">
        <ele>2541.8</ele>
        <time>2013-03-02T10:50:24Z</time>
      </trkpt>
      <trkpt lat="45.17429" lon="5.95774">
        <ele>2546.2</ele>
        <time>2013-03-02T10:50:46Z</time>
      </trkpt>
      <trkpt lat="45.17438" lon="5.95774">
        <ele>2550.3</ele>
        <time>2013-03-02T10:51:16Z</time>
      </trkpt>
      <trkpt lat="45.17444" lon="5.95764">
        <ele>2551.6</ele>
        <time>2013-03-02T10:52:08Z</time>
      </trkpt>
      <trkpt lat="45.17444" lon="5.95764">
        <ele>2551.7</ele>
        <time>2013-03-02T10:52:09Z</time>
      </trkpt>
      <trkpt lat="45.17445" lon="5.95777">
        <ele>2551.6</ele>
        <time>2013-03-02T11:00:38Z</time>
      </trkpt>
      <trkpt lat="45.17454" lon="5.95774">
        <ele>2550.7</ele>
        <time>2013-03-02T11:07:55Z</time>
      </trkpt>
      <trkpt lat="45.17445" lon="5.9577">
        <ele>2550.3</ele>
        <time>2013-03-02T11:11:13Z</time>
      </trkpt>
      <trkpt lat="45.17453" lon="5.95778">
        <ele>2550.9</ele>
        <time>2013-03-02T11:17:44Z</time>
      </trkpt>
      <trkpt lat="45.17452" lon="5.95772">
        <ele>2549.4</ele>
        <time>2013-03-02T11:29:27Z</time>
      </trkpt>
      <trkpt lat="45.17453" lon="5.95773">
        <ele>2549.4</ele>
        <time>2013-03-02T11:29:28Z</time>
      </trkpt>
      <trkpt lat="45.17435" lon="5.95774">
        <ele>2550.3</ele>
        <time>2013-03-02T11:29:42Z</time>
      </trkpt>
      <trkpt lat="45.17444" lon="5.95775">
        <ele>2551.2</ele>
        <time>2013-03-02T11:30:21Z</time>
      </trkpt>
      <trkpt lat="45.17436" lon="5.95781">
        <ele>2550.1</ele>
        <time>2013-03-02T11:35:12Z</time>
      </trkpt>
      <trkpt lat="45.17436" lon="5.95781">
        <ele>2550.1</ele>
        <time>2013-03-02T11:35:13Z</time>
      </trkpt>
      <trkpt lat="45.17431" lon="5.95804">
        <ele>2549.5</ele>
        <time>2013-03-02T11:36:32Z</time>
      </trkpt>
      <trkpt lat="45.17431" lon="5.95805">
        <ele>2549.5</ele>
        <time>2013-03-02T11:36:33Z</time>
      </trkpt>
      <trkpt lat="45.17422" lon="5.95788">
        <ele>2548.5</ele>
        <time>2013-03-02T11:37:12Z</time>
      </trkpt>
      <trkpt lat="45.17415" lon="5.95786">
        <ele>2546.9</ele>
        <time>2013-03-02T11:37:16Z</time>
      </trkpt>
      <trkpt lat="45.17407" lon="5.95786">
        <ele>2544.7</ele>
        <time>2013-03-02T11:37:21Z</time>
      </trkpt>
      <trkpt lat="45.17399" lon="5.95783">
        <ele>2542.5</ele>
        <time>2013-03-02T11:37:26Z</time>
      </trkpt>
      <trkpt lat="45.17391" lon="5.95784">
        <ele>2541</ele>
        <time>2013-03-02T11:37:32Z</time>
      </trkpt>
      <trkpt lat="45.17383" lon="5.95788">
        <ele>2539.9</ele>
        <time>2013-03-02T11:37:37Z</time>
      </trkpt>
      <trkpt lat="45.17382" lon="5.95789">
        <ele>2539.6</ele>
        <time>2013-03-02T11:37:38Z</time>
      </trkpt>
      <trkpt lat="45.17366" lon="5.95793">
        <ele>2535.8</ele>
        <time>2013-03-02T11:37:54Z</time>
      </trkpt>
      <trkpt lat="45.1737" lon="5.95783">
        <ele>2529.2</ele>
        <time>2013-03-02T11:38:00Z</time>
      </trkpt>
      <trkpt lat="45.1737" lon="5.95774">
        <ele>2524.2</ele>
        <time>2013-03-02T11:38:03Z</time>
      </trkpt>
      <trkpt lat="45.1737" lon="5.95764">
        <ele>2521.4</ele>
        <time>2013-03-02T11:38:05Z</time>
      </trkpt>
      <trkpt lat="45.1737" lon="5.95753">
        <ele>2518.2</ele>
        <time>2013-03-02T11:38:07Z</time>
      </trkpt>
      <trkpt lat="45.17369" lon="5.95746">
        <ele>2516.6</ele>
        <time>2013-03-02T11:38:08Z</time>
      </trkpt>
      <trkpt lat="45.17367" lon="5.95739">
        <ele>2514.5</ele>
        <time>2013-03-02T11:38:09Z</time>
      </trkpt>
      <trkpt lat="45.17364" lon="5.95734">
        <ele>2513</ele>
        <time>2013-03-02T11:38:10Z</time>
      </trkpt>
      <trkpt lat="45.17362" lon="5.95728">
        <ele>2511.8</ele>
        <time>2013-03-02T11:38:11Z</time>
      </trkpt>
      <trkpt lat="45.1736" lon="5.95717">
        <ele>2509.8</ele>
        <time>2013-03-02T11:38:13Z</time>
      </trkpt>
      <trkpt lat="45.17358" lon="5.95707">
        <ele>2507.7</ele>
        <time>2013-03-02T11:38:16Z</time>
      </trkpt>
      <trkpt lat="45.17353" lon="5.95696">
        <ele>2507.1</ele>
        <time>2013-03-02T11:38:21Z</time>
      </trkpt>
      <trkpt lat="45.17353" lon="5.95684">
        <ele>2505.6</ele>
        <time>2013-03-02T11:38:27Z</time>
      </trkpt>
      <trkpt lat="45.17356" lon="5.95674">
        <ele>2506.1</ele>
        <time>2013-03-02T11:38:33Z</time>
      </trkpt>
      <trkpt lat="45.17361" lon="5.95665">
        <ele>2506</ele>
        <time>2013-03-02T11:38:37Z</time>
      </trkpt>
      <trkpt lat="45.17367" lon="5.95657">
        <ele>2506.1</ele>
        <time>2013-03-02T11:38:41Z</time>
      </trkpt>
      <trkpt lat="45.17368" lon="5.95655">
        <ele>2506</ele>
        <time>2013-03-02T11:38:42Z</time>
      </trkpt>
      <trkpt lat="45.17367" lon="5.95641">
        <ele>2504.6</ele>
        <time>2013-03-02T11:39:01Z</time>
      </trkpt>
      <trkpt lat="45.17361" lon="5.95632">
        <ele>2504.4</ele>
        <time>2013-03-02T11:39:17Z</time>
      </trkpt>
      <trkpt lat="45.17367" lon="5.95625">
        <ele>2502.6</ele>
        <time>2013-03-02T11:39:25Z</time>
      </trkpt>
      <trkpt lat="45.17374" lon="5.95617">
        <ele>2497.3</ele>
        <time>2013-03-02T11:39:30Z</time>
      </trkpt>
      <trkpt lat="45.17378" lon="5.95611">
        <ele>2494.4</ele>
        <time>2013-03-02T11:39:32Z</time>
      </trkpt>
      <trkpt lat="45.17382" lon="5.95602">
        <ele>2491.7</ele>
        <time>2013-03-02T11:39:34Z</time>
      </trkpt>
      <trkpt lat="45.17387" lon="5.95595">
        <ele>2487.4</ele>
        <time>2013-03-02T11:39:36Z</time>
      </trkpt>
      <trkpt lat="45.17392" lon="5.95589">
        <ele>2484.3</ele>
        <time>2013-03-02T11:39:38Z</time>
      </trkpt>
      <trkpt lat="45.17399" lon="5.95582">
        <ele>2481.9</ele>
        <time>2013-03-02T11:39:42Z</time>
      </trkpt>
      <trkpt lat="45.17407" lon="5.95577">
        <ele>2481</ele>
        <time>2013-03-02T11:39:47Z</time>
      </trkpt>
      <trkpt lat="45.17409" lon="5.95576">
        <ele>2480.9</ele>
        <time>2013-03-02T11:39:48Z</time>
      </trkpt>
      <trkpt lat="45.17424" lon="5.95577">
        <ele>2479.3</ele>
        <time>2013-03-02T11:42:14Z</time>
      </trkpt>
      <trkpt lat="45.17425" lon="5.95577">
        <ele>2479.3</ele>
        <time>2013-03-02T11:42:15Z</time>
      </trkpt>
      <trkpt lat="45.17428" lon="5.95555">
        <ele>2467.2</ele>
        <time>2013-03-02T11:42:27Z</time>
      </trkpt>
      <trkpt lat="45.17432" lon="5.95545">
        <ele>2455.9</ele>
        <time>2013-03-02T11:42:39Z</time>
      </trkpt>
      <trkpt lat="45.1744" lon="5.95537">
        <ele>2449</ele>
        <time>2013-03-02T11:42:44Z</time>
      </trkpt>
      <trkpt lat="45.17442" lon="5.95526">
        <ele>2440.2</ele>
        <time>2013-03-02T11:42:50Z</time>
      </trkpt>
      <trkpt lat="45.17439" lon="5.95519">
        <ele>2437</ele>
        <time>2013-03-02T11:42:53Z</time>
      </trkpt>
      <trkpt lat="45.17434" lon="5.95511">
        <ele>2434</ele>
        <time>2013-03-02T11:42:55Z</time>
      </trkpt>
      <trkpt lat="45.17429" lon="5.95502">
        <ele>2431.8</ele>
        <time>2013-03-02T11:42:57Z</time>
      </trkpt>
      <trkpt lat="45.17424" lon="5.95491">
        <ele>2429</ele>
        <time>2013-03-02T11:43:02Z</time>
      </trkpt>
      <trkpt lat="45.17417" lon="5.95484">
        <ele>2427.4</ele>
        <time>2013-03-02T11:43:08Z</time>
      </trkpt>
      <trkpt lat="45.1741" lon="5.95476">
        <ele>2426.4</ele>
        <time>2013-03-02T11:43:21Z</time>
      </trkpt>
      <trkpt lat="45.1741" lon="5.95476">
        <ele>2426.4</ele>
        <time>2013-03-02T11:43:22Z</time>
      </trkpt>
      <trkpt lat="45.17419" lon="5.95456">
        <ele>2425.9</ele>
        <time>2013-03-02T11:44:00Z</time>
      </trkpt>
      <trkpt lat="45.17426" lon="5.9545">
        <ele>2425.3</ele>
        <time>2013-03-02T11:44:13Z</time>
      </trkpt>
      <trkpt lat="45.17434" lon="5.95447">
        <ele>2421.4</ele>
        <time>2013-03-02T11:44:18Z</time>
      </trkpt>
      <trkpt lat="45.17441" lon="5.95438">
        <ele>2410</ele>
        <time>2013-03-02T11:44:25Z</time>
      </trkpt>
      <trkpt lat="45.17441" lon="5.95436">
        <ele>2407.9</ele>
        <time>2013-03-02T11:44:27Z</time>
      </trkpt>
      <trkpt lat="45.17449" lon="5.95417">
        <ele>2388</ele>
        <time>2013-03-02T11:44:46Z</time>
      </trkpt>
      <trkpt lat="45.17453" lon="5.95407">
        <ele>2387</ele>
        <time>2013-03-02T11:44:56Z</time>
      </trkpt>
      <trkpt lat="45.17458" lon="5.95398">
        <ele>2386.8</ele>
        <time>2013-03-02T11:45:06Z</time>
      </trkpt>
      <trkpt lat="45.17462" lon="5.95388">
        <ele>2387.2</ele>
        <time>2013-03-02T11:45:16Z</time>
      </trkpt>
      <trkpt lat="45.17471" lon="5.95384">
        <ele>2380</ele>
        <time>2013-03-02T11:45:26Z</time>
      </trkpt>
      <trkpt lat="45.17477" lon="5.95376">
        <ele>2364.4</ele>
        <time>2013-03-02T11:45:37Z</time>
      </trkpt>
      <trkpt lat="45.17479" lon="5.95375">
        <ele>2362.8</ele>
        <time>2013-03-02T11:45:38Z</time>
      </trkpt>
      <trkpt lat="45.17486" lon="5.95357">
        <ele>2344.7</ele>
        <time>2013-03-02T11:46:06Z</time>
      </trkpt>
      <trkpt lat="45.17492" lon="5.95349">
        <ele>2344.7</ele>
        <time>2013-03-02T11:46:44Z</time>
      </trkpt>
      <trkpt lat="45.17492" lon="5.95348">
        <ele>2344.5</ele>
        <time>2013-03-02T11:46:45Z</time>
      </trkpt>
      <trkpt lat="45.17499" lon="5.95329">
        <ele>2339.7</ele>
        <time>2013-03-02T11:47:07Z</time>
      </trkpt>
      <trkpt lat="45.17501" lon="5.95317">
        <ele>2330.4</ele>
        <time>2013-03-02T11:47:14Z</time>
      </trkpt>
      <trkpt lat="45.17504" lon="5.95307">
        <ele>2322.2</ele>
        <time>2013-03-02T11:47:18Z</time>
      </trkpt>
      <trkpt lat="45.17508" lon="5.95297">
        <ele>2314.5</ele>
        <time>2013-03-02T11:47:22Z</time>
      </trkpt>
      <trkpt lat="45.17512" lon="5.95289">
        <ele>2308.9</ele>
        <time>2013-03-02T11:47:25Z</time>
      </trkpt>
      <trkpt lat="45.17516" lon="5.95279">
        <ele>2303</ele>
        <time>2013-03-02T11:47:29Z</time>
      </trkpt>
      <trkpt lat="45.17521" lon="5.95274">
        <ele>2299.7</ele>
        <time>2013-03-02T11:47:31Z</time>
      </trkpt>
      <trkpt lat="45.17526" lon="5.95267">
        <ele>2294.7</ele>
        <time>2013-03-02T11:47:33Z</time>
      </trkpt>
      <trkpt lat="45.17531" lon="5.95257">
        <ele>2288.2</ele>
        <time>2013-03-02T11:47:37Z</time>
      </trkpt>
      <trkpt lat="45.17541" lon="5.95247">
        <ele>2278</ele>
        <time>2013-03-02T11:47:44Z</time>
      </trkpt>
      <trkpt lat="45.17543" lon="5.95246">
        <ele>2277.2</ele>
        <time>2013-03-02T11:47:46Z</time>
      </trkpt>
      <trkpt lat="45.17556" lon="5.95232">
        <ele>2274</ele>
        <time>2013-03-02T11:48:18Z</time>
      </trkpt>
      <trkpt lat="45.1755" lon="5.95223">
        <ele>2273</ele>
        <time>2013-03-02T11:48:40Z</time>
      </trkpt>
      <trkpt lat="45.17561" lon="5.9521">
        <ele>2268</ele>
        <time>2013-03-02T11:48:45Z</time>
      </trkpt>
      <trkpt lat="45.17565" lon="5.95206">
        <ele>2266.3</ele>
        <time>2013-03-02T11:48:47Z</time>
      </trkpt>
      <trkpt lat="45.17576" lon="5.95197">
        <ele>2258.5</ele>
        <time>2013-03-02T11:48:51Z</time>
      </trkpt>
      <trkpt lat="45.17583" lon="5.95193">
        <ele>2254.2</ele>
        <time>2013-03-02T11:48:54Z</time>
      </trkpt>
      <trkpt lat="45.1759" lon="5.95191">
        <ele>2250.5</ele>
        <time>2013-03-02T11:48:56Z</time>
      </trkpt>
      <trkpt lat="45.17595" lon="5.95183">
        <ele>2247</ele>
        <time>2013-03-02T11:48:58Z</time>
      </trkpt>
      <trkpt lat="45.17602" lon="5.95176">
        <ele>2243.8</ele>
        <time>2013-03-02T11:49:00Z</time>
      </trkpt>
      <trkpt lat="45.17606" lon="5.95166">
        <ele>2240</ele>
        <time>2013-03-02T11:49:02Z</time>
      </trkpt>
      <trkpt lat="45.17612" lon="5.95163">
        <ele>2237</ele>
        <time>2013-03-02T11:49:04Z</time>
      </trkpt>
      <trkpt lat="45.17618" lon="5.95157">
        <ele>2232.7</ele>
        <time>2013-03-02T11:49:06Z</time>
      </trkpt>
      <trkpt lat="45.17624" lon="5.95153">
        <ele>2228.6</ele>
        <time>2013-03-02T11:49:08Z</time>
      </trkpt>
      <trkpt lat="45.17629" lon="5.95148">
        <ele>2224.9</ele>
        <time>2013-03-02T11:49:10Z</time>
      </trkpt>
      <trkpt lat="45.17637" lon="5.95141">
        <ele>2217.9</ele>
        <time>2013-03-02T11:49:14Z</time>
      </trkpt>
      <trkpt lat="45.17642" lon="5.95131">
        <ele>2212.3</ele>
        <time>2013-03-02T11:49:17Z</time>
      </trkpt>
      <trkpt lat="45.17645" lon="5.9512">
        <ele>2207.4</ele>
        <time>2013-03-02T11:49:20Z</time>
      </trkpt>
      <trkpt lat="45.1765" lon="5.95112">
        <ele>2201.1</ele>
        <time>2013-03-02T11:49:23Z</time>
      </trkpt>
      <trkpt lat="45.17652" lon="5.95101">
        <ele>2196.4</ele>
        <time>2013-03-02T11:49:26Z</time>
      </trkpt>
      <trkpt lat="45.17656" lon="5.9509">
        <ele>2192</ele>
        <time>2013-03-02T11:49:29Z</time>
      </trkpt>
      <trkpt lat="45.17663" lon="5.95084">
        <ele>2189.1</ele>
        <time>2013-03-02T11:49:31Z</time>
      </trkpt>
      <trkpt lat="45.17667" lon="5.95076">
        <ele>2185</ele>
        <time>2013-03-02T11:49:33Z</time>
      </trkpt>
      <trkpt lat="45.17674" lon="5.95072">
        <ele>2180.5</ele>
        <time>2013-03-02T11:49:35Z</time>
      </trkpt>
      <trkpt lat="45.17679" lon="5.95062">
        <ele>2173.6</ele>
        <time>2013-03-02T11:49:41Z</time>
      </trkpt>
      <trkpt lat="45.17682" lon="5.95053">
        <ele>2171.6</ele>
        <time>2013-03-02T11:49:51Z</time>
      </trkpt>
      <trkpt lat="45.17683" lon="5.95051">
        <ele>2171.6</ele>
        <time>2013-03-02T11:49:52Z</time>
      </trkpt>
      <trkpt lat="45.17696" lon="5.95039">
        <ele>2166.3</ele>
        <time>2013-03-02T11:49:59Z</time>
      </trkpt>
      <trkpt lat="45.17702" lon="5.95032">
        <ele>2162.2</ele>
        <time>2013-03-02T11:50:02Z</time>
      </trkpt>
      <trkpt lat="45.17706" lon="5.95024">
        <ele>2159.8</ele>
        <time>2013-03-02T11:50:04Z</time>
      </trkpt>
      <trkpt lat="45.17709" lon="5.95013">
        <ele>2155.2</ele>
        <time>2013-03-02T11:50:07Z</time>
      </trkpt>
      <trkpt lat="45.17713" lon="5.95001">
        <ele>2150.7</ele>
        <time>2013-03-02T11:50:10Z</time>
      </trkpt>
      <trkpt lat="45.17717" lon="5.94993">
        <ele>2148.1</ele>
        <time>2013-03-02T11:50:12Z</time>
      </trkpt>
      <trkpt lat="45.17722" lon="5.94985">
        <ele>2144.9</ele>
        <time>2013-03-02T11:50:14Z</time>
      </trkpt>
      <trkpt lat="45.17726" lon="5.94976">
        <ele>2141.6</ele>
        <time>2013-03-02T11:50:16Z</time>
      </trkpt>
      <trkpt lat="45.17732" lon="5.94968">
        <ele>2138.2</ele>
        <time>2013-03-02T11:50:18Z</time>
      </trkpt>
      <trkpt lat="45.17734" lon="5.94959">
        <ele>2134.9</ele>
        <time>2013-03-02T11:50:20Z</time>
      </trkpt>
      <trkpt lat="45.17737" lon="5.9495">
        <ele>2132.3</ele>
        <time>2013-03-02T11:50:22Z</time>
      </trkpt>
      <trkpt lat="45.17741" lon="5.94945">
        <ele>2130.8</ele>
        <time>2013-03-02T11:50:23Z</time>
      </trkpt>
      <trkpt lat="45.17745" lon="5.94941">
        <ele>2129.7</ele>
        <time>2013-03-02T11:50:24Z</time>
      </trkpt>
      <trkpt lat="45.1775" lon="5.94934">
        <ele>2127.6</ele>
        <time>2013-03-02T11:50:25Z</time>
      </trkpt>
      <trkpt lat="45.17753" lon="5.94926">
        <ele>2126</ele>
        <time>2013-03-02T11:50:26Z</time>
      </trkpt>
      <trkpt lat="45.17757" lon="5.94917">
        <ele>2124.9</ele>
        <time>2013-03-02T11:50:27Z</time>
      </trkpt>
      <trkpt lat="45.17758" lon="5.94909">
        <ele>2123.1</ele>
        <time>2013-03-02T11:50:28Z</time>
      </trkpt>
      <trkpt lat="45.17758" lon="5.94897">
        <ele>2118.7</ele>
        <time>2013-03-02T11:50:32Z</time>
      </trkpt>
      <trkpt lat="45.17761" lon="5.94885">
        <ele>2116.3</ele>
        <time>2013-03-02T11:50:45Z</time>
      </trkpt>
      <trkpt lat="45.17767" lon="5.94879">
        <ele>2115.1</ele>
        <time>2013-03-02T11:50:53Z</time>
      </trkpt>
      <trkpt lat="45.17769" lon="5.94879">
        <ele>2115.1</ele>
        <time>2013-03-02T11:50:54Z</time>
      </trkpt>
      <trkpt lat="45.17763" lon="5.94867">
        <ele>2114.3</ele>
        <time>2013-03-02T11:52:53Z</time>
      </trkpt>
      <trkpt lat="45.17737" lon="5.94803">
        <ele>2116.3</ele>
        <time>2013-03-02T11:53:20Z</time>
      </trkpt>
      <trkpt lat="45.17739" lon="5.9481">
        <ele>2115</ele>
        <time>2013-03-02T11:53:23Z</time>
      </trkpt>
      <trkpt lat="45.17744" lon="5.9482">
        <ele>2114.8</ele>
        <time>2013-03-02T11:53:24Z</time>
      </trkpt>
      <trkpt lat="45.17747" lon="5.94828">
        <ele>2114.7</ele>
        <time>2013-03-02T11:53:25Z</time>
      </trkpt>
      <trkpt lat="45.17751" lon="5.94838">
        <ele>2115</ele>
        <time>2013-03-02T11:53:27Z</time>
      </trkpt>
      <trkpt lat="45.17757" lon="5.94846">
        <ele>2115.5</ele>
        <time>2013-03-02T11:53:39Z</time>
      </trkpt>
      <trkpt lat="45.17759" lon="5.94859">
        <ele>2113.8</ele>
        <time>2013-03-02T11:54:23Z</time>
      </trkpt>
      <trkpt lat="45.17759" lon="5.94859">
        <ele>2113.8</ele>
        <time>2013-03-02T11:54:24Z</time>
      </trkpt>
      <trkpt lat="45.17765" lon="5.94869">
        <ele>2114.3</ele>
        <time>2013-03-02T11:56:40Z</time>
      </trkpt>
      <trkpt lat="45.17757" lon="5.94862">
        <ele>2114.8</ele>
        <time>2013-03-02T11:57:58Z</time>
      </trkpt>
      <trkpt lat="45.17754" lon="5.94857">
        <ele>2108</ele>
        <time>2013-03-02T12:00:48Z</time>
      </trkpt>
      <trkpt lat="45.17752" lon="5.94854">
        <ele>2111.9</ele>
        <time>2013-03-02T12:00:50Z</time>
      </trkpt>
      <trkpt lat="45.17754" lon="5.94795">
        <ele>2116.1</ele>
        <time>2013-03-02T12:01:21Z</time>
      </trkpt>
      <trkpt lat="45.17746" lon="5.94796">
        <ele>2115.8</ele>
        <time>2013-03-02T12:01:22Z</time>
      </trkpt>
      <trkpt lat="45.1774" lon="5.94805">
        <ele>2114.4</ele>
        <time>2013-03-02T12:01:31Z</time>
      </trkpt>
      <trkpt lat="45.17747" lon="5.94824">
        <ele>2113</ele>
        <time>2013-03-02T12:01:38Z</time>
      </trkpt>
      <trkpt lat="45.17754" lon="5.94838">
        <ele>2114.5</ele>
        <time>2013-03-02T12:01:42Z</time>
      </trkpt>
      <trkpt lat="45.17761" lon="5.94844">
        <ele>2113.9</ele>
        <time>2013-03-02T12:01:47Z</time>
      </trkpt>
      <trkpt lat="45.17759" lon="5.94854">
        <ele>2114.9</ele>
        <time>2013-03-02T12:02:14Z</time>
      </trkpt>
      <trkpt lat="45.17758" lon="5.94857">
        <ele>2114.7</ele>
        <time>2013-03-02T12:02:15Z</time>
      </trkpt>
      <trkpt lat="45.17756" lon="5.94879">
        <ele>2116.3</ele>
        <time>2013-03-02T12:02:29Z</time>
      </trkpt>
      <trkpt lat="45.17754" lon="5.94891">
        <ele>2117.9</ele>
        <time>2013-03-02T12:02:41Z</time>
      </trkpt>
      <trkpt lat="45.17751" lon="5.94902">
        <ele>2119.3</ele>
        <time>2013-03-02T12:02:52Z</time>
      </trkpt>
      <trkpt lat="45.17747" lon="5.94913">
        <ele>2121.3</ele>
        <time>2013-03-02T12:03:03Z</time>
      </trkpt>
      <trkpt lat="45.17744" lon="5.94925">
        <ele>2123.4</ele>
        <time>2013-03-02T12:03:15Z</time>
      </trkpt>
      <trkpt lat="45.1774" lon="5.94936">
        <ele>2124.4</ele>
        <time>2013-03-02T12:03:30Z</time>
      </trkpt>
      <trkpt lat="45.1774" lon="5.94937">
        <ele>2124.7</ele>
        <time>2013-03-02T12:03:31Z</time>
      </trkpt>
      <trkpt lat="45.17739" lon="5.94961">
        <ele>2129.2</ele>
        <time>2013-03-02T12:04:16Z</time>
      </trkpt>
      <trkpt lat="45.17737" lon="5.94973">
        <ele>2132.5</ele>
        <time>2013-03-02T12:04:33Z</time>
      </trkpt>
      <trkpt lat="45.17737" lon="5.94974">
        <ele>2132.6</ele>
        <time>2013-03-02T12:04:34Z</time>
      </trkpt>
      <trkpt lat="45.17737" lon="5.94998">
        <ele>2137.6</ele>
        <time>2013-03-02T12:05:08Z</time>
      </trkpt>
      <trkpt lat="45.17735" lon="5.9501">
        <ele>2140.9</ele>
        <time>2013-03-02T12:05:24Z</time>
      </trkpt>
      <trkpt lat="45.17731" lon="5.95021">
        <ele>2142.2</ele>
        <time>2013-03-02T12:05:54Z</time>
      </trkpt>
      <trkpt lat="45.1773" lon="5.95021">
        <ele>2142</ele>
        <time>2013-03-02T12:05:55Z</time>
      </trkpt>
      <trkpt lat="45.17714" lon="5.95014">
        <ele>2148.6</ele>
        <time>2013-03-02T12:06:28Z</time>
      </trkpt>
      <trkpt lat="45.17707" lon="5.95022">
        <ele>2154</ele>
        <time>2013-03-02T12:07:09Z</time>
      </trkpt>
      <trkpt lat="45.17707" lon="5.95023">
        <ele>2153.8</ele>
        <time>2013-03-02T12:07:10Z</time>
      </trkpt>
      <trkpt lat="45.1771" lon="5.95047">
        <ele>2159.5</ele>
        <time>2013-03-02T12:07:39Z</time>
      </trkpt>
      <trkpt lat="45.17702" lon="5.95049">
        <ele>2163.3</ele>
        <time>2013-03-02T12:08:25Z</time>
      </trkpt>
      <trkpt lat="45.17701" lon="5.95049">
        <ele>2163.3</ele>
        <time>2013-03-02T12:08:26Z</time>
      </trkpt>
      <trkpt lat="45.17689" lon="5.95057">
        <ele>2169.4</ele>
        <time>2013-03-02T12:09:15Z</time>
      </trkpt>
      <trkpt lat="45.17691" lon="5.95069">
        <ele>2172.8</ele>
        <time>2013-03-02T12:09:31Z</time>
      </trkpt>
      <trkpt lat="45.17691" lon="5.95069">
        <ele>2173.4</ele>
        <time>2013-03-02T12:09:32Z</time>
      </trkpt>
      <trkpt lat="45.17676" lon="5.95077">
        <ele>2176.6</ele>
        <time>2013-03-02T12:10:16Z</time>
      </trkpt>
      <trkpt lat="45.17675" lon="5.95089">
        <ele>2183.3</ele>
        <time>2013-03-02T12:11:13Z</time>
      </trkpt>
      <trkpt lat="45.17675" lon="5.95089">
        <ele>2184</ele>
        <time>2013-03-02T12:11:14Z</time>
      </trkpt>
      <trkpt lat="45.17661" lon="5.95102">
        <ele>2193.5</ele>
        <time>2013-03-02T12:12:30Z</time>
      </trkpt>
      <trkpt lat="45.17661" lon="5.95103">
        <ele>2193.3</ele>
        <time>2013-03-02T12:12:31Z</time>
      </trkpt>
      <trkpt lat="45.17646" lon="5.95102">
        <ele>2197.8</ele>
        <time>2013-03-02T12:13:22Z</time>
      </trkpt>
      <trkpt lat="45.17637" lon="5.95099">
        <ele>2200.3</ele>
        <time>2013-03-02T12:13:38Z</time>
      </trkpt>
      <trkpt lat="45.17637" lon="5.95099">
        <ele>2200.7</ele>
        <time>2013-03-02T12:13:39Z</time>
      </trkpt>
      <trkpt lat="45.17629" lon="5.95107">
        <ele>2207.3</ele>
        <time>2013-03-02T12:15:09Z</time>
      </trkpt>
      <trkpt lat="45.17629" lon="5.95108">
        <ele>2207.5</ele>
        <time>2013-03-02T12:15:10Z</time>
      </trkpt>
      <trkpt lat="45.17631" lon="5.95131">
        <ele>2212.5</ele>
        <time>2013-03-02T12:15:36Z</time>
      </trkpt>
      <trkpt lat="45.17631" lon="5.95143">
        <ele>2214.8</ele>
        <time>2013-03-02T12:16:12Z</time>
      </trkpt>
      <trkpt lat="45.17631" lon="5.95144">
        <ele>2215.1</ele>
        <time>2013-03-02T12:16:13Z</time>
      </trkpt>
      <trkpt lat="45.17636" lon="5.95167">
        <ele>2220.2</ele>
        <time>2013-03-02T12:16:39Z</time>
      </trkpt>
      <trkpt lat="45.17634" lon="5.95179">
        <ele>2223.2</ele>
        <time>2013-03-02T12:17:20Z</time>
      </trkpt>
      <trkpt lat="45.17634" lon="5.95179">
        <ele>2222.9</ele>
        <time>2013-03-02T12:17:21Z</time>
      </trkpt>
      <trkpt lat="45.17617" lon="5.95178">
        <ele>2229</ele>
        <time>2013-03-02T12:18:24Z</time>
      </trkpt>
      <trkpt lat="45.17617" lon="5.95177">
        <ele>2229.3</ele>
        <time>2013-03-02T12:18:25Z</time>
      </trkpt>
      <trkpt lat="45.17606" lon="5.95161">
        <ele>2234.5</ele>
        <time>2013-03-02T12:19:05Z</time>
      </trkpt>
      <trkpt lat="45.17598" lon="5.95162">
        <ele>2236.5</ele>
        <time>2013-03-02T12:19:30Z</time>
      </trkpt>
      <trkpt lat="45.17597" lon="5.95162">
        <ele>2236.9</ele>
        <time>2013-03-02T12:19:31Z</time>
      </trkpt>
      <trkpt lat="45.17595" lon="5.95186">
        <ele>2243.6</ele>
        <time>2013-03-02T12:20:34Z</time>
      </trkpt>
      <trkpt lat="45.17595" lon="5.95187">
        <ele>2243.8</ele>
        <time>2013-03-02T12:20:35Z</time>
      </trkpt>
      <trkpt lat="45.17594" lon="5.9521">
        <ele>2247.9</ele>
        <time>2013-03-02T12:21:24Z</time>
      </trkpt>
      <trkpt lat="45.17585" lon="5.95213">
        <ele>2249.6</ele>
        <time>2013-03-02T12:21:52Z</time>
      </trkpt>
      <trkpt lat="45.17585" lon="5.95212">
        <ele>2249.5</ele>
        <time>2013-03-02T12:21:53Z</time>
      </trkpt>
      <trkpt lat="45.17573" lon="5.95194">
        <ele>2255.1</ele>
        <time>2013-03-02T12:22:26Z</time>
      </trkpt>
      <trkpt lat="45.17567" lon="5.95185">
        <ele>2256.1</ele>
        <time>2013-03-02T12:22:53Z</time>
      </trkpt>
      <trkpt lat="45.17566" lon="5.95185">
        <ele>2256</ele>
        <time>2013-03-02T12:22:54Z</time>
      </trkpt>
      <trkpt lat="45.1755" lon="5.95177">
        <ele>2261.4</ele>
        <time>2013-03-02T12:23:28Z</time>
      </trkpt>
      <trkpt lat="45.17545" lon="5.95168">
        <ele>2265.4</ele>
        <time>2013-03-02T12:23:59Z</time>
      </trkpt>
      <trkpt lat="45.17544" lon="5.95167">
        <ele>2265</ele>
        <time>2013-03-02T12:24:00Z</time>
      </trkpt>
      <trkpt lat="45.17529" lon="5.95159">
        <ele>2271.7</ele>
        <time>2013-03-02T12:24:29Z</time>
      </trkpt>
      <trkpt lat="45.1752" lon="5.95158">
        <ele>2272.4</ele>
        <time>2013-03-02T12:24:56Z</time>
      </trkpt>
      <trkpt lat="45.17513" lon="5.95165">
        <ele>2274.3</ele>
        <time>2013-03-02T12:25:04Z</time>
      </trkpt>
      <trkpt lat="45.17513" lon="5.95165">
        <ele>2274.7</ele>
        <time>2013-03-02T12:25:05Z</time>
      </trkpt>
      <trkpt lat="45.17502" lon="5.95182">
        <ele>2277.9</ele>
        <time>2013-03-02T12:25:27Z</time>
      </trkpt>
      <trkpt lat="45.17498" lon="5.95193">
        <ele>2279.5</ele>
        <time>2013-03-02T12:25:38Z</time>
      </trkpt>
      <trkpt lat="45.17495" lon="5.95205">
        <ele>2283</ele>
        <time>2013-03-02T12:25:52Z</time>
      </trkpt>
      <trkpt lat="45.17491" lon="5.95214">
        <ele>2284.1</ele>
        <time>2013-03-02T12:26:03Z</time>
      </trkpt>
      <trkpt lat="45.17485" lon="5.95224">
        <ele>2287.3</ele>
        <time>2013-03-02T12:26:17Z</time>
      </trkpt>
      <trkpt lat="45.17484" lon="5.95224">
        <ele>2287.3</ele>
        <time>2013-03-02T12:26:18Z</time>
      </trkpt>
      <trkpt lat="45.17478" lon="5.95202">
        <ele>2290.9</ele>
        <time>2013-03-02T12:27:14Z</time>
      </trkpt>
      <trkpt lat="45.17477" lon="5.9519">
        <ele>2293.9</ele>
        <time>2013-03-02T12:27:27Z</time>
      </trkpt>
      <trkpt lat="45.17477" lon="5.95189">
        <ele>2294.2</ele>
        <time>2013-03-02T12:27:28Z</time>
      </trkpt>
      <trkpt lat="45.1747" lon="5.95167">
        <ele>2299.4</ele>
        <time>2013-03-02T12:28:05Z</time>
      </trkpt>
      <trkpt lat="45.17469" lon="5.95154">
        <ele>2301.2</ele>
        <time>2013-03-02T12:28:19Z</time>
      </trkpt>
      <trkpt lat="45.17464" lon="5.95144">
        <ele>2302.6</ele>
        <time>2013-03-02T12:28:59Z</time>
      </trkpt>
      <trkpt lat="45.17464" lon="5.95144">
        <ele>2302.7</ele>
        <time>2013-03-02T12:29:00Z</time>
      </trkpt>
      <trkpt lat="45.17454" lon="5.95125">
        <ele>2307</ele>
        <time>2013-03-02T12:29:23Z</time>
      </trkpt>
      <trkpt lat="45.17448" lon="5.95117">
        <ele>2309.7</ele>
        <time>2013-03-02T12:29:33Z</time>
      </trkpt>
      <trkpt lat="45.17443" lon="5.95106">
        <ele>2312.1</ele>
        <time>2013-03-02T12:29:44Z</time>
      </trkpt>
      <trkpt lat="45.17438" lon="5.95097">
        <ele>2313.2</ele>
        <time>2013-03-02T12:29:55Z</time>
      </trkpt>
      <trkpt lat="45.17434" lon="5.95086">
        <ele>2315.7</ele>
        <time>2013-03-02T12:30:06Z</time>
      </trkpt>
      <trkpt lat="45.17434" lon="5.95085">
        <ele>2315.9</ele>
        <time>2013-03-02T12:30:07Z</time>
      </trkpt>
      <trkpt lat="45.17427" lon="5.95064">
        <ele>2316.9</ele>
        <time>2013-03-02T12:30:31Z</time>
      </trkpt>
      <trkpt lat="45.17418" lon="5.95062">
        <ele>2316.7</ele>
        <time>2013-03-02T12:30:43Z</time>
      </trkpt>
      <trkpt lat="45.17411" lon="5.95057">
        <ele>2316.7</ele>
        <time>2013-03-02T12:30:51Z</time>
      </trkpt>
      <trkpt lat="45.17418" lon="5.9505">
        <ele>2318.5</ele>
        <time>2013-03-02T12:31:04Z</time>
      </trkpt>
      <trkpt lat="45.17422" lon="5.95039">
        <ele>2318.1</ele>
        <time>2013-03-02T12:31:13Z</time>
      </trkpt>
      <trkpt lat="45.17422" lon="5.95038">
        <ele>2318.1</ele>
        <time>2013-03-02T12:31:14Z</time>
      </trkpt>
      <trkpt lat="45.17431" lon="5.95019">
        <ele>2320.5</ele>
        <time>2013-03-02T12:31:36Z</time>
      </trkpt>
      <trkpt lat="45.17435" lon="5.95007">
        <ele>2322.3</ele>
        <time>2013-03-02T12:32:07Z</time>
      </trkpt>
      <trkpt lat="45.17435" lon="5.94995">
        <ele>2323.5</ele>
        <time>2013-03-02T12:32:23Z</time>
      </trkpt>
      <trkpt lat="45.17435" lon="5.94994">
        <ele>2323.7</ele>
        <time>2013-03-02T12:32:24Z</time>
      </trkpt>
      <trkpt lat="45.17428" lon="5.94974">
        <ele>2326.8</ele>
        <time>2013-03-02T12:33:08Z</time>
      </trkpt>
      <trkpt lat="45.17426" lon="5.94962">
        <ele>2329.5</ele>
        <time>2013-03-02T12:33:23Z</time>
      </trkpt>
      <trkpt lat="45.17424" lon="5.9495">
        <ele>2331.6</ele>
        <time>2013-03-02T12:33:34Z</time>
      </trkpt>
      <trkpt lat="45.17424" lon="5.94949">
        <ele>2332</ele>
        <time>2013-03-02T12:33:35Z</time>
      </trkpt>
      <trkpt lat="45.17419" lon="5.94927">
        <ele>2336.3</ele>
        <time>2013-03-02T12:34:09Z</time>
      </trkpt>
      <trkpt lat="45.17414" lon="5.94916">
        <ele>2337.3</ele>
        <time>2013-03-02T12:34:24Z</time>
      </trkpt>
      <trkpt lat="45.1741" lon="5.94905">
        <ele>2340.6</ele>
        <time>2013-03-02T12:34:45Z</time>
      </trkpt>
      <trkpt lat="45.1741" lon="5.94905">
        <ele>2340.7</ele>
        <time>2013-03-02T12:34:46Z</time>
      </trkpt>
      <trkpt lat="45.17398" lon="5.9489">
        <ele>2345</ele>
        <time>2013-03-02T12:35:23Z</time>
      </trkpt>
      <trkpt lat="45.17395" lon="5.94877">
        <ele>2347.5</ele>
        <time>2013-03-02T12:35:50Z</time>
      </trkpt>
      <trkpt lat="45.17395" lon="5.94877">
        <ele>2347.1</ele>
        <time>2013-03-02T12:35:51Z</time>
      </trkpt>
      <trkpt lat="45.17381" lon="5.94891">
        <ele>2351.4</ele>
        <time>2013-03-02T12:36:19Z</time>
      </trkpt>
      <trkpt lat="45.17373" lon="5.94887">
        <ele>2353.9</ele>
        <time>2013-03-02T12:36:45Z</time>
      </trkpt>
      <trkpt lat="45.17374" lon="5.94874">
        <ele>2355.5</ele>
        <time>2013-03-02T12:36:57Z</time>
      </trkpt>
      <trkpt lat="45.17374" lon="5.94873">
        <ele>2355.6</ele>
        <time>2013-03-02T12:36:58Z</time>
      </trkpt>
      <trkpt lat="45.17375" lon="5.94849">
        <ele>2358.9</ele>
        <time>2013-03-02T12:37:42Z</time>
      </trkpt>
      <trkpt lat="45.17372" lon="5.94838">
        <ele>2363.3</ele>
        <time>2013-03-02T12:37:58Z</time>
      </trkpt>
      <trkpt lat="45.17372" lon="5.94837">
        <ele>2363.6</ele>
        <time>2013-03-02T12:37:59Z</time>
      </trkpt>
      <trkpt lat="45.17376" lon="5.94813">
        <ele>2367.6</ele>
        <time>2013-03-02T12:38:37Z</time>
      </trkpt>
      <trkpt lat="45.17381" lon="5.94803">
        <ele>2369.7</ele>
        <time>2013-03-02T12:38:49Z</time>
      </trkpt>
      <trkpt lat="45.17389" lon="5.94798">
        <ele>2372.2</ele>
        <time>2013-03-02T12:39:19Z</time>
      </trkpt>
      <trkpt lat="45.17389" lon="5.94797">
        <ele>2372.9</ele>
        <time>2013-03-02T12:39:20Z</time>
      </trkpt>
      <trkpt lat="45.17397" lon="5.94778">
        <ele>2376.1</ele>
        <time>2013-03-02T12:42:34Z</time>
      </trkpt>
      <trkpt lat="45.17397" lon="5.94777">
        <ele>2376</ele>
        <time>2013-03-02T12:42:35Z</time>
      </trkpt>
      <trkpt lat="45.17385" lon="5.94793">
        <ele>2378.2</ele>
        <time>2013-03-02T12:43:58Z</time>
      </trkpt>
      <trkpt lat="45.17385" lon="5.94793">
        <ele>2377.7</ele>
        <time>2013-03-02T12:43:59Z</time>
      </trkpt>
      <trkpt lat="45.17401" lon="5.94783">
        <ele>2378.1</ele>
        <time>2013-03-02T12:45:35Z</time>
      </trkpt>
      <trkpt lat="45.17401" lon="5.94783">
        <ele>2377.6</ele>
        <time>2013-03-02T12:45:36Z</time>
      </trkpt>
      <trkpt lat="45.17409" lon="5.94788">
        <ele>2379.6</ele>
        <time>2013-03-02T12:50:28Z</time>
      </trkpt>
      <trkpt lat="45.17388" lon="5.94791">
        <ele>2380.1</ele>
        <time>2013-03-02T12:51:13Z</time>
      </trkpt>
      <trkpt lat="45.17394" lon="5.94782">
        <ele>2381.8</ele>
        <time>2013-03-02T12:51:45Z</time>
      </trkpt>
      <trkpt lat="45.17395" lon="5.94782">
        <ele>2381.4</ele>
        <time>2013-03-02T12:51:46Z</time>
      </trkpt>
      <trkpt lat="45.17392" lon="5.94767">
        <ele>2375.7</ele>
        <time>2013-03-02T12:52:34Z</time>
      </trkpt>
      <trkpt lat="45.17386" lon="5.94773">
        <ele>2373.9</ele>
        <time>2013-03-02T12:52:37Z</time>
      </trkpt>
      <trkpt lat="45.17378" lon="5.94778">
        <ele>2372</ele>
        <time>2013-03-02T12:52:39Z</time>
      </trkpt>
      <trkpt lat="45.17374" lon="5.94781">
        <ele>2370.9</ele>
        <time>2013-03-02T12:52:40Z</time>
      </trkpt>
      <trkpt lat="45.17369" lon="5.94782">
        <ele>2369.5</ele>
        <time>2013-03-02T12:52:41Z</time>
      </trkpt>
      <trkpt lat="45.17364" lon="5.94783">
        <ele>2368.5</ele>
        <time>2013-03-02T12:52:42Z</time>
      </trkpt>
      <trkpt lat="45.17359" lon="5.94783">
        <ele>2367.1</ele>
        <time>2013-03-02T12:52:43Z</time>
      </trkpt>
      <trkpt lat="45.17351" lon="5.94784">
        <ele>2365.3</ele>
        <time>2013-03-02T12:52:45Z</time>
      </trkpt>
      <trkpt lat="45.17342" lon="5.94783">
        <ele>2363.9</ele>
        <time>2013-03-02T12:52:48Z</time>
      </trkpt>
      <trkpt lat="45.17339" lon="5.94783">
        <ele>2363.3</ele>
        <time>2013-03-02T12:52:49Z</time>
      </trkpt>
      <trkpt lat="45.17326" lon="5.94778">
        <ele>2361.8</ele>
        <time>2013-03-02T12:52:53Z</time>
      </trkpt>
      <trkpt lat="45.17319" lon="5.94785">
        <ele>2360.3</ele>
        <time>2013-03-02T12:53:05Z</time>
      </trkpt>
      <trkpt lat="45.17313" lon="5.94781">
        <ele>2359.6</ele>
        <time>2013-03-02T12:53:32Z</time>
      </trkpt>
      <trkpt lat="45.17306" lon="5.94773">
        <ele>2356.8</ele>
        <time>2013-03-02T12:53:37Z</time>
      </trkpt>
      <trkpt lat="45.17301" lon="5.94765">
        <ele>2352.3</ele>
        <time>2013-03-02T12:53:46Z</time>
      </trkpt>
      <trkpt lat="45.17294" lon="5.94759">
        <ele>2351</ele>
        <time>2013-03-02T12:53:50Z</time>
      </trkpt>
      <trkpt lat="45.17291" lon="5.94757">
        <ele>2350.6</ele>
        <time>2013-03-02T12:53:51Z</time>
      </trkpt>
      <trkpt lat="45.17279" lon="5.94747">
        <ele>2347.8</ele>
        <time>2013-03-02T12:53:57Z</time>
      </trkpt>
      <trkpt lat="45.17274" lon="5.9474">
        <ele>2347.2</ele>
        <time>2013-03-02T12:54:00Z</time>
      </trkpt>
      <trkpt lat="45.17276" lon="5.94728">
        <ele>2342.5</ele>
        <time>2013-03-02T12:54:04Z</time>
      </trkpt>
      <trkpt lat="45.17279" lon="5.94717">
        <ele>2336</ele>
        <time>2013-03-02T12:54:09Z</time>
      </trkpt>
      <trkpt lat="45.17274" lon="5.94711">
        <ele>2332.7</ele>
        <time>2013-03-02T12:54:11Z</time>
      </trkpt>
      <trkpt lat="45.17269" lon="5.94704">
        <ele>2330.2</ele>
        <time>2013-03-02T12:54:13Z</time>
      </trkpt>
      <trkpt lat="45.17272" lon="5.94693">
        <ele>2326.2</ele>
        <time>2013-03-02T12:54:16Z</time>
      </trkpt>
      <trkpt lat="45.17275" lon="5.94682">
        <ele>2318.9</ele>
        <time>2013-03-02T12:54:21Z</time>
      </trkpt>
      <trkpt lat="45.17269" lon="5.94673">
        <ele>2314.6</ele>
        <time>2013-03-02T12:54:24Z</time>
      </trkpt>
      <trkpt lat="45.1726" lon="5.94677">
        <ele>2308.4</ele>
        <time>2013-03-02T12:54:56Z</time>
      </trkpt>
      <trkpt lat="45.1726" lon="5.94677">
        <ele>2308.3</ele>
        <time>2013-03-02T12:54:57Z</time>
      </trkpt>
      <trkpt lat="45.17257" lon="5.94659">
        <ele>2306.6</ele>
        <time>2013-03-02T12:55:10Z</time>
      </trkpt>
      <trkpt lat="45.17251" lon="5.94652">
        <ele>2303.6</ele>
        <time>2013-03-02T12:55:12Z</time>
      </trkpt>
      <trkpt lat="45.17251" lon="5.9464">
        <ele>2300.9</ele>
        <time>2013-03-02T12:55:14Z</time>
      </trkpt>
      <trkpt lat="45.1725" lon="5.94632">
        <ele>2298.1</ele>
        <time>2013-03-02T12:55:16Z</time>
      </trkpt>
      <trkpt lat="45.17254" lon="5.94624">
        <ele>2295.4</ele>
        <time>2013-03-02T12:55:18Z</time>
      </trkpt>
      <trkpt lat="45.17252" lon="5.94615">
        <ele>2292.3</ele>
        <time>2013-03-02T12:55:20Z</time>
      </trkpt>
      <trkpt lat="45.17256" lon="5.94606">
        <ele>2288.9</ele>
        <time>2013-03-02T12:55:23Z</time>
      </trkpt>
      <trkpt lat="45.17258" lon="5.94594">
        <ele>2284.7</ele>
        <time>2013-03-02T12:55:26Z</time>
      </trkpt>
      <trkpt lat="45.1726" lon="5.94583">
        <ele>2280.9</ele>
        <time>2013-03-02T12:55:29Z</time>
      </trkpt>
      <trkpt lat="45.17262" lon="5.94574">
        <ele>2278.1</ele>
        <time>2013-03-02T12:55:31Z</time>
      </trkpt>
      <trkpt lat="45.17268" lon="5.94567">
        <ele>2275.9</ele>
        <time>2013-03-02T12:55:33Z</time>
      </trkpt>
      <trkpt lat="45.1727" lon="5.94555">
        <ele>2269.3</ele>
        <time>2013-03-02T12:55:40Z</time>
      </trkpt>
      <trkpt lat="45.1727" lon="5.94567">
        <ele>2267</ele>
        <time>2013-03-02T12:56:28Z</time>
      </trkpt>
      <trkpt lat="45.17269" lon="5.94568">
        <ele>2266.9</ele>
        <time>2013-03-02T12:56:29Z</time>
      </trkpt>
      <trkpt lat="45.1727" lon="5.94546">
        <ele>2264.4</ele>
        <time>2013-03-02T12:56:53Z</time>
      </trkpt>
      <trkpt lat="45.17269" lon="5.9454">
        <ele>2263.7</ele>
        <time>2013-03-02T12:56:54Z</time>
      </trkpt>
      <trkpt lat="45.17268" lon="5.94533">
        <ele>2262.7</ele>
        <time>2013-03-02T12:56:55Z</time>
      </trkpt>
      <trkpt lat="45.17273" lon="5.94523">
        <ele>2260.2</ele>
        <time>2013-03-02T12:56:57Z</time>
      </trkpt>
      <trkpt lat="45.17275" lon="5.94514">
        <ele>2257.7</ele>
        <time>2013-03-02T12:56:59Z</time>
      </trkpt>
      <trkpt lat="45.17277" lon="5.94504">
        <ele>2254.9</ele>
        <time>2013-03-02T12:57:01Z</time>
      </trkpt>
      <trkpt lat="45.17283" lon="5.94497">
        <ele>2251.7</ele>
        <time>2013-03-02T12:57:03Z</time>
      </trkpt>
      <trkpt lat="45.17289" lon="5.94489">
        <ele>2248.2</ele>
        <time>2013-03-02T12:57:05Z</time>
      </trkpt>
      <trkpt lat="45.17298" lon="5.94489">
        <ele>2244.7</ele>
        <time>2013-03-02T12:57:07Z</time>
      </trkpt>
      <trkpt lat="45.17301" lon="5.94481">
        <ele>2240.3</ele>
        <time>2013-03-02T12:57:09Z</time>
      </trkpt>
      <trkpt lat="45.17308" lon="5.94479">
        <ele>2236.2</ele>
        <time>2013-03-02T12:57:11Z</time>
      </trkpt>
      <trkpt lat="45.17311" lon="5.94471">
        <ele>2232.3</ele>
        <time>2013-03-02T12:57:13Z</time>
      </trkpt>
      <trkpt lat="45.17319" lon="5.94465">
        <ele>2228.4</ele>
        <time>2013-03-02T12:57:15Z</time>
      </trkpt>
      <trkpt lat="45.17322" lon="5.9446">
        <ele>2226.5</ele>
        <time>2013-03-02T12:57:16Z</time>
      </trkpt>
      <trkpt lat="45.17324" lon="5.94454">
        <ele>2225.1</ele>
        <time>2013-03-02T12:57:17Z</time>
      </trkpt>
      <trkpt lat="45.17325" lon="5.94448">
        <ele>2224</ele>
        <time>2013-03-02T12:57:18Z</time>
      </trkpt>
      <trkpt lat="45.17328" lon="5.94441">
        <ele>2222.1</ele>
        <time>2013-03-02T12:57:19Z</time>
      </trkpt>
      <trkpt lat="45.17333" lon="5.94438">
        <ele>2220.7</ele>
        <time>2013-03-02T12:57:20Z</time>
      </trkpt>
      <trkpt lat="45.17339" lon="5.94432">
        <ele>2218.5</ele>
        <time>2013-03-02T12:57:22Z</time>
      </trkpt>
      <trkpt lat="45.17343" lon="5.94423">
        <ele>2215.8</ele>
        <time>2013-03-02T12:57:24Z</time>
      </trkpt>
      <trkpt lat="45.1735" lon="5.94416">
        <ele>2213.3</ele>
        <time>2013-03-02T12:57:26Z</time>
      </trkpt>
      <trkpt lat="45.17353" lon="5.94404">
        <ele>2211.3</ele>
        <time>2013-03-02T12:57:28Z</time>
      </trkpt>
      <trkpt lat="45.17359" lon="5.94399">
        <ele>2209.7</ele>
        <time>2013-03-02T12:57:30Z</time>
      </trkpt>
      <trkpt lat="45.17364" lon="5.94396">
        <ele>2208.3</ele>
        <time>2013-03-02T12:57:31Z</time>
      </trkpt>
      <trkpt lat="45.17366" lon="5.94389">
        <ele>2207.3</ele>
        <time>2013-03-02T12:57:32Z</time>
      </trkpt>
      <trkpt lat="45.17367" lon="5.94382">
        <ele>2205.4</ele>
        <time>2013-03-02T12:57:33Z</time>
      </trkpt>
      <trkpt lat="45.1737" lon="5.94377">
        <ele>2203.9</ele>
        <time>2013-03-02T12:57:34Z</time>
      </trkpt>
      <trkpt lat="45.17375" lon="5.94374">
        <ele>2202.6</ele>
        <time>2013-03-02T12:57:35Z</time>
      </trkpt>
      <trkpt lat="45.17376" lon="5.94368">
        <ele>2201.5</ele>
        <time>2013-03-02T12:57:36Z</time>
      </trkpt>
      <trkpt lat="45.17377" lon="5.94361">
        <ele>2200.7</ele>
        <time>2013-03-02T12:57:37Z</time>
      </trkpt>
      <trkpt lat="45.17377" lon="5.94352">
        <ele>2199</ele>
        <time>2013-03-02T12:57:38Z</time>
      </trkpt>
      <trkpt lat="45.17379" lon="5.94344">
        <ele>2197.8</ele>
        <time>2013-03-02T12:57:39Z</time>
      </trkpt>
      <trkpt lat="45.17385" lon="5.94338">
        <ele>2195.7</ele>
        <time>2013-03-02T12:57:41Z</time>
      </trkpt>
      <trkpt lat="45.17391" lon="5.94329">
        <ele>2192.9</ele>
        <time>2013-03-02T12:57:52Z</time>
      </trkpt>
      <trkpt lat="45.17395" lon="5.94319">
        <ele>2193.5</ele>
        <time>2013-03-02T12:58:09Z</time>
      </trkpt>
      <trkpt lat="45.17389" lon="5.94311">
        <ele>2191.8</ele>
        <time>2013-03-02T12:58:13Z</time>
      </trkpt>
      <trkpt lat="45.17384" lon="5.94305">
        <ele>2191.1</ele>
        <time>2013-03-02T12:58:15Z</time>
      </trkpt>
      <trkpt lat="45.17377" lon="5.94297">
        <ele>2189</ele>
        <time>2013-03-02T12:58:17Z</time>
      </trkpt>
      <trkpt lat="45.17373" lon="5.94291">
        <ele>2188.4</ele>
        <time>2013-03-02T12:58:18Z</time>
      </trkpt>
      <trkpt lat="45.17369" lon="5.94284">
        <ele>2187.9</ele>
        <time>2013-03-02T12:58:19Z</time>
      </trkpt>
      <trkpt lat="45.17364" lon="5.94277">
        <ele>2186.6</ele>
        <time>2013-03-02T12:58:20Z</time>
      </trkpt>
      <trkpt lat="45.17361" lon="5.94269">
        <ele>2185.6</ele>
        <time>2013-03-02T12:58:21Z</time>
      </trkpt>
      <trkpt lat="45.17358" lon="5.9426">
        <ele>2184.8</ele>
        <time>2013-03-02T12:58:22Z</time>
      </trkpt>
      <trkpt lat="45.17357" lon="5.94251">
        <ele>2183.3</ele>
        <time>2013-03-02T12:58:23Z</time>
      </trkpt>
      <trkpt lat="45.17355" lon="5.94243">
        <ele>2182.1</ele>
        <time>2013-03-02T12:58:24Z</time>
      </trkpt>
      <trkpt lat="45.17354" lon="5.94236">
        <ele>2181.5</ele>
        <time>2013-03-02T12:58:25Z</time>
      </trkpt>
      <trkpt lat="45.17353" lon="5.94228">
        <ele>2181.1</ele>
        <time>2013-03-02T12:58:26Z</time>
      </trkpt>
      <trkpt lat="45.17352" lon="5.94221">
        <ele>2180.7</ele>
        <time>2013-03-02T12:58:27Z</time>
      </trkpt>
      <trkpt lat="45.17355" lon="5.9421">
        <ele>2178.6</ele>
        <time>2013-03-02T12:58:30Z</time>
      </trkpt>
      <trkpt lat="45.17361" lon="5.942">
        <ele>2172.2</ele>
        <time>2013-03-02T12:58:35Z</time>
      </trkpt>
      <trkpt lat="45.17362" lon="5.94196">
        <ele>2171.9</ele>
        <time>2013-03-02T12:58:36Z</time>
      </trkpt>
      <trkpt lat="45.17364" lon="5.94179">
        <ele>2163</ele>
        <time>2013-03-02T12:58:41Z</time>
      </trkpt>
      <trkpt lat="45.17368" lon="5.94169">
        <ele>2158.7</ele>
        <time>2013-03-02T12:58:44Z</time>
      </trkpt>
      <trkpt lat="45.17368" lon="5.94159">
        <ele>2156</ele>
        <time>2013-03-02T12:58:46Z</time>
      </trkpt>
      <trkpt lat="45.17367" lon="5.94153">
        <ele>2153.9</ele>
        <time>2013-03-02T12:58:47Z</time>
      </trkpt>
      <trkpt lat="45.17365" lon="5.94141">
        <ele>2150.7</ele>
        <time>2013-03-02T12:58:49Z</time>
      </trkpt>
      <trkpt lat="45.17363" lon="5.94132">
        <ele>2148.7</ele>
        <time>2013-03-02T12:58:51Z</time>
      </trkpt>
      <trkpt lat="45.17361" lon="5.94122">
        <ele>2147.9</ele>
        <time>2013-03-02T12:58:54Z</time>
      </trkpt>
      <trkpt lat="45.1736" lon="5.9411">
        <ele>2146.4</ele>
        <time>2013-03-02T12:59:02Z</time>
      </trkpt>
      <trkpt lat="45.17359" lon="5.94097">
        <ele>2145.5</ele>
        <time>2013-03-02T12:59:45Z</time>
      </trkpt>
      <trkpt lat="45.17359" lon="5.94097">
        <ele>2145.4</ele>
        <time>2013-03-02T12:59:46Z</time>
      </trkpt>
      <trkpt lat="45.17349" lon="5.94081">
        <ele>2143.3</ele>
        <time>2013-03-02T13:00:26Z</time>
      </trkpt>
      <trkpt lat="45.17345" lon="5.94073">
        <ele>2142.4</ele>
        <time>2013-03-02T13:00:29Z</time>
      </trkpt>
      <trkpt lat="45.17341" lon="5.94065">
        <ele>2141.8</ele>
        <time>2013-03-02T13:00:32Z</time>
      </trkpt>
      <trkpt lat="45.17337" lon="5.94056">
        <ele>2140.6</ele>
        <time>2013-03-02T13:00:34Z</time>
      </trkpt>
      <trkpt lat="45.17333" lon="5.94046">
        <ele>2139.7</ele>
        <time>2013-03-02T13:00:36Z</time>
      </trkpt>
      <trkpt lat="45.17329" lon="5.94038">
        <ele>2138.7</ele>
        <time>2013-03-02T13:00:38Z</time>
      </trkpt>
      <trkpt lat="45.17324" lon="5.94028">
        <ele>2137.3</ele>
        <time>2013-03-02T13:00:42Z</time>
      </trkpt>
      <trkpt lat="45.1732" lon="5.94018">
        <ele>2134.9</ele>
        <time>2013-03-02T13:00:47Z</time>
      </trkpt>
      <trkpt lat="45.1732" lon="5.94016">
        <ele>2133</ele>
        <time>2013-03-02T13:00:48Z</time>
      </trkpt>
      <trkpt lat="45.17314" lon="5.93999">
        <ele>2121.8</ele>
        <time>2013-03-02T13:00:54Z</time>
      </trkpt>
      <trkpt lat="45.17311" lon="5.93995">
        <ele>2119.4</ele>
        <time>2013-03-02T13:00:55Z</time>
      </trkpt>
      <trkpt lat="45.17305" lon="5.93987">
        <ele>2116.5</ele>
        <time>2013-03-02T13:00:57Z</time>
      </trkpt>
      <trkpt lat="45.173" lon="5.93977">
        <ele>2114.9</ele>
        <time>2013-03-02T13:00:59Z</time>
      </trkpt>
      <trkpt lat="45.17298" lon="5.93972">
        <ele>2113.6</ele>
        <time>2013-03-02T13:01:00Z</time>
      </trkpt>
      <trkpt lat="45.17296" lon="5.93966">
        <ele>2112.6</ele>
        <time>2013-03-02T13:01:01Z</time>
      </trkpt>
      <trkpt lat="45.17293" lon="5.93961">
        <ele>2111.8</ele>
        <time>2013-03-02T13:01:02Z</time>
      </trkpt>
      <trkpt lat="45.1729" lon="5.93956">
        <ele>2111.3</ele>
        <time>2013-03-02T13:01:03Z</time>
      </trkpt>
      <trkpt lat="45.17287" lon="5.9395">
        <ele>2109.5</ele>
        <time>2013-03-02T13:01:04Z</time>
      </trkpt>
      <trkpt lat="45.17285" lon="5.93945">
        <ele>2108.2</ele>
        <time>2013-03-02T13:01:05Z</time>
      </trkpt>
      <trkpt lat="45.17281" lon="5.9394">
        <ele>2107.2</ele>
        <time>2013-03-02T13:01:06Z</time>
      </trkpt>
      <trkpt lat="45.17278" lon="5.93934">
        <ele>2105.6</ele>
        <time>2013-03-02T13:01:07Z</time>
      </trkpt>
      <trkpt lat="45.17275" lon="5.93926">
        <ele>2104.4</ele>
        <time>2013-03-02T13:01:08Z</time>
      </trkpt>
      <trkpt lat="45.1727" lon="5.93919">
        <ele>2102.7</ele>
        <time>2013-03-02T13:01:09Z</time>
      </trkpt>
      <trkpt lat="45.17266" lon="5.93914">
        <ele>2101.5</ele>
        <time>2013-03-02T13:01:10Z</time>
      </trkpt>
      <trkpt lat="45.17263" lon="5.93908">
        <ele>2100.6</ele>
        <time>2013-03-02T13:01:11Z</time>
      </trkpt>
      <trkpt lat="45.17259" lon="5.93903">
        <ele>2099.9</ele>
        <time>2013-03-02T13:01:12Z</time>
      </trkpt>
      <trkpt lat="45.17256" lon="5.93897">
        <ele>2099.4</ele>
        <time>2013-03-02T13:01:13Z</time>
      </trkpt>
      <trkpt lat="45.17249" lon="5.93889">
        <ele>2097</ele>
        <time>2013-03-02T13:01:15Z</time>
      </trkpt>
      <trkpt lat="45.17242" lon="5.93882">
        <ele>2093.5</ele>
        <time>2013-03-02T13:01:20Z</time>
      </trkpt>
      <trkpt lat="45.17236" lon="5.93874">
        <ele>2093.5</ele>
        <time>2013-03-02T13:01:32Z</time>
      </trkpt>
      <trkpt lat="45.17238" lon="5.93863">
        <ele>2090</ele>
        <time>2013-03-02T13:01:42Z</time>
      </trkpt>
      <trkpt lat="45.17241" lon="5.93853">
        <ele>2086.6</ele>
        <time>2013-03-02T13:01:45Z</time>
      </trkpt>
      <trkpt lat="45.17235" lon="5.93848">
        <ele>2083.4</ele>
        <time>2013-03-02T13:01:48Z</time>
      </trkpt>
      <trkpt lat="45.17233" lon="5.93846">
        <ele>2082.5</ele>
        <time>2013-03-02T13:01:49Z</time>
      </trkpt>
      <trkpt lat="45.17219" lon="5.93843">
        <ele>2078.7</ele>
        <time>2013-03-02T13:02:07Z</time>
      </trkpt>
      <trkpt lat="45.17215" lon="5.93831">
        <ele>2077.7</ele>
        <time>2013-03-02T13:02:47Z</time>
      </trkpt>
      <trkpt lat="45.17217" lon="5.9382">
        <ele>2075.9</ele>
        <time>2013-03-02T13:02:50Z</time>
      </trkpt>
      <trkpt lat="45.17215" lon="5.93818">
        <ele>2074.5</ele>
        <time>2013-03-02T13:02:51Z</time>
      </trkpt>
      <trkpt lat="45.17204" lon="5.93806">
        <ele>2069.3</ele>
        <time>2013-03-02T13:03:09Z</time>
      </trkpt>
      <trkpt lat="45.17209" lon="5.93798">
        <ele>2066.3</ele>
        <time>2013-03-02T13:03:12Z</time>
      </trkpt>
      <trkpt lat="45.17202" lon="5.93792">
        <ele>2058.7</ele>
        <time>2013-03-02T13:03:20Z</time>
      </trkpt>
      <trkpt lat="45.17194" lon="5.93794">
        <ele>2054.7</ele>
        <time>2013-03-02T13:03:26Z</time>
      </trkpt>
      <trkpt lat="45.1719" lon="5.93786">
        <ele>2051.6</ele>
        <time>2013-03-02T13:03:35Z</time>
      </trkpt>
      <trkpt lat="45.17184" lon="5.93779">
        <ele>2050</ele>
        <time>2013-03-02T13:03:39Z</time>
      </trkpt>
      <trkpt lat="45.17183" lon="5.9377">
        <ele>2046.2</ele>
        <time>2013-03-02T13:03:42Z</time>
      </trkpt>
      <trkpt lat="45.17188" lon="5.9376">
        <ele>2042.4</ele>
        <time>2013-03-02T13:03:45Z</time>
      </trkpt>
      <trkpt lat="45.17182" lon="5.93756">
        <ele>2036.7</ele>
        <time>2013-03-02T13:03:50Z</time>
      </trkpt>
      <trkpt lat="45.17182" lon="5.93744">
        <ele>2032.8</ele>
        <time>2013-03-02T13:03:55Z</time>
      </trkpt>
      <trkpt lat="45.17183" lon="5.93743">
        <ele>2032.2</ele>
        <time>2013-03-02T13:03:56Z</time>
      </trkpt>
      <trkpt lat="45.17183" lon="5.93744">
        <ele>2025.1</ele>
        <time>2013-03-02T13:04:29Z</time>
      </trkpt>
      <trkpt lat="45.17176" lon="5.93746">
        <ele>2023</ele>
        <time>2013-03-02T13:04:32Z</time>
      </trkpt>
      <trkpt lat="45.17171" lon="5.93735">
        <ele>2021.3</ele>
        <time>2013-03-02T13:04:35Z</time>
      </trkpt>
      <trkpt lat="45.17178" lon="5.93732">
        <ele>2018.6</ele>
        <time>2013-03-02T13:04:39Z</time>
      </trkpt>
      <trkpt lat="45.17186" lon="5.93731">
        <ele>2015</ele>
        <time>2013-03-02T13:04:42Z</time>
      </trkpt>
      <trkpt lat="45.17194" lon="5.93729">
        <ele>2012.4</ele>
        <time>2013-03-02T13:04:45Z</time>
      </trkpt>
      <trkpt lat="45.17201" lon="5.93729">
        <ele>2010.6</ele>
        <time>2013-03-02T13:04:47Z</time>
      </trkpt>
      <trkpt lat="45.17207" lon="5.93722">
        <ele>2005.9</ele>
        <time>2013-03-02T13:04:52Z</time>
      </trkpt>
      <trkpt lat="45.17214" lon="5.93719">
        <ele>2001.5</ele>
        <time>2013-03-02T13:04:55Z</time>
      </trkpt>
      <trkpt lat="45.17219" lon="5.93717">
        <ele>1999.1</ele>
        <time>2013-03-02T13:04:57Z</time>
      </trkpt>
      <trkpt lat="45.17223" lon="5.93716">
        <ele>1997.8</ele>
        <time>2013-03-02T13:04:58Z</time>
      </trkpt>
      <trkpt lat="45.17228" lon="5.93713">
        <ele>1996.4</ele>
        <time>2013-03-02T13:04:59Z</time>
      </trkpt>
      <trkpt lat="45.17233" lon="5.93708">
        <ele>1995.4</ele>
        <time>2013-03-02T13:05:00Z</time>
      </trkpt>
      <trkpt lat="45.17238" lon="5.93704">
        <ele>1994.6</ele>
        <time>2013-03-02T13:05:01Z</time>
      </trkpt>
      <trkpt lat="45.17246" lon="5.93698">
        <ele>1992.8</ele>
        <time>2013-03-02T13:05:03Z</time>
      </trkpt>
      <trkpt lat="45.17252" lon="5.93692">
        <ele>1990.2</ele>
        <time>2013-03-02T13:05:05Z</time>
      </trkpt>
      <trkpt lat="45.1726" lon="5.93688">
        <ele>1988.3</ele>
        <time>2013-03-02T13:05:07Z</time>
      </trkpt>
      <trkpt lat="45.17265" lon="5.93686">
        <ele>1987.4</ele>
        <time>2013-03-02T13:05:08Z</time>
      </trkpt>
      <trkpt lat="45.1727" lon="5.93684">
        <ele>1986.6</ele>
        <time>2013-03-02T13:05:09Z</time>
      </trkpt>
      <trkpt lat="45.17275" lon="5.93682">
        <ele>1986</ele>
        <time>2013-03-02T13:05:10Z</time>
      </trkpt>
      <trkpt lat="45.17279" lon="5.9368">
        <ele>1985</ele>
        <time>2013-03-02T13:05:11Z</time>
      </trkpt>
      <trkpt lat="45.17281" lon="5.93668">
        <ele>1982.8</ele>
        <time>2013-03-02T13:05:14Z</time>
      </trkpt>
      <trkpt lat="45.17277" lon="5.9366">
        <ele>1980.6</ele>
        <time>2013-03-02T13:05:16Z</time>
      </trkpt>
      <trkpt lat="45.17274" lon="5.93649">
        <ele>1978.4</ele>
        <time>2013-03-02T13:05:18Z</time>
      </trkpt>
      <trkpt lat="45.17279" lon="5.9364">
        <ele>1976</ele>
        <time>2013-03-02T13:05:23Z</time>
      </trkpt>
      <trkpt lat="45.17283" lon="5.93628">
        <ele>1974.9</ele>
        <time>2013-03-02T13:05:36Z</time>
      </trkpt>
      <trkpt lat="45.17287" lon="5.93639">
        <ele>1974.9</ele>
        <time>2013-03-02T13:06:06Z</time>
      </trkpt>
      <trkpt lat="45.17288" lon="5.9364">
        <ele>1974.8</ele>
        <time>2013-03-02T13:06:07Z</time>
      </trkpt>
      <trkpt lat="45.17293" lon="5.9365">
        <ele>1973.4</ele>
        <time>2013-03-02T13:07:14Z</time>
      </trkpt>
      <trkpt lat="45.17287" lon="5.9367">
        <ele>1971.8</ele>
        <time>2013-03-02T13:08:02Z</time>
      </trkpt>
      <trkpt lat="45.1729" lon="5.93681">
        <ele>1972.3</ele>
        <time>2013-03-02T13:08:07Z</time>
      </trkpt>
      <trkpt lat="45.17291" lon="5.93692">
        <ele>1972.7</ele>
        <time>2013-03-02T13:08:12Z</time>
      </trkpt>
      <trkpt lat="45.17296" lon="5.93687">
        <ele>1971.2</ele>
        <time>2013-03-02T13:08:26Z</time>
      </trkpt>
      <trkpt lat="45.17298" lon="5.93683">
        <ele>1970.3</ele>
        <time>2013-03-02T13:08:27Z</time>
      </trkpt>
      <trkpt lat="45.17301" lon="5.93672">
        <ele>1969.4</ele>
        <time>2013-03-02T13:08:29Z</time>
      </trkpt>
      <trkpt lat="45.17301" lon="5.93665">
        <ele>1969.1</ele>
        <time>2013-03-02T13:08:30Z</time>
      </trkpt>
      <trkpt lat="45.173" lon="5.93658">
        <ele>1968.4</ele>
        <time>2013-03-02T13:08:31Z</time>
      </trkpt>
      <trkpt lat="45.17297" lon="5.93651">
        <ele>1967.8</ele>
        <time>2013-03-02T13:08:32Z</time>
      </trkpt>
      <trkpt lat="45.17294" lon="5.93645">
        <ele>1967.3</ele>
        <time>2013-03-02T13:08:33Z</time>
      </trkpt>
      <trkpt lat="45.17292" lon="5.93638">
        <ele>1966.8</ele>
        <time>2013-03-02T13:08:34Z</time>
      </trkpt>
      <trkpt lat="45.17293" lon="5.9363">
        <ele>1965.7</ele>
        <time>2013-03-02T13:08:35Z</time>
      </trkpt>
      <trkpt lat="45.17295" lon="5.93624">
        <ele>1964.9</ele>
        <time>2013-03-02T13:08:36Z</time>
      </trkpt>
      <trkpt lat="45.17294" lon="5.93617">
        <ele>1964.3</ele>
        <time>2013-03-02T13:08:37Z</time>
      </trkpt>
      <trkpt lat="45.17292" lon="5.93609">
        <ele>1963.6</ele>
        <time>2013-03-02T13:08:38Z</time>
      </trkpt>
      <trkpt lat="45.1729" lon="5.93603">
        <ele>1963</ele>
        <time>2013-03-02T13:08:39Z</time>
      </trkpt>
      <trkpt lat="45.17288" lon="5.93591">
        <ele>1961.4</ele>
        <time>2013-03-02T13:08:41Z</time>
      </trkpt>
      <trkpt lat="45.17293" lon="5.93581">
        <ele>1958.6</ele>
        <time>2013-03-02T13:08:44Z</time>
      </trkpt>
      <trkpt lat="45.17295" lon="5.93569">
        <ele>1956.2</ele>
        <time>2013-03-02T13:08:50Z</time>
      </trkpt>
      <trkpt lat="45.17296" lon="5.9356">
        <ele>1955</ele>
        <time>2013-03-02T13:08:52Z</time>
      </trkpt>
      <trkpt lat="45.17295" lon="5.93554">
        <ele>1954.5</ele>
        <time>2013-03-02T13:08:53Z</time>
      </trkpt>
      <trkpt lat="45.17295" lon="5.93546">
        <ele>1953.2</ele>
        <time>2013-03-02T13:08:54Z</time>
      </trkpt>
      <trkpt lat="45.17299" lon="5.93535">
        <ele>1951.6</ele>
        <time>2013-03-02T13:08:56Z</time>
      </trkpt>
      <trkpt lat="45.17306" lon="5.93529">
        <ele>1949.4</ele>
        <time>2013-03-02T13:08:58Z</time>
      </trkpt>
      <trkpt lat="45.17311" lon="5.93521">
        <ele>1946.8</ele>
        <time>2013-03-02T13:09:00Z</time>
      </trkpt>
      <trkpt lat="45.17317" lon="5.93526">
        <ele>1943.7</ele>
        <time>2013-03-02T13:09:02Z</time>
      </trkpt>
      <trkpt lat="45.17324" lon="5.93531">
        <ele>1941.5</ele>
        <time>2013-03-02T13:09:04Z</time>
      </trkpt>
      <trkpt lat="45.17327" lon="5.93519">
        <ele>1936.9</ele>
        <time>2013-03-02T13:09:10Z</time>
      </trkpt>
      <trkpt lat="45.17335" lon="5.93517">
        <ele>1934.4</ele>
        <time>2013-03-02T13:09:18Z</time>
      </trkpt>
      <trkpt lat="45.1734" lon="5.93508">
        <ele>1926.8</ele>
        <time>2013-03-02T13:09:27Z</time>
      </trkpt>
      <trkpt lat="45.17344" lon="5.93497">
        <ele>1922.8</ele>
        <time>2013-03-02T13:09:30Z</time>
      </trkpt>
      <trkpt lat="45.17343" lon="5.93491">
        <ele>1921.6</ele>
        <time>2013-03-02T13:09:31Z</time>
      </trkpt>
      <trkpt lat="45.17348" lon="5.93477">
        <ele>1915.6</ele>
        <time>2013-03-02T13:09:36Z</time>
      </trkpt>
      <trkpt lat="45.1735" lon="5.93466">
        <ele>1912.7</ele>
        <time>2013-03-02T13:09:41Z</time>
      </trkpt>
      <trkpt lat="45.17349" lon="5.93458">
        <ele>1911.6</ele>
        <time>2013-03-02T13:09:42Z</time>
      </trkpt>
      <trkpt lat="45.17351" lon="5.93447">
        <ele>1909.5</ele>
        <time>2013-03-02T13:09:44Z</time>
      </trkpt>
      <trkpt lat="45.17353" lon="5.93437">
        <ele>1906.3</ele>
        <time>2013-03-02T13:09:47Z</time>
      </trkpt>
      <trkpt lat="45.17357" lon="5.9343">
        <ele>1904.2</ele>
        <time>2013-03-02T13:09:49Z</time>
      </trkpt>
      <trkpt lat="45.17358" lon="5.93425">
        <ele>1903.5</ele>
        <time>2013-03-02T13:09:50Z</time>
      </trkpt>
      <trkpt lat="45.17359" lon="5.93417">
        <ele>1901.9</ele>
        <time>2013-03-02T13:09:51Z</time>
      </trkpt>
      <trkpt lat="45.17359" lon="5.93407">
        <ele>1900.7</ele>
        <time>2013-03-02T13:09:52Z</time>
      </trkpt>
      <trkpt lat="45.17359" lon="5.93397">
        <ele>1899.8</ele>
        <time>2013-03-02T13:09:53Z</time>
      </trkpt>
      <trkpt lat="45.1736" lon="5.93388">
        <ele>1898.6</ele>
        <time>2013-03-02T13:09:54Z</time>
      </trkpt>
      <trkpt lat="45.17362" lon="5.93379">
        <ele>1897.8</ele>
        <time>2013-03-02T13:09:55Z</time>
      </trkpt>
      <trkpt lat="45.17365" lon="5.93371">
        <ele>1897.1</ele>
        <time>2013-03-02T13:09:56Z</time>
      </trkpt>
      <trkpt lat="45.17366" lon="5.93364">
        <ele>1896.5</ele>
        <time>2013-03-02T13:09:57Z</time>
      </trkpt>
      <trkpt lat="45.17366" lon="5.93356">
        <ele>1895.5</ele>
        <time>2013-03-02T13:09:58Z</time>
      </trkpt>
      <trkpt lat="45.17367" lon="5.93349">
        <ele>1894.6</ele>
        <time>2013-03-02T13:09:59Z</time>
      </trkpt>
      <trkpt lat="45.17368" lon="5.93342">
        <ele>1894</ele>
        <time>2013-03-02T13:10:00Z</time>
      </trkpt>
      <trkpt lat="45.17371" lon="5.93331">
        <ele>1893.3</ele>
        <time>2013-03-02T13:10:02Z</time>
      </trkpt>
      <trkpt lat="45.17377" lon="5.93322">
        <ele>1892.4</ele>
        <time>2013-03-02T13:10:06Z</time>
      </trkpt>
      <trkpt lat="45.17378" lon="5.93317">
        <ele>1892.1</ele>
        <time>2013-03-02T13:10:07Z</time>
      </trkpt>
      <trkpt lat="45.17378" lon="5.93309">
        <ele>1891.5</ele>
        <time>2013-03-02T13:10:08Z</time>
      </trkpt>
      <trkpt lat="45.17379" lon="5.933">
        <ele>1891.1</ele>
        <time>2013-03-02T13:10:09Z</time>
      </trkpt>
      <trkpt lat="45.17379" lon="5.93292">
        <ele>1890.4</ele>
        <time>2013-03-02T13:10:10Z</time>
      </trkpt>
      <trkpt lat="45.1738" lon="5.93284">
        <ele>1889.9</ele>
        <time>2013-03-02T13:10:11Z</time>
      </trkpt>
      <trkpt lat="45.17382" lon="5.93274">
        <ele>1888.9</ele>
        <time>2013-03-02T13:10:13Z</time>
      </trkpt>
      <trkpt lat="45.17384" lon="5.93266">
        <ele>1888.1</ele>
        <time>2013-03-02T13:10:15Z</time>
      </trkpt>
      <trkpt lat="45.17387" lon="5.93258">
        <ele>1887.7</ele>
        <time>2013-03-02T13:10:17Z</time>
      </trkpt>
      <trkpt lat="45.1739" lon="5.9325">
        <ele>1887.3</ele>
        <time>2013-03-02T13:10:19Z</time>
      </trkpt>
      <trkpt lat="45.17393" lon="5.93239">
        <ele>1887</ele>
        <time>2013-03-02T13:10:21Z</time>
      </trkpt>
      <trkpt lat="45.17395" lon="5.93233">
        <ele>1886</ele>
        <time>2013-03-02T13:10:22Z</time>
      </trkpt>
      <trkpt lat="45.17396" lon="5.93226">
        <ele>1885.2</ele>
        <time>2013-03-02T13:10:23Z</time>
      </trkpt>
      <trkpt lat="45.17397" lon="5.93219">
        <ele>1884.6</ele>
        <time>2013-03-02T13:10:24Z</time>
      </trkpt>
      <trkpt lat="45.17398" lon="5.93206">
        <ele>1883.3</ele>
        <time>2013-03-02T13:10:26Z</time>
      </trkpt>
      <trkpt lat="45.17397" lon="5.93196">
        <ele>1882.5</ele>
        <time>2013-03-02T13:10:28Z</time>
      </trkpt>
      <trkpt lat="45.174" lon="5.93187">
        <ele>1880.5</ele>
        <time>2013-03-02T13:10:32Z</time>
      </trkpt>
      <trkpt lat="45.17401" lon="5.93185">
        <ele>1880</ele>
        <time>2013-03-02T13:10:33Z</time>
      </trkpt>
      <trkpt lat="45.17411" lon="5.93172">
        <ele>1875.2</ele>
        <time>2013-03-02T13:10:39Z</time>
      </trkpt>
      <trkpt lat="45.17416" lon="5.93161">
        <ele>1871.7</ele>
        <time>2013-03-02T13:10:47Z</time>
      </trkpt>
      <trkpt lat="45.17418" lon="5.93152">
        <ele>1871.3</ele>
        <time>2013-03-02T13:10:51Z</time>
      </trkpt>
      <trkpt lat="45.1742" lon="5.93139">
        <ele>1867</ele>
        <time>2013-03-02T13:10:55Z</time>
      </trkpt>
      <trkpt lat="45.17424" lon="5.93129">
        <ele>1864.2</ele>
        <time>2013-03-02T13:11:03Z</time>
      </trkpt>
      <trkpt lat="45.17425" lon="5.93119">
        <ele>1864.3</ele>
        <time>2013-03-02T13:11:06Z</time>
      </trkpt>
      <trkpt lat="45.17427" lon="5.9311">
        <ele>1860.6</ele>
        <time>2013-03-02T13:11:11Z</time>
      </trkpt>
      <trkpt lat="45.17427" lon="5.93102">
        <ele>1858.3</ele>
        <time>2013-03-02T13:11:13Z</time>
      </trkpt>
      <trkpt lat="45.17426" lon="5.93096">
        <ele>1856.8</ele>
        <time>2013-03-02T13:11:14Z</time>
      </trkpt>
      <trkpt lat="45.17426" lon="5.93088">
        <ele>1855.7</ele>
        <time>2013-03-02T13:11:15Z</time>
      </trkpt>
      <trkpt lat="45.17425" lon="5.93078">
        <ele>1854.8</ele>
        <time>2013-03-02T13:11:16Z</time>
      </trkpt>
      <trkpt lat="45.17426" lon="5.93068">
        <ele>1853.4</ele>
        <time>2013-03-02T13:11:17Z</time>
      </trkpt>
      <trkpt lat="45.17425" lon="5.93057">
        <ele>1852.3</ele>
        <time>2013-03-02T13:11:18Z</time>
      </trkpt>
      <trkpt lat="45.17425" lon="5.93046">
        <ele>1850.2</ele>
        <time>2013-03-02T13:11:19Z</time>
      </trkpt>
      <trkpt lat="45.17423" lon="5.93035">
        <ele>1848.7</ele>
        <time>2013-03-02T13:11:20Z</time>
      </trkpt>
      <trkpt lat="45.1742" lon="5.93024">
        <ele>1846.1</ele>
        <time>2013-03-02T13:11:22Z</time>
      </trkpt>
      <trkpt lat="45.17421" lon="5.93013">
        <ele>1843.9</ele>
        <time>2013-03-02T13:11:24Z</time>
      </trkpt>
      <trkpt lat="45.17417" lon="5.93005">
        <ele>1841.7</ele>
        <time>2013-03-02T13:11:26Z</time>
      </trkpt>
      <trkpt lat="45.17412" lon="5.93002">
        <ele>1840.7</ele>
        <time>2013-03-02T13:11:27Z</time>
      </trkpt>
      <trkpt lat="45.17408" lon="5.92999">
        <ele>1839.8</ele>
        <time>2013-03-02T13:11:28Z</time>
      </trkpt>
      <trkpt lat="45.17403" lon="5.92995">
        <ele>1838.2</ele>
        <time>2013-03-02T13:11:29Z</time>
      </trkpt>
      <trkpt lat="45.17398" lon="5.92992">
        <ele>1837</ele>
        <time>2013-03-02T13:11:30Z</time>
      </trkpt>
      <trkpt lat="45.17391" lon="5.92984">
        <ele>1833.9</ele>
        <time>2013-03-02T13:11:33Z</time>
      </trkpt>
      <trkpt lat="45.17394" lon="5.92972">
        <ele>1830</ele>
        <time>2013-03-02T13:11:38Z</time>
      </trkpt>
      <trkpt lat="45.17394" lon="5.92971">
        <ele>1829.6</ele>
        <time>2013-03-02T13:11:39Z</time>
      </trkpt>
      <trkpt lat="45.17387" lon="5.92954">
        <ele>1827.9</ele>
        <time>2013-03-02T13:12:36Z</time>
      </trkpt>
      <trkpt lat="45.17382" lon="5.92948">
        <ele>1827.3</ele>
        <time>2013-03-02T13:12:38Z</time>
      </trkpt>
      <trkpt lat="45.1738" lon="5.92943">
        <ele>1827.2</ele>
        <time>2013-03-02T13:12:39Z</time>
      </trkpt>
      <trkpt lat="45.17376" lon="5.92939">
        <ele>1826.1</ele>
        <time>2013-03-02T13:12:40Z</time>
      </trkpt>
      <trkpt lat="45.17371" lon="5.92936">
        <ele>1825.2</ele>
        <time>2013-03-02T13:12:41Z</time>
      </trkpt>
      <trkpt lat="45.17367" lon="5.9293">
        <ele>1823.8</ele>
        <time>2013-03-02T13:12:42Z</time>
      </trkpt>
      <trkpt lat="45.17361" lon="5.92921">
        <ele>1821.8</ele>
        <time>2013-03-02T13:12:44Z</time>
      </trkpt>
      <trkpt lat="45.17357" lon="5.92913">
        <ele>1819.3</ele>
        <time>2013-03-02T13:12:46Z</time>
      </trkpt>
      <trkpt lat="45.17355" lon="5.92903">
        <ele>1816.6</ele>
        <time>2013-03-02T13:12:49Z</time>
      </trkpt>
      <trkpt lat="45.17352" lon="5.92892">
        <ele>1815.6</ele>
        <time>2013-03-02T13:12:51Z</time>
      </trkpt>
      <trkpt lat="45.17354" lon="5.92882">
        <ele>1812.1</ele>
        <time>2013-03-02T13:12:53Z</time>
      </trkpt>
      <trkpt lat="45.17355" lon="5.92871">
        <ele>1809.3</ele>
        <time>2013-03-02T13:12:55Z</time>
      </trkpt>
      <trkpt lat="45.1735" lon="5.92863">
        <ele>1805.9</ele>
        <time>2013-03-02T13:12:57Z</time>
      </trkpt>
      <trkpt lat="45.17346" lon="5.92857">
        <ele>1804.8</ele>
        <time>2013-03-02T13:12:58Z</time>
      </trkpt>
      <trkpt lat="45.17343" lon="5.92851">
        <ele>1803.3</ele>
        <time>2013-03-02T13:12:59Z</time>
      </trkpt>
      <trkpt lat="45.17339" lon="5.92846">
        <ele>1802.2</ele>
        <time>2013-03-02T13:13:00Z</time>
      </trkpt>
      <trkpt lat="45.17335" lon="5.92842">
        <ele>1800.4</ele>
        <time>2013-03-02T13:13:01Z</time>
      </trkpt>
      <trkpt lat="45.17328" lon="5.92834">
        <ele>1797.9</ele>
        <time>2013-03-02T13:13:03Z</time>
      </trkpt>
      <trkpt lat="45.17326" lon="5.92828">
        <ele>1797.5</ele>
        <time>2013-03-02T13:13:04Z</time>
      </trkpt>
      <trkpt lat="45.17323" lon="5.92821">
        <ele>1797.2</ele>
        <time>2013-03-02T13:13:05Z</time>
      </trkpt>
      <trkpt lat="45.1732" lon="5.92811">
        <ele>1796.2</ele>
        <time>2013-03-02T13:13:06Z</time>
      </trkpt>
      <trkpt lat="45.17318" lon="5.92801">
        <ele>1795.4</ele>
        <time>2013-03-02T13:13:07Z</time>
      </trkpt>
      <trkpt lat="45.17317" lon="5.92791">
        <ele>1793.6</ele>
        <time>2013-03-02T13:13:08Z</time>
      </trkpt>
      <trkpt lat="45.17316" lon="5.92782">
        <ele>1792.3</ele>
        <time>2013-03-02T13:13:09Z</time>
      </trkpt>
      <trkpt lat="45.17315" lon="5.92773">
        <ele>1791.2</ele>
        <time>2013-03-02T13:13:10Z</time>
      </trkpt>
      <trkpt lat="45.17314" lon="5.92763">
        <ele>1790.4</ele>
        <time>2013-03-02T13:13:11Z</time>
      </trkpt>
      <trkpt lat="45.17313" lon="5.92753">
        <ele>1789.8</ele>
        <time>2013-03-02T13:13:12Z</time>
      </trkpt>
      <trkpt lat="45.17311" lon="5.92743">
        <ele>1788.6</ele>
        <time>2013-03-02T13:13:13Z</time>
      </trkpt>
      <trkpt lat="45.17307" lon="5.92732">
        <ele>1786.1</ele>
        <time>2013-03-02T13:13:22Z</time>
      </trkpt>
      <trkpt lat="45.17301" lon="5.92724">
        <ele>1785.1</ele>
        <time>2013-03-02T13:13:35Z</time>
      </trkpt>
      <trkpt lat="45.17293" lon="5.92723">
        <ele>1783.5</ele>
        <time>2013-03-02T13:13:40Z</time>
      </trkpt>
      <trkpt lat="45.17288" lon="5.9272">
        <ele>1782.9</ele>
        <time>2013-03-02T13:13:42Z</time>
      </trkpt>
      <trkpt lat="45.17285" lon="5.92717">
        <ele>1782.7</ele>
        <time>2013-03-02T13:13:43Z</time>
      </trkpt>
      <trkpt lat="45.17278" lon="5.9271">
        <ele>1781.5</ele>
        <time>2013-03-02T13:13:45Z</time>
      </trkpt>
      <trkpt lat="45.17274" lon="5.92705">
        <ele>1780.6</ele>
        <time>2013-03-02T13:13:46Z</time>
      </trkpt>
      <trkpt lat="45.1727" lon="5.92699">
        <ele>1780</ele>
        <time>2013-03-02T13:13:47Z</time>
      </trkpt>
      <trkpt lat="45.17268" lon="5.92693">
        <ele>1779.5</ele>
        <time>2013-03-02T13:13:48Z</time>
      </trkpt>
      <trkpt lat="45.17264" lon="5.92688">
        <ele>1778</ele>
        <time>2013-03-02T13:13:49Z</time>
      </trkpt>
      <trkpt lat="45.17261" lon="5.92683">
        <ele>1776.9</ele>
        <time>2013-03-02T13:13:50Z</time>
      </trkpt>
      <trkpt lat="45.17257" lon="5.92674">
        <ele>1774.6</ele>
        <time>2013-03-02T13:13:52Z</time>
      </trkpt>
      <trkpt lat="45.17251" lon="5.92664">
        <ele>1773.5</ele>
        <time>2013-03-02T13:14:02Z</time>
      </trkpt>
      <trkpt lat="45.17253" lon="5.92652">
        <ele>1768.6</ele>
        <time>2013-03-02T13:14:17Z</time>
      </trkpt>
      <trkpt lat="45.17259" lon="5.92648">
        <ele>1766.8</ele>
        <time>2013-03-02T13:14:20Z</time>
      </trkpt>
      <trkpt lat="45.17263" lon="5.92639">
        <ele>1764.8</ele>
        <time>2013-03-02T13:14:23Z</time>
      </trkpt>
      <trkpt lat="45.17271" lon="5.92634">
        <ele>1760.1</ele>
        <time>2013-03-02T13:14:26Z</time>
      </trkpt>
      <trkpt lat="45.17271" lon="5.92623">
        <ele>1758.2</ele>
        <time>2013-03-02T13:14:28Z</time>
      </trkpt>
      <trkpt lat="45.17275" lon="5.92617">
        <ele>1756</ele>
        <time>2013-03-02T13:14:30Z</time>
      </trkpt>
      <trkpt lat="45.17278" lon="5.92607">
        <ele>1753</ele>
        <time>2013-03-02T13:14:32Z</time>
      </trkpt>
      <trkpt lat="45.17281" lon="5.92595">
        <ele>1750.8</ele>
        <time>2013-03-02T13:14:35Z</time>
      </trkpt>
      <trkpt lat="45.17284" lon="5.92589">
        <ele>1748.9</ele>
        <time>2013-03-02T13:14:36Z</time>
      </trkpt>
      <trkpt lat="45.17285" lon="5.92583">
        <ele>1747.5</ele>
        <time>2013-03-02T13:14:37Z</time>
      </trkpt>
      <trkpt lat="45.17288" lon="5.92578">
        <ele>1746.5</ele>
        <time>2013-03-02T13:14:38Z</time>
      </trkpt>
      <trkpt lat="45.17292" lon="5.92573">
        <ele>1745.5</ele>
        <time>2013-03-02T13:14:39Z</time>
      </trkpt>
      <trkpt lat="45.17296" lon="5.92568">
        <ele>1744.7</ele>
        <time>2013-03-02T13:14:40Z</time>
      </trkpt>
      <trkpt lat="45.173" lon="5.92562">
        <ele>1743.3</ele>
        <time>2013-03-02T13:14:41Z</time>
      </trkpt>
      <trkpt lat="45.17305" lon="5.92556">
        <ele>1742.1</ele>
        <time>2013-03-02T13:14:42Z</time>
      </trkpt>
      <trkpt lat="45.17309" lon="5.9255">
        <ele>1740.7</ele>
        <time>2013-03-02T13:14:43Z</time>
      </trkpt>
      <trkpt lat="45.17314" lon="5.92543">
        <ele>1739.6</ele>
        <time>2013-03-02T13:14:44Z</time>
      </trkpt>
      <trkpt lat="45.17318" lon="5.92535">
        <ele>1738.8</ele>
        <time>2013-03-02T13:14:45Z</time>
      </trkpt>
      <trkpt lat="45.17322" lon="5.92527">
        <ele>1737.6</ele>
        <time>2013-03-02T13:14:46Z</time>
      </trkpt>
      <trkpt lat="45.17326" lon="5.9252">
        <ele>1736.7</ele>
        <time>2013-03-02T13:14:47Z</time>
      </trkpt>
      <trkpt lat="45.17329" lon="5.92513">
        <ele>1736</ele>
        <time>2013-03-02T13:14:48Z</time>
      </trkpt>
      <trkpt lat="45.17332" lon="5.92507">
        <ele>1735.5</ele>
        <time>2013-03-02T13:14:49Z</time>
      </trkpt>
      <trkpt lat="45.17336" lon="5.92497">
        <ele>1734</ele>
        <time>2013-03-02T13:14:51Z</time>
      </trkpt>
      <trkpt lat="45.1734" lon="5.92487">
        <ele>1733.1</ele>
        <time>2013-03-02T13:14:53Z</time>
      </trkpt>
      <trkpt lat="45.17345" lon="5.92478">
        <ele>1732.1</ele>
        <time>2013-03-02T13:14:55Z</time>
      </trkpt>
      <trkpt lat="45.1735" lon="5.92468">
        <ele>1731.2</ele>
        <time>2013-03-02T13:14:57Z</time>
      </trkpt>
      <trkpt lat="45.17355" lon="5.92458">
        <ele>1728.4</ele>
        <time>2013-03-02T13:15:04Z</time>
      </trkpt>
      <trkpt lat="45.17361" lon="5.92451">
        <ele>1728.7</ele>
        <time>2013-03-02T13:15:18Z</time>
      </trkpt>
      <trkpt lat="45.17366" lon="5.92442">
        <ele>1727.4</ele>
        <time>2013-03-02T13:15:23Z</time>
      </trkpt>
      <trkpt lat="45.17373" lon="5.92439">
        <ele>1726.1</ele>
        <time>2013-03-02T13:15:26Z</time>
      </trkpt>
      <trkpt lat="45.17382" lon="5.92438">
        <ele>1723.8</ele>
        <time>2013-03-02T13:15:29Z</time>
      </trkpt>
      <trkpt lat="45.17385" lon="5.92433">
        <ele>1723.4</ele>
        <time>2013-03-02T13:15:30Z</time>
      </trkpt>
      <trkpt lat="45.1739" lon="5.92425">
        <ele>1720.5</ele>
        <time>2013-03-02T13:15:32Z</time>
      </trkpt>
      <trkpt lat="45.17398" lon="5.92425">
        <ele>1717.7</ele>
        <time>2013-03-02T13:15:35Z</time>
      </trkpt>
      <trkpt lat="45.17404" lon="5.92422">
        <ele>1713.9</ele>
        <time>2013-03-02T13:15:37Z</time>
      </trkpt>
      <trkpt lat="45.17409" lon="5.92419">
        <ele>1712.5</ele>
        <time>2013-03-02T13:15:38Z</time>
      </trkpt>
      <trkpt lat="45.17416" lon="5.92413">
        <ele>1710.2</ele>
        <time>2013-03-02T13:15:40Z</time>
      </trkpt>
      <trkpt lat="45.17423" lon="5.92407">
        <ele>1707.8</ele>
        <time>2013-03-02T13:15:44Z</time>
      </trkpt>
      <trkpt lat="45.17425" lon="5.92405">
        <ele>1707.5</ele>
        <time>2013-03-02T13:15:45Z</time>
      </trkpt>
      <trkpt lat="45.17435" lon="5.92399">
        <ele>1705.4</ele>
        <time>2013-03-02T13:15:49Z</time>
      </trkpt>
      <trkpt lat="45.1744" lon="5.92398">
        <ele>1704.1</ele>
        <time>2013-03-02T13:15:50Z</time>
      </trkpt>
      <trkpt lat="45.17448" lon="5.92399">
        <ele>1701.7</ele>
        <time>2013-03-02T13:15:52Z</time>
      </trkpt>
      <trkpt lat="45.17456" lon="5.92405">
        <ele>1699.3</ele>
        <time>2013-03-02T13:15:56Z</time>
      </trkpt>
      <trkpt lat="45.17463" lon="5.92412">
        <ele>1697.8</ele>
        <time>2013-03-02T13:16:08Z</time>
      </trkpt>
      <trkpt lat="45.1747" lon="5.92417">
        <ele>1697</ele>
        <time>2013-03-02T13:16:21Z</time>
      </trkpt>
      <trkpt lat="45.17479" lon="5.92419">
        <ele>1697</ele>
        <time>2013-03-02T13:16:26Z</time>
      </trkpt>
      <trkpt lat="45.17486" lon="5.92413">
        <ele>1695</ele>
        <time>2013-03-02T13:16:31Z</time>
      </trkpt>
      <trkpt lat="45.1749" lon="5.92403">
        <ele>1692.6</ele>
        <time>2013-03-02T13:16:33Z</time>
      </trkpt>
      <trkpt lat="45.17493" lon="5.92392">
        <ele>1690.6</ele>
        <time>2013-03-02T13:16:36Z</time>
      </trkpt>
      <trkpt lat="45.17497" lon="5.92382">
        <ele>1688.8</ele>
        <time>2013-03-02T13:16:43Z</time>
      </trkpt>
      <trkpt lat="45.17503" lon="5.92373">
        <ele>1687.1</ele>
        <time>2013-03-02T13:16:47Z</time>
      </trkpt>
      <trkpt lat="45.17506" lon="5.92371">
        <ele>1687.1</ele>
        <time>2013-03-02T13:16:48Z</time>
      </trkpt>
      <trkpt lat="45.17516" lon="5.92363">
        <ele>1686.7</ele>
        <time>2013-03-02T13:16:54Z</time>
      </trkpt>
      <trkpt lat="45.17523" lon="5.92356">
        <ele>1687.1</ele>
        <time>2013-03-02T13:17:01Z</time>
      </trkpt>
      <trkpt lat="45.17529" lon="5.92347">
        <ele>1686.6</ele>
        <time>2013-03-02T13:17:13Z</time>
      </trkpt>
      <trkpt lat="45.17526" lon="5.92335">
        <ele>1688</ele>
        <time>2013-03-02T13:17:26Z</time>
      </trkpt>
      <trkpt lat="45.17524" lon="5.92324">
        <ele>1686.8</ele>
        <time>2013-03-02T13:17:35Z</time>
      </trkpt>
      <trkpt lat="45.17524" lon="5.92313">
        <ele>1686.4</ele>
        <time>2013-03-02T13:17:41Z</time>
      </trkpt>
      <trkpt lat="45.17528" lon="5.92303">
        <ele>1685.8</ele>
        <time>2013-03-02T13:17:45Z</time>
      </trkpt>
      <trkpt lat="45.1753" lon="5.92292">
        <ele>1685.6</ele>
        <time>2013-03-02T13:17:53Z</time>
      </trkpt>
      <trkpt lat="45.1753" lon="5.92291">
        <ele>1685.6</ele>
        <time>2013-03-02T13:17:54Z</time>
      </trkpt>
      <trkpt lat="45.17535" lon="5.9227">
        <ele>1685.1</ele>
        <time>2013-03-02T13:18:05Z</time>
      </trkpt>
      <trkpt lat="45.17537" lon="5.92257">
        <ele>1683.4</ele>
        <time>2013-03-02T13:18:09Z</time>
      </trkpt>
      <trkpt lat="45.17539" lon="5.92246">
        <ele>1683.6</ele>
        <time>2013-03-02T13:18:13Z</time>
      </trkpt>
      <trkpt lat="45.17542" lon="5.92237">
        <ele>1682.5</ele>
        <time>2013-03-02T13:18:16Z</time>
      </trkpt>
      <trkpt lat="45.17547" lon="5.92225">
        <ele>1683.2</ele>
        <time>2013-03-02T13:18:21Z</time>
      </trkpt>
      <trkpt lat="45.17551" lon="5.92218">
        <ele>1681.4</ele>
        <time>2013-03-02T13:18:24Z</time>
      </trkpt>
      <trkpt lat="45.17555" lon="5.9221">
        <ele>1681.3</ele>
        <time>2013-03-02T13:18:27Z</time>
      </trkpt>
      <trkpt lat="45.17557" lon="5.922">
        <ele>1679.8</ele>
        <time>2013-03-02T13:18:30Z</time>
      </trkpt>
      <trkpt lat="45.17561" lon="5.92188">
        <ele>1678.8</ele>
        <time>2013-03-02T13:18:35Z</time>
      </trkpt>
      <trkpt lat="45.17566" lon="5.9218">
        <ele>1678.1</ele>
        <time>2013-03-02T13:18:39Z</time>
      </trkpt>
      <trkpt lat="45.1757" lon="5.92169">
        <ele>1677.8</ele>
        <time>2013-03-02T13:18:44Z</time>
      </trkpt>
      <trkpt lat="45.17575" lon="5.92158">
        <ele>1677.2</ele>
        <time>2013-03-02T13:18:48Z</time>
      </trkpt>
      <trkpt lat="45.17578" lon="5.9215">
        <ele>1676.6</ele>
        <time>2013-03-02T13:18:51Z</time>
      </trkpt>
      <trkpt lat="45.17583" lon="5.9214">
        <ele>1676.6</ele>
        <time>2013-03-02T13:18:54Z</time>
      </trkpt>
      <trkpt lat="45.17586" lon="5.92138">
        <ele>1676.3</ele>
        <time>2013-03-02T13:18:55Z</time>
      </trkpt>
      <trkpt lat="45.17592" lon="5.92125">
        <ele>1675.6</ele>
        <time>2013-03-02T13:18:59Z</time>
      </trkpt>
      <trkpt lat="45.17598" lon="5.92116">
        <ele>1674.6</ele>
        <time>2013-03-02T13:19:02Z</time>
      </trkpt>
      <trkpt lat="45.17602" lon="5.92109">
        <ele>1674.2</ele>
        <time>2013-03-02T13:19:05Z</time>
      </trkpt>
      <trkpt lat="45.17608" lon="5.92103">
        <ele>1673.8</ele>
        <time>2013-03-02T13:19:08Z</time>
      </trkpt>
      <trkpt lat="45.17613" lon="5.92095">
        <ele>1673</ele>
        <time>2013-03-02T13:19:11Z</time>
      </trkpt>
      <trkpt lat="45.17618" lon="5.9209">
        <ele>1672.6</ele>
        <time>2013-03-02T13:19:13Z</time>
      </trkpt>
      <trkpt lat="45.17622" lon="5.92082">
        <ele>1672.4</ele>
        <time>2013-03-02T13:19:15Z</time>
      </trkpt>
      <trkpt lat="45.17626" lon="5.92074">
        <ele>1671.5</ele>
        <time>2013-03-02T13:19:17Z</time>
      </trkpt>
      <trkpt lat="45.17631" lon="5.92065">
        <ele>1671.2</ele>
        <time>2013-03-02T13:19:20Z</time>
      </trkpt>
      <trkpt lat="45.17637" lon="5.92058">
        <ele>1670.8</ele>
        <time>2013-03-02T13:19:23Z</time>
      </trkpt>
      <trkpt lat="45.17643" lon="5.92049">
        <ele>1670.1</ele>
        <time>2013-03-02T13:19:27Z</time>
      </trkpt>
      <trkpt lat="45.17649" lon="5.92042">
        <ele>1670.5</ele>
        <time>2013-03-02T13:19:30Z</time>
      </trkpt>
      <trkpt lat="45.17653" lon="5.92034">
        <ele>1670.2</ele>
        <time>2013-03-02T13:19:32Z</time>
      </trkpt>
      <trkpt lat="45.17659" lon="5.92028">
        <ele>1670</ele>
        <time>2013-03-02T13:19:34Z</time>
      </trkpt>
      <trkpt lat="45.17664" lon="5.92023">
        <ele>1669.2</ele>
        <time>2013-03-02T13:19:36Z</time>
      </trkpt>
      <trkpt lat="45.17669" lon="5.92016">
        <ele>1668.7</ele>
        <time>2013-03-02T13:19:38Z</time>
      </trkpt>
      <trkpt lat="45.17673" lon="5.92008">
        <ele>1667.7</ele>
        <time>2013-03-02T13:19:40Z</time>
      </trkpt>
      <trkpt lat="45.17678" lon="5.91998">
        <ele>1666.8</ele>
        <time>2013-03-02T13:19:43Z</time>
      </trkpt>
      <trkpt lat="45.17683" lon="5.91989">
        <ele>1665.5</ele>
        <time>2013-03-02T13:19:46Z</time>
      </trkpt>
      <trkpt lat="45.17688" lon="5.91978">
        <ele>1662.2</ele>
        <time>2013-03-02T13:19:50Z</time>
      </trkpt>
      <trkpt lat="45.17693" lon="5.91968">
        <ele>1659.7</ele>
        <time>2013-03-02T13:19:54Z</time>
      </trkpt>
      <trkpt lat="45.17697" lon="5.91959">
        <ele>1658.4</ele>
        <time>2013-03-02T13:19:58Z</time>
      </trkpt>
      <trkpt lat="45.17698" lon="5.91957">
        <ele>1658.6</ele>
        <time>2013-03-02T13:19:59Z</time>
      </trkpt>
      <trkpt lat="45.17704" lon="5.91939">
        <ele>1658.1</ele>
        <time>2013-03-02T13:20:07Z</time>
      </trkpt>
      <trkpt lat="45.17706" lon="5.91927">
        <ele>1658.1</ele>
        <time>2013-03-02T13:20:15Z</time>
      </trkpt>
      <trkpt lat="45.17703" lon="5.91917">
        <ele>1657.7</ele>
        <time>2013-03-02T13:20:22Z</time>
      </trkpt>
      <trkpt lat="45.17707" lon="5.91907">
        <ele>1655.3</ele>
        <time>2013-03-02T13:20:28Z</time>
      </trkpt>
      <trkpt lat="45.17712" lon="5.91898">
        <ele>1651.6</ele>
        <time>2013-03-02T13:20:34Z</time>
      </trkpt>
      <trkpt lat="45.17719" lon="5.9189">
        <ele>1646.9</ele>
        <time>2013-03-02T13:20:41Z</time>
      </trkpt>
      <trkpt lat="45.17727" lon="5.91886">
        <ele>1644.4</ele>
        <time>2013-03-02T13:20:52Z</time>
      </trkpt>
      <trkpt lat="45.17734" lon="5.91879">
        <ele>1641.1</ele>
        <time>2013-03-02T13:21:02Z</time>
      </trkpt>
      <trkpt lat="45.17735" lon="5.91878">
        <ele>1640.7</ele>
        <time>2013-03-02T13:21:03Z</time>
      </trkpt>
      <trkpt lat="45.17749" lon="5.91869">
        <ele>1635.3</ele>
        <time>2013-03-02T13:21:20Z</time>
      </trkpt>
      <trkpt lat="45.17756" lon="5.91862">
        <ele>1632.8</ele>
        <time>2013-03-02T13:21:31Z</time>
      </trkpt>
      <trkpt lat="45.17753" lon="5.91851">
        <ele>1630.7</ele>
        <time>2013-03-02T13:21:40Z</time>
      </trkpt>
      <trkpt lat="45.17759" lon="5.91845">
        <ele>1625.3</ele>
        <time>2013-03-02T13:21:47Z</time>
      </trkpt>
      <trkpt lat="45.17767" lon="5.91843">
        <ele>1623.7</ele>
        <time>2013-03-02T13:21:51Z</time>
      </trkpt>
      <trkpt lat="45.17772" lon="5.91833">
        <ele>1617.9</ele>
        <time>2013-03-02T13:22:02Z</time>
      </trkpt>
      <trkpt lat="45.17772" lon="5.9182">
        <ele>1612.9</ele>
        <time>2013-03-02T13:22:14Z</time>
      </trkpt>
      <trkpt lat="45.17772" lon="5.91819">
        <ele>1612.9</ele>
        <time>2013-03-02T13:22:15Z</time>
      </trkpt>
      <trkpt lat="45.17773" lon="5.91796">
        <ele>1605.7</ele>
        <time>2013-03-02T13:22:41Z</time>
      </trkpt>
      <trkpt lat="45.17781" lon="5.9179">
        <ele>1602.1</ele>
        <time>2013-03-02T13:22:57Z</time>
      </trkpt>
      <trkpt lat="45.17785" lon="5.91779">
        <ele>1591.3</ele>
        <time>2013-03-02T13:23:15Z</time>
      </trkpt>
      <trkpt lat="45.17785" lon="5.91779">
        <ele>1590.8</ele>
        <time>2013-03-02T13:23:16Z</time>
      </trkpt>
      <trkpt lat="45.17787" lon="5.91757">
        <ele>1581.8</ele>
        <time>2013-03-02T13:23:36Z</time>
      </trkpt>
      <trkpt lat="45.1779" lon="5.91745">
        <ele>1573.8</ele>
        <time>2013-03-02T13:23:46Z</time>
      </trkpt>
      <trkpt lat="45.17796" lon="5.91736">
        <ele>1570.5</ele>
        <time>2013-03-02T13:23:52Z</time>
      </trkpt>
      <trkpt lat="45.17803" lon="5.9173">
        <ele>1566.3</ele>
        <time>2013-03-02T13:23:57Z</time>
      </trkpt>
      <trkpt lat="45.17809" lon="5.91722">
        <ele>1564.4</ele>
        <time>2013-03-02T13:24:02Z</time>
      </trkpt>
      <trkpt lat="45.17816" lon="5.91714">
        <ele>1561.1</ele>
        <time>2013-03-02T13:24:07Z</time>
      </trkpt>
      <trkpt lat="45.17819" lon="5.91703">
        <ele>1555.9</ele>
        <time>2013-03-02T13:24:18Z</time>
      </trkpt>
      <trkpt lat="45.17818" lon="5.91702">
        <ele>1555.3</ele>
        <time>2013-03-02T13:24:19Z</time>
      </trkpt>
      <trkpt lat="45.17806" lon="5.91689">
        <ele>1550.9</ele>
        <time>2013-03-02T13:24:36Z</time>
      </trkpt>
      <trkpt lat="45.17812" lon="5.9168">
        <ele>1544.7</ele>
        <time>2013-03-02T13:24:45Z</time>
      </trkpt>
      <trkpt lat="45.17814" lon="5.91668">
        <ele>1540.2</ele>
        <time>2013-03-02T13:25:32Z</time>
      </trkpt>
      <trkpt lat="45.17816" lon="5.91666">
        <ele>1539.7</ele>
        <time>2013-03-02T13:25:33Z</time>
      </trkpt>
      <trkpt lat="45.17826" lon="5.9166">
        <ele>1537.8</ele>
        <time>2013-03-02T13:25:36Z</time>
      </trkpt>
      <trkpt lat="45.1783" lon="5.91652">
        <ele>1535.6</ele>
        <time>2013-03-02T13:25:39Z</time>
      </trkpt>
      <trkpt lat="45.17837" lon="5.91645">
        <ele>1531.8</ele>
        <time>2013-03-02T13:25:42Z</time>
      </trkpt>
      <trkpt lat="45.17845" lon="5.91639">
        <ele>1528.8</ele>
        <time>2013-03-02T13:25:44Z</time>
      </trkpt>
      <trkpt lat="45.1785" lon="5.91632">
        <ele>1526.5</ele>
        <time>2013-03-02T13:25:46Z</time>
      </trkpt>
      <trkpt lat="45.17855" lon="5.9163">
        <ele>1525.5</ele>
        <time>2013-03-02T13:25:47Z</time>
      </trkpt>
      <trkpt lat="45.1786" lon="5.91628">
        <ele>1523.5</ele>
        <time>2013-03-02T13:25:48Z</time>
      </trkpt>
      <trkpt lat="45.17868" lon="5.91624">
        <ele>1520.1</ele>
        <time>2013-03-02T13:25:50Z</time>
      </trkpt>
      <trkpt lat="45.17873" lon="5.91621">
        <ele>1517.5</ele>
        <time>2013-03-02T13:25:52Z</time>
      </trkpt>
      <trkpt lat="45.1788" lon="5.91619">
        <ele>1516</ele>
        <time>2013-03-02T13:25:54Z</time>
      </trkpt>
      <trkpt lat="45.17885" lon="5.91616">
        <ele>1513.8</ele>
        <time>2013-03-02T13:25:56Z</time>
      </trkpt>
      <trkpt lat="45.17889" lon="5.91616">
        <ele>1512.5</ele>
        <time>2013-03-02T13:25:57Z</time>
      </trkpt>
      <trkpt lat="45.17895" lon="5.91613">
        <ele>1511.5</ele>
        <time>2013-03-02T13:25:58Z</time>
      </trkpt>
      <trkpt lat="45.17901" lon="5.91609">
        <ele>1510.8</ele>
        <time>2013-03-02T13:25:59Z</time>
      </trkpt>
      <trkpt lat="45.17908" lon="5.91608">
        <ele>1509.6</ele>
        <time>2013-03-02T13:26:01Z</time>
      </trkpt>
      <trkpt lat="45.17915" lon="5.91605">
        <ele>1507.5</ele>
        <time>2013-03-02T13:26:04Z</time>
      </trkpt>
      <trkpt lat="45.17923" lon="5.91603">
        <ele>1505.8</ele>
        <time>2013-03-02T13:26:06Z</time>
      </trkpt>
      <trkpt lat="45.17928" lon="5.91602">
        <ele>1505</ele>
        <time>2013-03-02T13:26:07Z</time>
      </trkpt>
      <trkpt lat="45.17936" lon="5.91599">
        <ele>1502.8</ele>
        <time>2013-03-02T13:26:09Z</time>
      </trkpt>
      <trkpt lat="45.1794" lon="5.91597">
        <ele>1501.6</ele>
        <time>2013-03-02T13:26:10Z</time>
      </trkpt>
      <trkpt lat="45.17948" lon="5.91595">
        <ele>1499.6</ele>
        <time>2013-03-02T13:26:12Z</time>
      </trkpt>
      <trkpt lat="45.17956" lon="5.91595">
        <ele>1497.8</ele>
        <time>2013-03-02T13:26:14Z</time>
      </trkpt>
      <trkpt lat="45.17964" lon="5.91595">
        <ele>1496.1</ele>
        <time>2013-03-02T13:26:16Z</time>
      </trkpt>
      <trkpt lat="45.17971" lon="5.91593">
        <ele>1495</ele>
        <time>2013-03-02T13:26:18Z</time>
      </trkpt>
      <trkpt lat="45.17979" lon="5.91594">
        <ele>1493.7</ele>
        <time>2013-03-02T13:26:21Z</time>
      </trkpt>
      <trkpt lat="45.17987" lon="5.91594">
        <ele>1493</ele>
        <time>2013-03-02T13:26:24Z</time>
      </trkpt>
      <trkpt lat="45.17994" lon="5.91593">
        <ele>1492.7</ele>
        <time>2013-03-02T13:26:27Z</time>
      </trkpt>
      <trkpt lat="45.18002" lon="5.91592">
        <ele>1492.8</ele>
        <time>2013-03-02T13:26:31Z</time>
      </trkpt>
      <trkpt lat="45.1801" lon="5.91592">
        <ele>1493</ele>
        <time>2013-03-02T13:26:36Z</time>
      </trkpt>
      <trkpt lat="45.18012" lon="5.91592">
        <ele>1493</ele>
        <time>2013-03-02T13:26:37Z</time>
      </trkpt>
      <trkpt lat="45.18028" lon="5.91595">
        <ele>1493</ele>
        <time>2013-03-02T13:26:52Z</time>
      </trkpt>
      <trkpt lat="45.18036" lon="5.91595">
        <ele>1491.7</ele>
        <time>2013-03-02T13:27:01Z</time>
      </trkpt>
      <trkpt lat="45.18044" lon="5.9159">
        <ele>1490.6</ele>
        <time>2013-03-02T13:27:07Z</time>
      </trkpt>
      <trkpt lat="45.18052" lon="5.91591">
        <ele>1489.6</ele>
        <time>2013-03-02T13:27:12Z</time>
      </trkpt>
      <trkpt lat="45.1806" lon="5.91588">
        <ele>1488.1</ele>
        <time>2013-03-02T13:27:17Z</time>
      </trkpt>
      <trkpt lat="45.18067" lon="5.91585">
        <ele>1488.3</ele>
        <time>2013-03-02T13:27:20Z</time>
      </trkpt>
      <trkpt lat="45.18074" lon="5.9158">
        <ele>1486.8</ele>
        <time>2013-03-02T13:27:24Z</time>
      </trkpt>
      <trkpt lat="45.18079" lon="5.91574">
        <ele>1486.2</ele>
        <time>2013-03-02T13:27:26Z</time>
      </trkpt>
      <trkpt lat="45.18083" lon="5.91569">
        <ele>1486</ele>
        <time>2013-03-02T13:27:27Z</time>
      </trkpt>
      <trkpt lat="45.18086" lon="5.91564">
        <ele>1485.1</ele>
        <time>2013-03-02T13:27:28Z</time>
      </trkpt>
      <trkpt lat="45.18089" lon="5.91558">
        <ele>1484.3</ele>
        <time>2013-03-02T13:27:29Z</time>
      </trkpt>
      <trkpt lat="45.18092" lon="5.91547">
        <ele>1482.6</ele>
        <time>2013-03-02T13:27:31Z</time>
      </trkpt>
      <trkpt lat="45.18092" lon="5.91538">
        <ele>1481.4</ele>
        <time>2013-03-02T13:27:33Z</time>
      </trkpt>
      <trkpt lat="45.18093" lon="5.91528">
        <ele>1480.3</ele>
        <time>2013-03-02T13:27:35Z</time>
      </trkpt>
      <trkpt lat="45.18097" lon="5.91518">
        <ele>1479.6</ele>
        <time>2013-03-02T13:27:37Z</time>
      </trkpt>
      <trkpt lat="45.18103" lon="5.91511">
        <ele>1478.8</ele>
        <time>2013-03-02T13:27:39Z</time>
      </trkpt>
      <trkpt lat="45.18106" lon="5.91507">
        <ele>1478.3</ele>
        <time>2013-03-02T13:27:40Z</time>
      </trkpt>
      <trkpt lat="45.18114" lon="5.91497">
        <ele>1476.6</ele>
        <time>2013-03-02T13:27:43Z</time>
      </trkpt>
      <trkpt lat="45.18121" lon="5.91493">
        <ele>1474.8</ele>
        <time>2013-03-02T13:27:45Z</time>
      </trkpt>
      <trkpt lat="45.18128" lon="5.91491">
        <ele>1472.6</ele>
        <time>2013-03-02T13:27:47Z</time>
      </trkpt>
      <trkpt lat="45.18136" lon="5.91486">
        <ele>1469.6</ele>
        <time>2013-03-02T13:27:49Z</time>
      </trkpt>
      <trkpt lat="45.18144" lon="5.91481">
        <ele>1467.3</ele>
        <time>2013-03-02T13:27:51Z</time>
      </trkpt>
      <trkpt lat="45.1815" lon="5.91474">
        <ele>1466</ele>
        <time>2013-03-02T13:27:53Z</time>
      </trkpt>
      <trkpt lat="45.18157" lon="5.9147">
        <ele>1464.6</ele>
        <time>2013-03-02T13:27:55Z</time>
      </trkpt>
      <trkpt lat="45.18161" lon="5.91468">
        <ele>1463.1</ele>
        <time>2013-03-02T13:27:56Z</time>
      </trkpt>
      <trkpt lat="45.18166" lon="5.91465">
        <ele>1462</ele>
        <time>2013-03-02T13:27:57Z</time>
      </trkpt>
      <trkpt lat="45.18171" lon="5.91462">
        <ele>1461.1</ele>
        <time>2013-03-02T13:27:58Z</time>
      </trkpt>
      <trkpt lat="45.18178" lon="5.91459">
        <ele>1459.9</ele>
        <time>2013-03-02T13:28:00Z</time>
      </trkpt>
      <trkpt lat="45.18184" lon="5.91458">
        <ele>1458.8</ele>
        <time>2013-03-02T13:28:01Z</time>
      </trkpt>
      <trkpt lat="45.18188" lon="5.91457">
        <ele>1458</ele>
        <time>2013-03-02T13:28:02Z</time>
      </trkpt>
      <trkpt lat="45.18196" lon="5.91455">
        <ele>1455.9</ele>
        <time>2013-03-02T13:28:04Z</time>
      </trkpt>
      <trkpt lat="45.18203" lon="5.91454">
        <ele>1454.1</ele>
        <time>2013-03-02T13:28:06Z</time>
      </trkpt>
      <trkpt lat="45.1821" lon="5.91451">
        <ele>1452.2</ele>
        <time>2013-03-02T13:28:08Z</time>
      </trkpt>
      <trkpt lat="45.18218" lon="5.91446">
        <ele>1449.5</ele>
        <time>2013-03-02T13:28:11Z</time>
      </trkpt>
      <trkpt lat="45.18223" lon="5.91444">
        <ele>1447.4</ele>
        <time>2013-03-02T13:28:13Z</time>
      </trkpt>
      <trkpt lat="45.18231" lon="5.91442">
        <ele>1445.3</ele>
        <time>2013-03-02T13:28:15Z</time>
      </trkpt>
      <trkpt lat="45.18238" lon="5.91439">
        <ele>1443.6</ele>
        <time>2013-03-02T13:28:17Z</time>
      </trkpt>
      <trkpt lat="45.18246" lon="5.91436">
        <ele>1441</ele>
        <time>2013-03-02T13:28:20Z</time>
      </trkpt>
      <trkpt lat="45.18252" lon="5.91433">
        <ele>1438.9</ele>
        <time>2013-03-02T13:28:22Z</time>
      </trkpt>
      <trkpt lat="45.18258" lon="5.91429">
        <ele>1437.4</ele>
        <time>2013-03-02T13:28:24Z</time>
      </trkpt>
      <trkpt lat="45.18265" lon="5.91427">
        <ele>1435.1</ele>
        <time>2013-03-02T13:28:26Z</time>
      </trkpt>
      <trkpt lat="45.18273" lon="5.91427">
        <ele>1433.6</ele>
        <time>2013-03-02T13:28:29Z</time>
      </trkpt>
      <trkpt lat="45.1828" lon="5.91425">
        <ele>1432.7</ele>
        <time>2013-03-02T13:28:32Z</time>
      </trkpt>
      <trkpt lat="45.18288" lon="5.9142">
        <ele>1433</ele>
        <time>2013-03-02T13:28:36Z</time>
      </trkpt>
      <trkpt lat="45.18295" lon="5.91414">
        <ele>1433.1</ele>
        <time>2013-03-02T13:28:41Z</time>
      </trkpt>
      <trkpt lat="45.18296" lon="5.91413">
        <ele>1433.1</ele>
        <time>2013-03-02T13:28:42Z</time>
      </trkpt>
      <trkpt lat="45.18307" lon="5.91401">
        <ele>1432.8</ele>
        <time>2013-03-02T13:28:53Z</time>
      </trkpt>
      <trkpt lat="45.18314" lon="5.91397">
        <ele>1431.8</ele>
        <time>2013-03-02T13:28:56Z</time>
      </trkpt>
      <trkpt lat="45.1832" lon="5.91392">
        <ele>1429.1</ele>
        <time>2013-03-02T13:28:59Z</time>
      </trkpt>
      <trkpt lat="45.18328" lon="5.91387">
        <ele>1425.9</ele>
        <time>2013-03-02T13:29:02Z</time>
      </trkpt>
      <trkpt lat="45.18333" lon="5.91385">
        <ele>1424</ele>
        <time>2013-03-02T13:29:04Z</time>
      </trkpt>
      <trkpt lat="45.18339" lon="5.91383">
        <ele>1421.4</ele>
        <time>2013-03-02T13:29:06Z</time>
      </trkpt>
      <trkpt lat="45.18345" lon="5.91381">
        <ele>1419</ele>
        <time>2013-03-02T13:29:08Z</time>
      </trkpt>
      <trkpt lat="45.18352" lon="5.91382">
        <ele>1416.8</ele>
        <time>2013-03-02T13:29:10Z</time>
      </trkpt>
      <trkpt lat="45.18359" lon="5.91383">
        <ele>1414.3</ele>
        <time>2013-03-02T13:29:12Z</time>
      </trkpt>
      <trkpt lat="45.18367" lon="5.91383">
        <ele>1412</ele>
        <time>2013-03-02T13:29:14Z</time>
      </trkpt>
      <trkpt lat="45.18375" lon="5.91382">
        <ele>1410.3</ele>
        <time>2013-03-02T13:29:16Z</time>
      </trkpt>
      <trkpt lat="45.18381" lon="5.9138">
        <ele>1407.4</ele>
        <time>2013-03-02T13:29:18Z</time>
      </trkpt>
      <trkpt lat="45.18387" lon="5.91378">
        <ele>1404.9</ele>
        <time>2013-03-02T13:29:21Z</time>
      </trkpt>
      <trkpt lat="45.18394" lon="5.91378">
        <ele>1403</ele>
        <time>2013-03-02T13:29:23Z</time>
      </trkpt>
      <trkpt lat="45.184" lon="5.91379">
        <ele>1400.9</ele>
        <time>2013-03-02T13:29:25Z</time>
      </trkpt>
      <trkpt lat="45.18406" lon="5.91379">
        <ele>1398.6</ele>
        <time>2013-03-02T13:29:27Z</time>
      </trkpt>
      <trkpt lat="45.18413" lon="5.91377">
        <ele>1396.9</ele>
        <time>2013-03-02T13:29:29Z</time>
      </trkpt>
      <trkpt lat="45.1842" lon="5.91377">
        <ele>1395.1</ele>
        <time>2013-03-02T13:29:31Z</time>
      </trkpt>
      <trkpt lat="45.18427" lon="5.91375">
        <ele>1392.9</ele>
        <time>2013-03-02T13:29:33Z</time>
      </trkpt>
      <trkpt lat="45.18434" lon="5.9137">
        <ele>1391</ele>
        <time>2013-03-02T13:29:35Z</time>
      </trkpt>
      <trkpt lat="45.18441" lon="5.91369">
        <ele>1387.2</ele>
        <time>2013-03-02T13:29:37Z</time>
      </trkpt>
      <trkpt lat="45.18449" lon="5.91369">
        <ele>1385.2</ele>
        <time>2013-03-02T13:29:40Z</time>
      </trkpt>
      <trkpt lat="45.18457" lon="5.91369">
        <ele>1384</ele>
        <time>2013-03-02T13:29:43Z</time>
      </trkpt>
      <trkpt lat="45.1846" lon="5.91368">
        <ele>1383.9</ele>
        <time>2013-03-02T13:29:44Z</time>
      </trkpt>
      <trkpt lat="45.18472" lon="5.91366">
        <ele>1383.7</ele>
        <time>2013-03-02T13:29:49Z</time>
      </trkpt>
      <trkpt lat="45.18481" lon="5.91363">
        <ele>1384.5</ele>
        <time>2013-03-02T13:29:53Z</time>
      </trkpt>
      <trkpt lat="45.18488" lon="5.9136">
        <ele>1383.9</ele>
        <time>2013-03-02T13:29:57Z</time>
      </trkpt>
      <trkpt lat="45.18497" lon="5.91357">
        <ele>1383.4</ele>
        <time>2013-03-02T13:30:02Z</time>
      </trkpt>
      <trkpt lat="45.18504" lon="5.91355">
        <ele>1383.9</ele>
        <time>2013-03-02T13:30:07Z</time>
      </trkpt>
      <trkpt lat="45.18512" lon="5.9135">
        <ele>1381.9</ele>
        <time>2013-03-02T13:30:12Z</time>
      </trkpt>
      <trkpt lat="45.18519" lon="5.91348">
        <ele>1378.7</ele>
        <time>2013-03-02T13:30:16Z</time>
      </trkpt>
      <trkpt lat="45.18527" lon="5.91344">
        <ele>1375.4</ele>
        <time>2013-03-02T13:30:19Z</time>
      </trkpt>
      <trkpt lat="45.18534" lon="5.9134">
        <ele>1372.7</ele>
        <time>2013-03-02T13:30:22Z</time>
      </trkpt>
      <trkpt lat="45.18539" lon="5.91336">
        <ele>1370.1</ele>
        <time>2013-03-02T13:30:24Z</time>
      </trkpt>
      <trkpt lat="45.18546" lon="5.91331">
        <ele>1368.4</ele>
        <time>2013-03-02T13:30:26Z</time>
      </trkpt>
      <trkpt lat="45.18553" lon="5.91327">
        <ele>1367.1</ele>
        <time>2013-03-02T13:30:28Z</time>
      </trkpt>
      <trkpt lat="45.1856" lon="5.91325">
        <ele>1366.3</ele>
        <time>2013-03-02T13:30:30Z</time>
      </trkpt>
      <trkpt lat="45.18565" lon="5.91322">
        <ele>1365.8</ele>
        <time>2013-03-02T13:30:32Z</time>
      </trkpt>
      <trkpt lat="45.18572" lon="5.91318">
        <ele>1364.6</ele>
        <time>2013-03-02T13:30:34Z</time>
      </trkpt>
      <trkpt lat="45.18579" lon="5.91316">
        <ele>1363.1</ele>
        <time>2013-03-02T13:30:36Z</time>
      </trkpt>
      <trkpt lat="45.18586" lon="5.91313">
        <ele>1361.6</ele>
        <time>2013-03-02T13:30:38Z</time>
      </trkpt>
      <trkpt lat="45.18593" lon="5.91311">
        <ele>1359.6</ele>
        <time>2013-03-02T13:30:40Z</time>
      </trkpt>
      <trkpt lat="45.18598" lon="5.91309">
        <ele>1358.4</ele>
        <time>2013-03-02T13:30:41Z</time>
      </trkpt>
      <trkpt lat="45.18603" lon="5.91306">
        <ele>1357</ele>
        <time>2013-03-02T13:30:42Z</time>
      </trkpt>
      <trkpt lat="45.18607" lon="5.91302">
        <ele>1355.9</ele>
        <time>2013-03-02T13:30:43Z</time>
      </trkpt>
      <trkpt lat="45.18614" lon="5.91297">
        <ele>1353.9</ele>
        <time>2013-03-02T13:30:45Z</time>
      </trkpt>
      <trkpt lat="45.18617" lon="5.91296">
        <ele>1352.9</ele>
        <time>2013-03-02T13:30:46Z</time>
      </trkpt>
      <trkpt lat="45.18631" lon="5.91293">
        <ele>1353.1</ele>
        <time>2013-03-02T13:30:51Z</time>
      </trkpt>
      <trkpt lat="45.18638" lon="5.91292">
        <ele>1353.2</ele>
        <time>2013-03-02T13:30:54Z</time>
      </trkpt>
      <trkpt lat="45.18647" lon="5.91291">
        <ele>1353.2</ele>
        <time>2013-03-02T13:30:58Z</time>
      </trkpt>
      <trkpt lat="45.18655" lon="5.9129">
        <ele>1353.6</ele>
        <time>2013-03-02T13:31:03Z</time>
      </trkpt>
      <trkpt lat="45.18664" lon="5.91288">
        <ele>1352.6</ele>
        <time>2013-03-02T13:31:10Z</time>
      </trkpt>
      <trkpt lat="45.18672" lon="5.91288">
        <ele>1352.9</ele>
        <time>2013-03-02T13:31:23Z</time>
      </trkpt>
      <trkpt lat="45.18681" lon="5.91287">
        <ele>1351.5</ele>
        <time>2013-03-02T13:31:40Z</time>
      </trkpt>
      <trkpt lat="45.18687" lon="5.91284">
        <ele>1350.9</ele>
        <time>2013-03-02T13:31:45Z</time>
      </trkpt>
      <trkpt lat="45.18695" lon="5.91279">
        <ele>1349.7</ele>
        <time>2013-03-02T13:31:48Z</time>
      </trkpt>
      <trkpt lat="45.18698" lon="5.91277">
        <ele>1349.6</ele>
        <time>2013-03-02T13:31:49Z</time>
      </trkpt>
      <trkpt lat="45.18707" lon="5.91269">
        <ele>1348.2</ele>
        <time>2013-03-02T13:31:54Z</time>
      </trkpt>
      <trkpt lat="45.18712" lon="5.9126">
        <ele>1347.6</ele>
        <time>2013-03-02T13:31:58Z</time>
      </trkpt>
      <trkpt lat="45.18717" lon="5.9125">
        <ele>1347.1</ele>
        <time>2013-03-02T13:32:02Z</time>
      </trkpt>
      <trkpt lat="45.18723" lon="5.91241">
        <ele>1345.3</ele>
        <time>2013-03-02T13:32:05Z</time>
      </trkpt>
      <trkpt lat="45.18727" lon="5.91232">
        <ele>1343.3</ele>
        <time>2013-03-02T13:32:08Z</time>
      </trkpt>
      <trkpt lat="45.18733" lon="5.91223">
        <ele>1341.3</ele>
        <time>2013-03-02T13:32:11Z</time>
      </trkpt>
      <trkpt lat="45.18736" lon="5.91215">
        <ele>1339.1</ele>
        <time>2013-03-02T13:32:13Z</time>
      </trkpt>
      <trkpt lat="45.18744" lon="5.91211">
        <ele>1336.4</ele>
        <time>2013-03-02T13:32:16Z</time>
      </trkpt>
      <trkpt lat="45.18748" lon="5.91207">
        <ele>1334.6</ele>
        <time>2013-03-02T13:32:18Z</time>
      </trkpt>
      <trkpt lat="45.18752" lon="5.91197">
        <ele>1332.9</ele>
        <time>2013-03-02T13:32:20Z</time>
      </trkpt>
      <trkpt lat="45.18752" lon="5.91185">
        <ele>1329.9</ele>
        <time>2013-03-02T13:32:23Z</time>
      </trkpt>
      <trkpt lat="45.18749" lon="5.91173">
        <ele>1324.4</ele>
        <time>2013-03-02T13:32:28Z</time>
      </trkpt>
      <trkpt lat="45.18742" lon="5.91168">
        <ele>1316.5</ele>
        <time>2013-03-02T13:32:36Z</time>
      </trkpt>
      <trkpt lat="45.18736" lon="5.9116">
        <ele>1313.6</ele>
        <time>2013-03-02T13:32:40Z</time>
      </trkpt>
      <trkpt lat="45.1873" lon="5.91154">
        <ele>1311.1</ele>
        <time>2013-03-02T13:32:42Z</time>
      </trkpt>
      <trkpt lat="45.18724" lon="5.91144">
        <ele>1308</ele>
        <time>2013-03-02T13:32:46Z</time>
      </trkpt>
      <trkpt lat="45.1872" lon="5.91134">
        <ele>1306.7</ele>
        <time>2013-03-02T13:32:51Z</time>
      </trkpt>
      <trkpt lat="45.18719" lon="5.91132">
        <ele>1306.5</ele>
        <time>2013-03-02T13:32:52Z</time>
      </trkpt>
      <trkpt lat="45.18711" lon="5.91121">
        <ele>1305.2</ele>
        <time>2013-03-02T13:32:56Z</time>
      </trkpt>
      <trkpt lat="45.18706" lon="5.91113">
        <ele>1303.9</ele>
        <time>2013-03-02T13:32:58Z</time>
      </trkpt>
      <trkpt lat="45.187" lon="5.91103">
        <ele>1301.9</ele>
        <time>2013-03-02T13:33:00Z</time>
      </trkpt>
      <trkpt lat="45.18695" lon="5.91094">
        <ele>1300</ele>
        <time>2013-03-02T13:33:02Z</time>
      </trkpt>
      <trkpt lat="45.18691" lon="5.91085">
        <ele>1298.8</ele>
        <time>2013-03-02T13:33:04Z</time>
      </trkpt>
      <trkpt lat="45.18686" lon="5.91077">
        <ele>1297.3</ele>
        <time>2013-03-02T13:33:06Z</time>
      </trkpt>
      <trkpt lat="45.18682" lon="5.91066">
        <ele>1295.7</ele>
        <time>2013-03-02T13:33:08Z</time>
      </trkpt>
      <trkpt lat="45.18677" lon="5.91059">
        <ele>1294.2</ele>
        <time>2013-03-02T13:33:10Z</time>
      </trkpt>
      <trkpt lat="45.18672" lon="5.91052">
        <ele>1292.5</ele>
        <time>2013-03-02T13:33:12Z</time>
      </trkpt>
      <trkpt lat="45.18668" lon="5.91044">
        <ele>1290.1</ele>
        <time>2013-03-02T13:33:14Z</time>
      </trkpt>
      <trkpt lat="45.18665" lon="5.91039">
        <ele>1288.9</ele>
        <time>2013-03-02T13:33:15Z</time>
      </trkpt>
      <trkpt lat="45.18662" lon="5.91034">
        <ele>1288.1</ele>
        <time>2013-03-02T13:33:16Z</time>
      </trkpt>
      <trkpt lat="45.18659" lon="5.91029">
        <ele>1286.9</ele>
        <time>2013-03-02T13:33:17Z</time>
      </trkpt>
      <trkpt lat="45.18655" lon="5.91024">
        <ele>1286</ele>
        <time>2013-03-02T13:33:18Z</time>
      </trkpt>
      <trkpt lat="45.18651" lon="5.91019">
        <ele>1284.1</ele>
        <time>2013-03-02T13:33:19Z</time>
      </trkpt>
      <trkpt lat="45.18647" lon="5.91013">
        <ele>1282.7</ele>
        <time>2013-03-02T13:33:20Z</time>
      </trkpt>
      <trkpt lat="45.18643" lon="5.91006">
        <ele>1281.1</ele>
        <time>2013-03-02T13:33:21Z</time>
      </trkpt>
      <trkpt lat="45.18638" lon="5.91002">
        <ele>1279.9</ele>
        <time>2013-03-02T13:33:22Z</time>
      </trkpt>
      <trkpt lat="45.18631" lon="5.90994">
        <ele>1277.4</ele>
        <time>2013-03-02T13:33:24Z</time>
      </trkpt>
      <trkpt lat="45.18626" lon="5.90986">
        <ele>1276.1</ele>
        <time>2013-03-02T13:33:26Z</time>
      </trkpt>
      <trkpt lat="45.1862" lon="5.90975">
        <ele>1275.5</ele>
        <time>2013-03-02T13:33:28Z</time>
      </trkpt>
      <trkpt lat="45.18617" lon="5.90968">
        <ele>1274.8</ele>
        <time>2013-03-02T13:33:30Z</time>
      </trkpt>
      <trkpt lat="45.18613" lon="5.90959">
        <ele>1271.8</ele>
        <time>2013-03-02T13:33:33Z</time>
      </trkpt>
      <trkpt lat="45.18608" lon="5.9095">
        <ele>1269.2</ele>
        <time>2013-03-02T13:33:36Z</time>
      </trkpt>
      <trkpt lat="45.18605" lon="5.90943">
        <ele>1267.1</ele>
        <time>2013-03-02T13:33:38Z</time>
      </trkpt>
      <trkpt lat="45.18599" lon="5.90935">
        <ele>1265.2</ele>
        <time>2013-03-02T13:33:40Z</time>
      </trkpt>
      <trkpt lat="45.18596" lon="5.90929">
        <ele>1264.5</ele>
        <time>2013-03-02T13:33:41Z</time>
      </trkpt>
      <trkpt lat="45.1859" lon="5.90921">
        <ele>1263.2</ele>
        <time>2013-03-02T13:33:43Z</time>
      </trkpt>
      <trkpt lat="45.18584" lon="5.90915">
        <ele>1261.3</ele>
        <time>2013-03-02T13:33:45Z</time>
      </trkpt>
      <trkpt lat="45.18581" lon="5.90911">
        <ele>1260.3</ele>
        <time>2013-03-02T13:33:46Z</time>
      </trkpt>
      <trkpt lat="45.18577" lon="5.90907">
        <ele>1259.2</ele>
        <time>2013-03-02T13:33:47Z</time>
      </trkpt>
      <trkpt lat="45.1857" lon="5.90899">
        <ele>1257.8</ele>
        <time>2013-03-02T13:33:49Z</time>
      </trkpt>
      <trkpt lat="45.18562" lon="5.90893">
        <ele>1254.8</ele>
        <time>2013-03-02T13:33:51Z</time>
      </trkpt>
      <trkpt lat="45.18557" lon="5.90889">
        <ele>1253.1</ele>
        <time>2013-03-02T13:33:52Z</time>
      </trkpt>
      <trkpt lat="45.18554" lon="5.90882">
        <ele>1251.8</ele>
        <time>2013-03-02T13:33:53Z</time>
      </trkpt>
      <trkpt lat="45.18551" lon="5.90878">
        <ele>1250.9</ele>
        <time>2013-03-02T13:33:54Z</time>
      </trkpt>
      <trkpt lat="45.18542" lon="5.90865">
        <ele>1247.4</ele>
        <time>2013-03-02T13:33:57Z</time>
      </trkpt>
      <trkpt lat="45.18539" lon="5.90859">
        <ele>1246</ele>
        <time>2013-03-02T13:33:58Z</time>
      </trkpt>
      <trkpt lat="45.18536" lon="5.90854">
        <ele>1244.5</ele>
        <time>2013-03-02T13:33:59Z</time>
      </trkpt>
      <trkpt lat="45.18532" lon="5.90849">
        <ele>1243.4</ele>
        <time>2013-03-02T13:34:00Z</time>
      </trkpt>
      <trkpt lat="45.18528" lon="5.90845">
        <ele>1242.6</ele>
        <time>2013-03-02T13:34:01Z</time>
      </trkpt>
      <trkpt lat="45.18524" lon="5.90841">
        <ele>1241.1</ele>
        <time>2013-03-02T13:34:02Z</time>
      </trkpt>
      <trkpt lat="45.18521" lon="5.90836">
        <ele>1240</ele>
        <time>2013-03-02T13:34:03Z</time>
      </trkpt>
      <trkpt lat="45.18515" lon="5.90828">
        <ele>1239</ele>
        <time>2013-03-02T13:34:05Z</time>
      </trkpt>
      <trkpt lat="45.18512" lon="5.90823">
        <ele>1237.6</ele>
        <time>2013-03-02T13:34:06Z</time>
      </trkpt>
      <trkpt lat="45.18508" lon="5.90818">
        <ele>1236.6</ele>
        <time>2013-03-02T13:34:07Z</time>
      </trkpt>
      <trkpt lat="45.18503" lon="5.90812">
        <ele>1235.8</ele>
        <time>2013-03-02T13:34:08Z</time>
      </trkpt>
      <trkpt lat="45.185" lon="5.90807">
        <ele>1234.9</ele>
        <time>2013-03-02T13:34:09Z</time>
      </trkpt>
      <trkpt lat="45.18495" lon="5.90801">
        <ele>1234.3</ele>
        <time>2013-03-02T13:34:10Z</time>
      </trkpt>
      <trkpt lat="45.18491" lon="5.90795">
        <ele>1232.5</ele>
        <time>2013-03-02T13:34:11Z</time>
      </trkpt>
      <trkpt lat="45.18485" lon="5.90791">
        <ele>1231.2</ele>
        <time>2013-03-02T13:34:12Z</time>
      </trkpt>
      <trkpt lat="45.18481" lon="5.90786">
        <ele>1229.5</ele>
        <time>2013-03-02T13:34:13Z</time>
      </trkpt>
      <trkpt lat="45.18477" lon="5.90781">
        <ele>1228.2</ele>
        <time>2013-03-02T13:34:14Z</time>
      </trkpt>
      <trkpt lat="45.18473" lon="5.90777">
        <ele>1227.3</ele>
        <time>2013-03-02T13:34:15Z</time>
      </trkpt>
      <trkpt lat="45.1847" lon="5.90772">
        <ele>1225.8</ele>
        <time>2013-03-02T13:34:16Z</time>
      </trkpt>
      <trkpt lat="45.18465" lon="5.90767">
        <ele>1224.7</ele>
        <time>2013-03-02T13:34:17Z</time>
      </trkpt>
      <trkpt lat="45.18461" lon="5.90761">
        <ele>1223.3</ele>
        <time>2013-03-02T13:34:18Z</time>
      </trkpt>
      <trkpt lat="45.18457" lon="5.90755">
        <ele>1222.3</ele>
        <time>2013-03-02T13:34:19Z</time>
      </trkpt>
      <trkpt lat="45.18453" lon="5.90749">
        <ele>1221.6</ele>
        <time>2013-03-02T13:34:20Z</time>
      </trkpt>
      <trkpt lat="45.1845" lon="5.90742">
        <ele>1219.8</ele>
        <time>2013-03-02T13:34:21Z</time>
      </trkpt>
      <trkpt lat="45.18447" lon="5.90734">
        <ele>1218.4</ele>
        <time>2013-03-02T13:34:22Z</time>
      </trkpt>
      <trkpt lat="45.18447" lon="5.90725">
        <ele>1217.1</ele>
        <time>2013-03-02T13:34:23Z</time>
      </trkpt>
      <trkpt lat="45.18447" lon="5.90716">
        <ele>1216.2</ele>
        <time>2013-03-02T13:34:24Z</time>
      </trkpt>
      <trkpt lat="45.18448" lon="5.90708">
        <ele>1214.5</ele>
        <time>2013-03-02T13:34:25Z</time>
      </trkpt>
      <trkpt lat="45.1845" lon="5.90701">
        <ele>1213.1</ele>
        <time>2013-03-02T13:34:26Z</time>
      </trkpt>
      <trkpt lat="45.18451" lon="5.90694">
        <ele>1212.2</ele>
        <time>2013-03-02T13:34:27Z</time>
      </trkpt>
      <trkpt lat="45.18452" lon="5.90687">
        <ele>1211.1</ele>
        <time>2013-03-02T13:34:28Z</time>
      </trkpt>
      <trkpt lat="45.18453" lon="5.90676">
        <ele>1209.6</ele>
        <time>2013-03-02T13:34:30Z</time>
      </trkpt>
      <trkpt lat="45.18455" lon="5.90666">
        <ele>1208.6</ele>
        <time>2013-03-02T13:34:32Z</time>
      </trkpt>
      <trkpt lat="45.18457" lon="5.90657">
        <ele>1208</ele>
        <time>2013-03-02T13:34:34Z</time>
      </trkpt>
      <trkpt lat="45.18462" lon="5.90647">
        <ele>1205.6</ele>
        <time>2013-03-02T13:34:39Z</time>
      </trkpt>
      <trkpt lat="45.18467" lon="5.90639">
        <ele>1201.5</ele>
        <time>2013-03-02T13:34:44Z</time>
      </trkpt>
      <trkpt lat="45.18474" lon="5.90634">
        <ele>1198.6</ele>
        <time>2013-03-02T13:34:47Z</time>
      </trkpt>
      <trkpt lat="45.18481" lon="5.90629">
        <ele>1195.6</ele>
        <time>2013-03-02T13:34:50Z</time>
      </trkpt>
      <trkpt lat="45.18489" lon="5.90623">
        <ele>1191.4</ele>
        <time>2013-03-02T13:34:53Z</time>
      </trkpt>
      <trkpt lat="45.18497" lon="5.90618">
        <ele>1189</ele>
        <time>2013-03-02T13:34:55Z</time>
      </trkpt>
      <trkpt lat="45.18503" lon="5.90616">
        <ele>1187</ele>
        <time>2013-03-02T13:34:56Z</time>
      </trkpt>
      <trkpt lat="45.18509" lon="5.90614">
        <ele>1184.5</ele>
        <time>2013-03-02T13:34:58Z</time>
      </trkpt>
      <trkpt lat="45.18516" lon="5.90607">
        <ele>1181.1</ele>
        <time>2013-03-02T13:35:00Z</time>
      </trkpt>
      <trkpt lat="45.18519" lon="5.90602">
        <ele>1179</ele>
        <time>2013-03-02T13:35:01Z</time>
      </trkpt>
      <trkpt lat="45.18522" lon="5.90595">
        <ele>1177.4</ele>
        <time>2013-03-02T13:35:02Z</time>
      </trkpt>
      <trkpt lat="45.18526" lon="5.90583">
        <ele>1175.8</ele>
        <time>2013-03-02T13:35:03Z</time>
      </trkpt>
      <trkpt lat="45.18531" lon="5.90573">
        <ele>1174.6</ele>
        <time>2013-03-02T13:35:04Z</time>
      </trkpt>
      <trkpt lat="45.18534" lon="5.90562">
        <ele>1173.8</ele>
        <time>2013-03-02T13:35:05Z</time>
      </trkpt>
      <trkpt lat="45.18538" lon="5.9055">
        <ele>1172.6</ele>
        <time>2013-03-02T13:35:06Z</time>
      </trkpt>
      <trkpt lat="45.18543" lon="5.9054">
        <ele>1171.8</ele>
        <time>2013-03-02T13:35:07Z</time>
      </trkpt>
      <trkpt lat="45.18546" lon="5.90529">
        <ele>1170.8</ele>
        <time>2013-03-02T13:35:08Z</time>
      </trkpt>
      <trkpt lat="45.18552" lon="5.90521">
        <ele>1170</ele>
        <time>2013-03-02T13:35:09Z</time>
      </trkpt>
      <trkpt lat="45.18557" lon="5.90514">
        <ele>1168.5</ele>
        <time>2013-03-02T13:35:10Z</time>
      </trkpt>
      <trkpt lat="45.18562" lon="5.90508">
        <ele>1167.5</ele>
        <time>2013-03-02T13:35:11Z</time>
      </trkpt>
      <trkpt lat="45.18565" lon="5.905">
        <ele>1166.6</ele>
        <time>2013-03-02T13:35:12Z</time>
      </trkpt>
      <trkpt lat="45.18567" lon="5.90493">
        <ele>1165.5</ele>
        <time>2013-03-02T13:35:13Z</time>
      </trkpt>
      <trkpt lat="45.18572" lon="5.90488">
        <ele>1164.7</ele>
        <time>2013-03-02T13:35:14Z</time>
      </trkpt>
      <trkpt lat="45.18581" lon="5.90483">
        <ele>1163.3</ele>
        <time>2013-03-02T13:35:15Z</time>
      </trkpt>
      <trkpt lat="45.18587" lon="5.90477">
        <ele>1162.3</ele>
        <time>2013-03-02T13:35:16Z</time>
      </trkpt>
      <trkpt lat="45.18594" lon="5.90472">
        <ele>1161.5</ele>
        <time>2013-03-02T13:35:17Z</time>
      </trkpt>
      <trkpt lat="45.18598" lon="5.90466">
        <ele>1160.9</ele>
        <time>2013-03-02T13:35:18Z</time>
      </trkpt>
      <trkpt lat="45.18603" lon="5.90459">
        <ele>1160.4</ele>
        <time>2013-03-02T13:35:19Z</time>
      </trkpt>
      <trkpt lat="45.18607" lon="5.90453">
        <ele>1158.8</ele>
        <time>2013-03-02T13:35:20Z</time>
      </trkpt>
      <trkpt lat="45.18612" lon="5.90445">
        <ele>1157.5</ele>
        <time>2013-03-02T13:35:21Z</time>
      </trkpt>
      <trkpt lat="45.18616" lon="5.90436">
        <ele>1156</ele>
        <time>2013-03-02T13:35:22Z</time>
      </trkpt>
      <trkpt lat="45.18622" lon="5.90429">
        <ele>1154.9</ele>
        <time>2013-03-02T13:35:23Z</time>
      </trkpt>
      <trkpt lat="45.18627" lon="5.90423">
        <ele>1154</ele>
        <time>2013-03-02T13:35:24Z</time>
      </trkpt>
      <trkpt lat="45.18632" lon="5.90419">
        <ele>1152.7</ele>
        <time>2013-03-02T13:35:25Z</time>
      </trkpt>
      <trkpt lat="45.18639" lon="5.90415">
        <ele>1151.7</ele>
        <time>2013-03-02T13:35:26Z</time>
      </trkpt>
      <trkpt lat="45.18644" lon="5.90411">
        <ele>1150.5</ele>
        <time>2013-03-02T13:35:27Z</time>
      </trkpt>
      <trkpt lat="45.18649" lon="5.90405">
        <ele>1149.6</ele>
        <time>2013-03-02T13:35:28Z</time>
      </trkpt>
      <trkpt lat="45.18651" lon="5.90398">
        <ele>1148.5</ele>
        <time>2013-03-02T13:35:29Z</time>
      </trkpt>
      <trkpt lat="45.18653" lon="5.90391">
        <ele>1147.7</ele>
        <time>2013-03-02T13:35:30Z</time>
      </trkpt>
      <trkpt lat="45.18652" lon="5.90384">
        <ele>1147.1</ele>
        <time>2013-03-02T13:35:31Z</time>
      </trkpt>
      <trkpt lat="45.18651" lon="5.90376">
        <ele>1145.5</ele>
        <time>2013-03-02T13:35:32Z</time>
      </trkpt>
      <trkpt lat="45.18649" lon="5.90367">
        <ele>1144.2</ele>
        <time>2013-03-02T13:35:33Z</time>
      </trkpt>
      <trkpt lat="45.18646" lon="5.90359">
        <ele>1142.8</ele>
        <time>2013-03-02T13:35:34Z</time>
      </trkpt>
      <trkpt lat="45.18645" lon="5.90351">
        <ele>1141.8</ele>
        <time>2013-03-02T13:35:35Z</time>
      </trkpt>
      <trkpt lat="45.18643" lon="5.90342">
        <ele>1141</ele>
        <time>2013-03-02T13:35:36Z</time>
      </trkpt>
      <trkpt lat="45.18642" lon="5.90332">
        <ele>1139.4</ele>
        <time>2013-03-02T13:35:37Z</time>
      </trkpt>
      <trkpt lat="45.18641" lon="5.90321">
        <ele>1138.2</ele>
        <time>2013-03-02T13:35:38Z</time>
      </trkpt>
      <trkpt lat="45.1864" lon="5.90311">
        <ele>1136.8</ele>
        <time>2013-03-02T13:35:39Z</time>
      </trkpt>
      <trkpt lat="45.18641" lon="5.90302">
        <ele>1135.8</ele>
        <time>2013-03-02T13:35:40Z</time>
      </trkpt>
      <trkpt lat="45.18641" lon="5.90291">
        <ele>1134</ele>
        <time>2013-03-02T13:35:41Z</time>
      </trkpt>
      <trkpt lat="45.18639" lon="5.9028">
        <ele>1132.7</ele>
        <time>2013-03-02T13:35:42Z</time>
      </trkpt>
      <trkpt lat="45.18638" lon="5.90267">
        <ele>1131.7</ele>
        <time>2013-03-02T13:35:43Z</time>
      </trkpt>
      <trkpt lat="45.18636" lon="5.90256">
        <ele>1130.1</ele>
        <time>2013-03-02T13:35:44Z</time>
      </trkpt>
      <trkpt lat="45.18635" lon="5.90244">
        <ele>1128.8</ele>
        <time>2013-03-02T13:35:45Z</time>
      </trkpt>
      <trkpt lat="45.18634" lon="5.90233">
        <ele>1127.7</ele>
        <time>2013-03-02T13:35:46Z</time>
      </trkpt>
      <trkpt lat="45.18632" lon="5.90224">
        <ele>1126.9</ele>
        <time>2013-03-02T13:35:47Z</time>
      </trkpt>
      <trkpt lat="45.18632" lon="5.90213">
        <ele>1125.5</ele>
        <time>2013-03-02T13:35:48Z</time>
      </trkpt>
      <trkpt lat="45.1863" lon="5.90203">
        <ele>1124.4</ele>
        <time>2013-03-02T13:35:49Z</time>
      </trkpt>
      <trkpt lat="45.1863" lon="5.90192">
        <ele>1123.6</ele>
        <time>2013-03-02T13:35:50Z</time>
      </trkpt>
      <trkpt lat="45.1863" lon="5.90181">
        <ele>1123.3</ele>
        <time>2013-03-02T13:35:51Z</time>
      </trkpt>
      <trkpt lat="45.18629" lon="5.90172">
        <ele>1123.1</ele>
        <time>2013-03-02T13:35:52Z</time>
      </trkpt>
      <trkpt lat="45.18628" lon="5.90164">
        <ele>1122.8</ele>
        <time>2013-03-02T13:35:53Z</time>
      </trkpt>
      <trkpt lat="45.18628" lon="5.90158">
        <ele>1122.6</ele>
        <time>2013-03-02T13:35:54Z</time>
      </trkpt>
      <trkpt lat="45.1863" lon="5.90151">
        <ele>1122.1</ele>
        <time>2013-03-02T13:35:55Z</time>
      </trkpt>
      <trkpt lat="45.18632" lon="5.90142">
        <ele>1121.7</ele>
        <time>2013-03-02T13:35:56Z</time>
      </trkpt>
      <trkpt lat="45.18633" lon="5.90134">
        <ele>1121.3</ele>
        <time>2013-03-02T13:35:57Z</time>
      </trkpt>
      <trkpt lat="45.18636" lon="5.90126">
        <ele>1120.2</ele>
        <time>2013-03-02T13:35:58Z</time>
      </trkpt>
      <trkpt lat="45.18637" lon="5.9012">
        <ele>1119.4</ele>
        <time>2013-03-02T13:35:59Z</time>
      </trkpt>
      <trkpt lat="45.1864" lon="5.90109">
        <ele>1118.1</ele>
        <time>2013-03-02T13:36:01Z</time>
      </trkpt>
      <trkpt lat="45.18643" lon="5.90099">
        <ele>1116.9</ele>
        <time>2013-03-02T13:36:03Z</time>
      </trkpt>
      <trkpt lat="45.18645" lon="5.90094">
        <ele>1116.4</ele>
        <time>2013-03-02T13:36:04Z</time>
      </trkpt>
      <trkpt lat="45.18649" lon="5.90088">
        <ele>1115.5</ele>
        <time>2013-03-02T13:36:05Z</time>
      </trkpt>
      <trkpt lat="45.18652" lon="5.90083">
        <ele>1114.7</ele>
        <time>2013-03-02T13:36:06Z</time>
      </trkpt>
      <trkpt lat="45.18654" lon="5.90076">
        <ele>1114.2</ele>
        <time>2013-03-02T13:36:07Z</time>
      </trkpt>
      <trkpt lat="45.18656" lon="5.90071">
        <ele>1113.8</ele>
        <time>2013-03-02T13:36:08Z</time>
      </trkpt>
      <trkpt lat="45.18659" lon="5.90065">
        <ele>1113.5</ele>
        <time>2013-03-02T13:36:09Z</time>
      </trkpt>
      <trkpt lat="45.18662" lon="5.90058">
        <ele>1112.7</ele>
        <time>2013-03-02T13:36:10Z</time>
      </trkpt>
      <trkpt lat="45.18666" lon="5.90049">
        <ele>1111</ele>
        <time>2013-03-02T13:36:12Z</time>
      </trkpt>
      <trkpt lat="45.18671" lon="5.90042">
        <ele>1109.7</ele>
        <time>2013-03-02T13:36:14Z</time>
      </trkpt>
      <trkpt lat="45.18673" lon="5.90031">
        <ele>1109.4</ele>
        <time>2013-03-02T13:36:16Z</time>
      </trkpt>
      <trkpt lat="45.18673" lon="5.90018">
        <ele>1108.5</ele>
        <time>2013-03-02T13:36:18Z</time>
      </trkpt>
      <trkpt lat="45.18671" lon="5.90009">
        <ele>1107.2</ele>
        <time>2013-03-02T13:36:20Z</time>
      </trkpt>
      <trkpt lat="45.18668" lon="5.89998">
        <ele>1105.9</ele>
        <time>2013-03-02T13:36:23Z</time>
      </trkpt>
      <trkpt lat="45.18667" lon="5.89988">
        <ele>1105.5</ele>
        <time>2013-03-02T13:36:26Z</time>
      </trkpt>
      <trkpt lat="45.18667" lon="5.89976">
        <ele>1106.5</ele>
        <time>2013-03-02T13:36:30Z</time>
      </trkpt>
      <trkpt lat="45.18668" lon="5.89965">
        <ele>1105.8</ele>
        <time>2013-03-02T13:36:35Z</time>
      </trkpt>
      <trkpt lat="45.18667" lon="5.89953">
        <ele>1106.4</ele>
        <time>2013-03-02T13:36:41Z</time>
      </trkpt>
      <trkpt lat="45.18665" lon="5.89941">
        <ele>1106.6</ele>
        <time>2013-03-02T13:36:50Z</time>
      </trkpt>
      <trkpt lat="45.18663" lon="5.8993">
        <ele>1107.1</ele>
        <time>2013-03-02T13:36:57Z</time>
      </trkpt>
      <trkpt lat="45.18666" lon="5.89918">
        <ele>1105.7</ele>
        <time>2013-03-02T13:37:09Z</time>
      </trkpt>
      <trkpt lat="45.18666" lon="5.89918">
        <ele>1105.8</ele>
        <time>2013-03-02T13:37:10Z</time>
      </trkpt>
      <trkpt lat="45.18671" lon="5.89918">
        <ele>1107.1</ele>
        <time>2013-03-02T13:39:09Z</time>
      </trkpt>
    </trkseg>
  </trk>
</gpx>